<?xml version="1.0" encoding="UTF-8" standalone="no" ?>
<gpx xmlns="http://www.topografix.com/GPX/1/1" xmlns:xsi="http://www.w3.org/2001/XMLSchema-instance" xsi:schemaLocation="http://www.topografix.com/GPX/1/1 http://www.topografix.com/GPX/1/1/gpx.xsd" version="1.1" creator="VisuGPX - https://www.visugpx.com">
  <metadata>
    <name>St Hubert MARCHE ADEPS  2013 (Sept )</name>
    <desc><![CDATA[Marche sympa pour se ressourcé]]></desc>
  </metadata>
  <trk>
    <name><![CDATA[solo scooby]]></name>
    <trkseg>
      <trkpt lat="50.02872" lon="5.382">
        <ele>369</ele>
        <time>2013-09-08T06:33:37Z</time>
      </trkpt>
      <trkpt lat="50.0287" lon="5.382">
        <ele>369</ele>
        <time>2013-09-08T06:33:42Z</time>
      </trkpt>
      <trkpt lat="50.02866" lon="5.38198">
        <ele>369</ele>
        <time>2013-09-08T06:33:48Z</time>
      </trkpt>
      <trkpt lat="50.02861" lon="5.38196">
        <ele>369</ele>
        <time>2013-09-08T06:33:53Z</time>
      </trkpt>
      <trkpt lat="50.02858" lon="5.38191">
        <ele>369</ele>
        <time>2013-09-08T06:33:59Z</time>
      </trkpt>
      <trkpt lat="50.02861" lon="5.38183">
        <ele>368</ele>
        <time>2013-09-08T06:34:05Z</time>
      </trkpt>
      <trkpt lat="50.02865" lon="5.38176">
        <ele>368</ele>
        <time>2013-09-08T06:34:10Z</time>
      </trkpt>
      <trkpt lat="50.02866" lon="5.38172">
        <ele>367</ele>
        <time>2013-09-08T06:34:15Z</time>
      </trkpt>
      <trkpt lat="50.02868" lon="5.3817">
        <ele>366</ele>
        <time>2013-09-08T06:34:21Z</time>
      </trkpt>
      <trkpt lat="50.0287" lon="5.38164">
        <ele>366</ele>
        <time>2013-09-08T06:34:26Z</time>
      </trkpt>
      <trkpt lat="50.0287" lon="5.38154">
        <ele>365</ele>
        <time>2013-09-08T06:34:32Z</time>
      </trkpt>
      <trkpt lat="50.02868" lon="5.38144">
        <ele>365</ele>
        <time>2013-09-08T06:34:38Z</time>
      </trkpt>
      <trkpt lat="50.02866" lon="5.38135">
        <ele>365</ele>
        <time>2013-09-08T06:34:43Z</time>
      </trkpt>
      <trkpt lat="50.02863" lon="5.38128">
        <ele>364</ele>
        <time>2013-09-08T06:34:48Z</time>
      </trkpt>
      <trkpt lat="50.02858" lon="5.38121">
        <ele>365</ele>
        <time>2013-09-08T06:34:53Z</time>
      </trkpt>
      <trkpt lat="50.02853" lon="5.38113">
        <ele>364</ele>
        <time>2013-09-08T06:34:59Z</time>
      </trkpt>
      <trkpt lat="50.0285" lon="5.38107">
        <ele>364</ele>
        <time>2013-09-08T06:35:04Z</time>
      </trkpt>
      <trkpt lat="50.02843" lon="5.38099">
        <ele>364</ele>
        <time>2013-09-08T06:35:10Z</time>
      </trkpt>
      <trkpt lat="50.02839" lon="5.38093">
        <ele>364</ele>
        <time>2013-09-08T06:35:15Z</time>
      </trkpt>
      <trkpt lat="50.02834" lon="5.38084">
        <ele>364</ele>
        <time>2013-09-08T06:35:21Z</time>
      </trkpt>
      <trkpt lat="50.0283" lon="5.38076">
        <ele>364</ele>
        <time>2013-09-08T06:35:26Z</time>
      </trkpt>
      <trkpt lat="50.02827" lon="5.38068">
        <ele>364</ele>
        <time>2013-09-08T06:35:31Z</time>
      </trkpt>
      <trkpt lat="50.02823" lon="5.38061">
        <ele>364</ele>
        <time>2013-09-08T06:35:36Z</time>
      </trkpt>
      <trkpt lat="50.02819" lon="5.38051">
        <ele>364</ele>
        <time>2013-09-08T06:35:42Z</time>
      </trkpt>
      <trkpt lat="50.02815" lon="5.38043">
        <ele>365</ele>
        <time>2013-09-08T06:35:48Z</time>
      </trkpt>
      <trkpt lat="50.02811" lon="5.38036">
        <ele>365</ele>
        <time>2013-09-08T06:35:53Z</time>
      </trkpt>
      <trkpt lat="50.02808" lon="5.3803">
        <ele>364</ele>
        <time>2013-09-08T06:35:58Z</time>
      </trkpt>
      <trkpt lat="50.02803" lon="5.38024">
        <ele>364</ele>
        <time>2013-09-08T06:36:04Z</time>
      </trkpt>
      <trkpt lat="50.02801" lon="5.38015">
        <ele>364</ele>
        <time>2013-09-08T06:36:10Z</time>
      </trkpt>
      <trkpt lat="50.02801" lon="5.38005">
        <ele>365</ele>
        <time>2013-09-08T06:36:15Z</time>
      </trkpt>
      <trkpt lat="50.028" lon="5.37999">
        <ele>364</ele>
        <time>2013-09-08T06:36:21Z</time>
      </trkpt>
      <trkpt lat="50.028" lon="5.37999">
        <ele>365</ele>
        <time>2013-09-08T06:36:26Z</time>
      </trkpt>
      <trkpt lat="50.02801" lon="5.37998">
        <ele>364</ele>
        <time>2013-09-08T06:36:31Z</time>
      </trkpt>
      <trkpt lat="50.02802" lon="5.37998">
        <ele>364</ele>
        <time>2013-09-08T06:36:36Z</time>
      </trkpt>
      <trkpt lat="50.02802" lon="5.37997">
        <ele>365</ele>
        <time>2013-09-08T06:36:42Z</time>
      </trkpt>
      <trkpt lat="50.02801" lon="5.37996">
        <ele>364</ele>
        <time>2013-09-08T06:36:47Z</time>
      </trkpt>
      <trkpt lat="50.02801" lon="5.37994">
        <ele>364</ele>
        <time>2013-09-08T06:36:52Z</time>
      </trkpt>
      <trkpt lat="50.02801" lon="5.37993">
        <ele>365</ele>
        <time>2013-09-08T06:36:58Z</time>
      </trkpt>
      <trkpt lat="50.028" lon="5.37994">
        <ele>364</ele>
        <time>2013-09-08T06:37:04Z</time>
      </trkpt>
      <trkpt lat="50.028" lon="5.37993">
        <ele>364</ele>
        <time>2013-09-08T06:37:10Z</time>
      </trkpt>
      <trkpt lat="50.02795" lon="5.37997">
        <ele>364</ele>
        <time>2013-09-08T06:37:16Z</time>
      </trkpt>
      <trkpt lat="50.0279" lon="5.38001">
        <ele>364</ele>
        <time>2013-09-08T06:37:21Z</time>
      </trkpt>
      <trkpt lat="50.02783" lon="5.38006">
        <ele>365</ele>
        <time>2013-09-08T06:37:27Z</time>
      </trkpt>
      <trkpt lat="50.02778" lon="5.38012">
        <ele>366</ele>
        <time>2013-09-08T06:37:32Z</time>
      </trkpt>
      <trkpt lat="50.02772" lon="5.38018">
        <ele>367</ele>
        <time>2013-09-08T06:37:38Z</time>
      </trkpt>
      <trkpt lat="50.02767" lon="5.38021">
        <ele>368</ele>
        <time>2013-09-08T06:37:43Z</time>
      </trkpt>
      <trkpt lat="50.0276" lon="5.38026">
        <ele>369</ele>
        <time>2013-09-08T06:37:49Z</time>
      </trkpt>
      <trkpt lat="50.02755" lon="5.38029">
        <ele>371</ele>
        <time>2013-09-08T06:37:55Z</time>
      </trkpt>
      <trkpt lat="50.0275" lon="5.38033">
        <ele>371</ele>
        <time>2013-09-08T06:38:00Z</time>
      </trkpt>
      <trkpt lat="50.02746" lon="5.38036">
        <ele>372</ele>
        <time>2013-09-08T06:38:05Z</time>
      </trkpt>
      <trkpt lat="50.02739" lon="5.3804">
        <ele>373</ele>
        <time>2013-09-08T06:38:11Z</time>
      </trkpt>
      <trkpt lat="50.02734" lon="5.38044">
        <ele>373</ele>
        <time>2013-09-08T06:38:16Z</time>
      </trkpt>
      <trkpt lat="50.02728" lon="5.38049">
        <ele>374</ele>
        <time>2013-09-08T06:38:22Z</time>
      </trkpt>
      <trkpt lat="50.02721" lon="5.38053">
        <ele>374</ele>
        <time>2013-09-08T06:38:28Z</time>
      </trkpt>
      <trkpt lat="50.02716" lon="5.38057">
        <ele>375</ele>
        <time>2013-09-08T06:38:33Z</time>
      </trkpt>
      <trkpt lat="50.0271" lon="5.38061">
        <ele>376</ele>
        <time>2013-09-08T06:38:38Z</time>
      </trkpt>
      <trkpt lat="50.02704" lon="5.38064">
        <ele>377</ele>
        <time>2013-09-08T06:38:43Z</time>
      </trkpt>
      <trkpt lat="50.02698" lon="5.38068">
        <ele>377</ele>
        <time>2013-09-08T06:38:49Z</time>
      </trkpt>
      <trkpt lat="50.02693" lon="5.38072">
        <ele>378</ele>
        <time>2013-09-08T06:38:54Z</time>
      </trkpt>
      <trkpt lat="50.02686" lon="5.3808">
        <ele>379</ele>
        <time>2013-09-08T06:39:00Z</time>
      </trkpt>
      <trkpt lat="50.02684" lon="5.38089">
        <ele>379</ele>
        <time>2013-09-08T06:39:06Z</time>
      </trkpt>
      <trkpt lat="50.02686" lon="5.381">
        <ele>378</ele>
        <time>2013-09-08T06:39:12Z</time>
      </trkpt>
      <trkpt lat="50.02689" lon="5.38108">
        <ele>378</ele>
        <time>2013-09-08T06:39:17Z</time>
      </trkpt>
      <trkpt lat="50.02692" lon="5.38118">
        <ele>378</ele>
        <time>2013-09-08T06:39:23Z</time>
      </trkpt>
      <trkpt lat="50.02695" lon="5.38127">
        <ele>378</ele>
        <time>2013-09-08T06:39:28Z</time>
      </trkpt>
      <trkpt lat="50.02698" lon="5.38137">
        <ele>378</ele>
        <time>2013-09-08T06:39:34Z</time>
      </trkpt>
      <trkpt lat="50.02699" lon="5.38145">
        <ele>377</ele>
        <time>2013-09-08T06:39:39Z</time>
      </trkpt>
      <trkpt lat="50.02702" lon="5.38155">
        <ele>377</ele>
        <time>2013-09-08T06:39:45Z</time>
      </trkpt>
      <trkpt lat="50.02705" lon="5.38163">
        <ele>377</ele>
        <time>2013-09-08T06:39:50Z</time>
      </trkpt>
      <trkpt lat="50.02707" lon="5.38173">
        <ele>377</ele>
        <time>2013-09-08T06:39:56Z</time>
      </trkpt>
      <trkpt lat="50.02709" lon="5.38183">
        <ele>378</ele>
        <time>2013-09-08T06:40:02Z</time>
      </trkpt>
      <trkpt lat="50.02711" lon="5.3819">
        <ele>378</ele>
        <time>2013-09-08T06:40:07Z</time>
      </trkpt>
      <trkpt lat="50.02713" lon="5.382">
        <ele>378</ele>
        <time>2013-09-08T06:40:13Z</time>
      </trkpt>
      <trkpt lat="50.02716" lon="5.38208">
        <ele>378</ele>
        <time>2013-09-08T06:40:18Z</time>
      </trkpt>
      <trkpt lat="50.02718" lon="5.38218">
        <ele>378</ele>
        <time>2013-09-08T06:40:24Z</time>
      </trkpt>
      <trkpt lat="50.0272" lon="5.38227">
        <ele>379</ele>
        <time>2013-09-08T06:40:29Z</time>
      </trkpt>
      <trkpt lat="50.02723" lon="5.38237">
        <ele>379</ele>
        <time>2013-09-08T06:40:35Z</time>
      </trkpt>
      <trkpt lat="50.02726" lon="5.38248">
        <ele>379</ele>
        <time>2013-09-08T06:40:41Z</time>
      </trkpt>
      <trkpt lat="50.02729" lon="5.38259">
        <ele>380</ele>
        <time>2013-09-08T06:40:47Z</time>
      </trkpt>
      <trkpt lat="50.02732" lon="5.38269">
        <ele>380</ele>
        <time>2013-09-08T06:40:52Z</time>
      </trkpt>
      <trkpt lat="50.02735" lon="5.38278">
        <ele>380</ele>
        <time>2013-09-08T06:40:57Z</time>
      </trkpt>
      <trkpt lat="50.02738" lon="5.38289">
        <ele>380</ele>
        <time>2013-09-08T06:41:03Z</time>
      </trkpt>
      <trkpt lat="50.02741" lon="5.383">
        <ele>381</ele>
        <time>2013-09-08T06:41:08Z</time>
      </trkpt>
      <trkpt lat="50.02744" lon="5.38311">
        <ele>382</ele>
        <time>2013-09-08T06:41:14Z</time>
      </trkpt>
      <trkpt lat="50.02746" lon="5.38322">
        <ele>382</ele>
        <time>2013-09-08T06:41:20Z</time>
      </trkpt>
      <trkpt lat="50.02749" lon="5.38335">
        <ele>382</ele>
        <time>2013-09-08T06:41:26Z</time>
      </trkpt>
      <trkpt lat="50.02751" lon="5.38345">
        <ele>383</ele>
        <time>2013-09-08T06:41:31Z</time>
      </trkpt>
      <trkpt lat="50.02755" lon="5.38358">
        <ele>383</ele>
        <time>2013-09-08T06:41:37Z</time>
      </trkpt>
      <trkpt lat="50.02759" lon="5.38369">
        <ele>383</ele>
        <time>2013-09-08T06:41:42Z</time>
      </trkpt>
      <trkpt lat="50.02763" lon="5.38381">
        <ele>383</ele>
        <time>2013-09-08T06:41:47Z</time>
      </trkpt>
      <trkpt lat="50.02767" lon="5.38394">
        <ele>384</ele>
        <time>2013-09-08T06:41:53Z</time>
      </trkpt>
      <trkpt lat="50.02767" lon="5.38405">
        <ele>384</ele>
        <time>2013-09-08T06:41:59Z</time>
      </trkpt>
      <trkpt lat="50.02763" lon="5.38414">
        <ele>384</ele>
        <time>2013-09-08T06:42:04Z</time>
      </trkpt>
      <trkpt lat="50.0276" lon="5.38427">
        <ele>384</ele>
        <time>2013-09-08T06:42:10Z</time>
      </trkpt>
      <trkpt lat="50.02753" lon="5.38434">
        <ele>384</ele>
        <time>2013-09-08T06:42:15Z</time>
      </trkpt>
      <trkpt lat="50.02746" lon="5.38442">
        <ele>384</ele>
        <time>2013-09-08T06:42:21Z</time>
      </trkpt>
      <trkpt lat="50.02737" lon="5.38444">
        <ele>385</ele>
        <time>2013-09-08T06:42:27Z</time>
      </trkpt>
      <trkpt lat="50.02728" lon="5.38442">
        <ele>385</ele>
        <time>2013-09-08T06:42:33Z</time>
      </trkpt>
      <trkpt lat="50.02719" lon="5.3844">
        <ele>385</ele>
        <time>2013-09-08T06:42:39Z</time>
      </trkpt>
      <trkpt lat="50.02712" lon="5.38437">
        <ele>385</ele>
        <time>2013-09-08T06:42:44Z</time>
      </trkpt>
      <trkpt lat="50.02703" lon="5.38436">
        <ele>386</ele>
        <time>2013-09-08T06:42:50Z</time>
      </trkpt>
      <trkpt lat="50.02697" lon="5.38433">
        <ele>386</ele>
        <time>2013-09-08T06:42:55Z</time>
      </trkpt>
      <trkpt lat="50.02688" lon="5.38429">
        <ele>386</ele>
        <time>2013-09-08T06:43:01Z</time>
      </trkpt>
      <trkpt lat="50.0268" lon="5.38425">
        <ele>386</ele>
        <time>2013-09-08T06:43:07Z</time>
      </trkpt>
      <trkpt lat="50.02674" lon="5.38422">
        <ele>386</ele>
        <time>2013-09-08T06:43:12Z</time>
      </trkpt>
      <trkpt lat="50.02668" lon="5.38418">
        <ele>387</ele>
        <time>2013-09-08T06:43:17Z</time>
      </trkpt>
      <trkpt lat="50.0266" lon="5.38415">
        <ele>387</ele>
        <time>2013-09-08T06:43:23Z</time>
      </trkpt>
      <trkpt lat="50.02654" lon="5.38411">
        <ele>387</ele>
        <time>2013-09-08T06:43:28Z</time>
      </trkpt>
      <trkpt lat="50.02648" lon="5.38407">
        <ele>387</ele>
        <time>2013-09-08T06:43:33Z</time>
      </trkpt>
      <trkpt lat="50.02642" lon="5.38404">
        <ele>387</ele>
        <time>2013-09-08T06:43:38Z</time>
      </trkpt>
      <trkpt lat="50.02636" lon="5.38403">
        <ele>387</ele>
        <time>2013-09-08T06:43:43Z</time>
      </trkpt>
      <trkpt lat="50.02628" lon="5.38402">
        <ele>387</ele>
        <time>2013-09-08T06:43:49Z</time>
      </trkpt>
      <trkpt lat="50.0262" lon="5.38402">
        <ele>387</ele>
        <time>2013-09-08T06:43:55Z</time>
      </trkpt>
      <trkpt lat="50.02615" lon="5.38402">
        <ele>387</ele>
        <time>2013-09-08T06:44:00Z</time>
      </trkpt>
      <trkpt lat="50.02615" lon="5.38402">
        <ele>387</ele>
        <time>2013-09-08T06:44:06Z</time>
      </trkpt>
      <trkpt lat="50.02614" lon="5.38401">
        <ele>387</ele>
        <time>2013-09-08T06:44:11Z</time>
      </trkpt>
      <trkpt lat="50.02607" lon="5.38401">
        <ele>387</ele>
        <time>2013-09-08T06:44:16Z</time>
      </trkpt>
      <trkpt lat="50.02601" lon="5.38404">
        <ele>387</ele>
        <time>2013-09-08T06:44:22Z</time>
      </trkpt>
      <trkpt lat="50.02595" lon="5.38412">
        <ele>387</ele>
        <time>2013-09-08T06:44:28Z</time>
      </trkpt>
      <trkpt lat="50.02594" lon="5.38424">
        <ele>386</ele>
        <time>2013-09-08T06:44:34Z</time>
      </trkpt>
      <trkpt lat="50.02597" lon="5.38434">
        <ele>386</ele>
        <time>2013-09-08T06:44:40Z</time>
      </trkpt>
      <trkpt lat="50.02599" lon="5.3844">
        <ele>387</ele>
        <time>2013-09-08T06:44:45Z</time>
      </trkpt>
      <trkpt lat="50.02604" lon="5.3845">
        <ele>388</ele>
        <time>2013-09-08T06:44:51Z</time>
      </trkpt>
      <trkpt lat="50.02609" lon="5.3846">
        <ele>389</ele>
        <time>2013-09-08T06:44:57Z</time>
      </trkpt>
      <trkpt lat="50.02613" lon="5.3847">
        <ele>390</ele>
        <time>2013-09-08T06:45:02Z</time>
      </trkpt>
      <trkpt lat="50.02616" lon="5.3848">
        <ele>390</ele>
        <time>2013-09-08T06:45:08Z</time>
      </trkpt>
      <trkpt lat="50.0262" lon="5.38489">
        <ele>391</ele>
        <time>2013-09-08T06:45:13Z</time>
      </trkpt>
      <trkpt lat="50.02622" lon="5.38499">
        <ele>391</ele>
        <time>2013-09-08T06:45:18Z</time>
      </trkpt>
      <trkpt lat="50.02622" lon="5.38508">
        <ele>392</ele>
        <time>2013-09-08T06:45:23Z</time>
      </trkpt>
      <trkpt lat="50.02617" lon="5.38514">
        <ele>392</ele>
        <time>2013-09-08T06:45:28Z</time>
      </trkpt>
      <trkpt lat="50.02611" lon="5.38521">
        <ele>393</ele>
        <time>2013-09-08T06:45:34Z</time>
      </trkpt>
      <trkpt lat="50.02606" lon="5.38527">
        <ele>393</ele>
        <time>2013-09-08T06:45:39Z</time>
      </trkpt>
      <trkpt lat="50.02601" lon="5.38532">
        <ele>394</ele>
        <time>2013-09-08T06:45:44Z</time>
      </trkpt>
      <trkpt lat="50.02594" lon="5.38538">
        <ele>394</ele>
        <time>2013-09-08T06:45:50Z</time>
      </trkpt>
      <trkpt lat="50.02589" lon="5.38543">
        <ele>394</ele>
        <time>2013-09-08T06:45:55Z</time>
      </trkpt>
      <trkpt lat="50.02584" lon="5.38549">
        <ele>395</ele>
        <time>2013-09-08T06:46:00Z</time>
      </trkpt>
      <trkpt lat="50.02578" lon="5.38553">
        <ele>395</ele>
        <time>2013-09-08T06:46:05Z</time>
      </trkpt>
      <trkpt lat="50.02571" lon="5.38559">
        <ele>396</ele>
        <time>2013-09-08T06:46:11Z</time>
      </trkpt>
      <trkpt lat="50.02565" lon="5.38565">
        <ele>396</ele>
        <time>2013-09-08T06:46:16Z</time>
      </trkpt>
      <trkpt lat="50.02559" lon="5.3857">
        <ele>397</ele>
        <time>2013-09-08T06:46:21Z</time>
      </trkpt>
      <trkpt lat="50.02554" lon="5.38574">
        <ele>397</ele>
        <time>2013-09-08T06:46:26Z</time>
      </trkpt>
      <trkpt lat="50.02549" lon="5.38579">
        <ele>398</ele>
        <time>2013-09-08T06:46:31Z</time>
      </trkpt>
      <trkpt lat="50.02547" lon="5.38586">
        <ele>398</ele>
        <time>2013-09-08T06:46:36Z</time>
      </trkpt>
      <trkpt lat="50.02549" lon="5.38596">
        <ele>398</ele>
        <time>2013-09-08T06:46:42Z</time>
      </trkpt>
      <trkpt lat="50.02551" lon="5.38603">
        <ele>399</ele>
        <time>2013-09-08T06:46:47Z</time>
      </trkpt>
      <trkpt lat="50.02554" lon="5.38611">
        <ele>399</ele>
        <time>2013-09-08T06:46:52Z</time>
      </trkpt>
      <trkpt lat="50.02557" lon="5.38619">
        <ele>399</ele>
        <time>2013-09-08T06:46:57Z</time>
      </trkpt>
      <trkpt lat="50.02562" lon="5.38628">
        <ele>400</ele>
        <time>2013-09-08T06:47:03Z</time>
      </trkpt>
      <trkpt lat="50.02565" lon="5.38637">
        <ele>401</ele>
        <time>2013-09-08T06:47:08Z</time>
      </trkpt>
      <trkpt lat="50.02568" lon="5.38647">
        <ele>400</ele>
        <time>2013-09-08T06:47:13Z</time>
      </trkpt>
      <trkpt lat="50.02571" lon="5.38656">
        <ele>400</ele>
        <time>2013-09-08T06:47:18Z</time>
      </trkpt>
      <trkpt lat="50.02574" lon="5.38664">
        <ele>400</ele>
        <time>2013-09-08T06:47:23Z</time>
      </trkpt>
      <trkpt lat="50.02578" lon="5.38676">
        <ele>401</ele>
        <time>2013-09-08T06:47:29Z</time>
      </trkpt>
      <trkpt lat="50.02581" lon="5.38685">
        <ele>401</ele>
        <time>2013-09-08T06:47:34Z</time>
      </trkpt>
      <trkpt lat="50.02584" lon="5.38697">
        <ele>401</ele>
        <time>2013-09-08T06:47:40Z</time>
      </trkpt>
      <trkpt lat="50.02586" lon="5.38708">
        <ele>402</ele>
        <time>2013-09-08T06:47:46Z</time>
      </trkpt>
      <trkpt lat="50.02587" lon="5.3872">
        <ele>402</ele>
        <time>2013-09-08T06:47:52Z</time>
      </trkpt>
      <trkpt lat="50.02588" lon="5.3873">
        <ele>403</ele>
        <time>2013-09-08T06:47:58Z</time>
      </trkpt>
      <trkpt lat="50.02588" lon="5.38741">
        <ele>404</ele>
        <time>2013-09-08T06:48:04Z</time>
      </trkpt>
      <trkpt lat="50.02588" lon="5.3875">
        <ele>404</ele>
        <time>2013-09-08T06:48:10Z</time>
      </trkpt>
      <trkpt lat="50.02588" lon="5.38759">
        <ele>404</ele>
        <time>2013-09-08T06:48:15Z</time>
      </trkpt>
      <trkpt lat="50.02589" lon="5.38767">
        <ele>404</ele>
        <time>2013-09-08T06:48:20Z</time>
      </trkpt>
      <trkpt lat="50.0259" lon="5.38776">
        <ele>404</ele>
        <time>2013-09-08T06:48:25Z</time>
      </trkpt>
      <trkpt lat="50.02591" lon="5.38787">
        <ele>405</ele>
        <time>2013-09-08T06:48:31Z</time>
      </trkpt>
      <trkpt lat="50.02592" lon="5.38797">
        <ele>405</ele>
        <time>2013-09-08T06:48:36Z</time>
      </trkpt>
      <trkpt lat="50.02594" lon="5.38809">
        <ele>406</ele>
        <time>2013-09-08T06:48:42Z</time>
      </trkpt>
      <trkpt lat="50.02597" lon="5.38822">
        <ele>406</ele>
        <time>2013-09-08T06:48:48Z</time>
      </trkpt>
      <trkpt lat="50.02599" lon="5.38833">
        <ele>407</ele>
        <time>2013-09-08T06:48:53Z</time>
      </trkpt>
      <trkpt lat="50.02602" lon="5.38842">
        <ele>407</ele>
        <time>2013-09-08T06:48:58Z</time>
      </trkpt>
      <trkpt lat="50.02605" lon="5.38852">
        <ele>407</ele>
        <time>2013-09-08T06:49:03Z</time>
      </trkpt>
      <trkpt lat="50.02608" lon="5.38863">
        <ele>408</ele>
        <time>2013-09-08T06:49:09Z</time>
      </trkpt>
      <trkpt lat="50.02611" lon="5.38872">
        <ele>408</ele>
        <time>2013-09-08T06:49:14Z</time>
      </trkpt>
      <trkpt lat="50.02614" lon="5.3888">
        <ele>408</ele>
        <time>2013-09-08T06:49:19Z</time>
      </trkpt>
      <trkpt lat="50.02618" lon="5.38891">
        <ele>408</ele>
        <time>2013-09-08T06:49:25Z</time>
      </trkpt>
      <trkpt lat="50.02621" lon="5.389">
        <ele>408</ele>
        <time>2013-09-08T06:49:30Z</time>
      </trkpt>
      <trkpt lat="50.02625" lon="5.3891">
        <ele>409</ele>
        <time>2013-09-08T06:49:36Z</time>
      </trkpt>
      <trkpt lat="50.02628" lon="5.3892">
        <ele>410</ele>
        <time>2013-09-08T06:49:42Z</time>
      </trkpt>
      <trkpt lat="50.02631" lon="5.38928">
        <ele>411</ele>
        <time>2013-09-08T06:49:47Z</time>
      </trkpt>
      <trkpt lat="50.02635" lon="5.38938">
        <ele>411</ele>
        <time>2013-09-08T06:49:53Z</time>
      </trkpt>
      <trkpt lat="50.02638" lon="5.38946">
        <ele>412</ele>
        <time>2013-09-08T06:49:59Z</time>
      </trkpt>
      <trkpt lat="50.02638" lon="5.38946">
        <ele>412</ele>
        <time>2013-09-08T06:50:09Z</time>
      </trkpt>
      <trkpt lat="50.02639" lon="5.38946">
        <ele>412</ele>
        <time>2013-09-08T06:50:14Z</time>
      </trkpt>
      <trkpt lat="50.0264" lon="5.38946">
        <ele>412</ele>
        <time>2013-09-08T06:50:19Z</time>
      </trkpt>
      <trkpt lat="50.0264" lon="5.38946">
        <ele>412</ele>
        <time>2013-09-08T06:50:24Z</time>
      </trkpt>
      <trkpt lat="50.02641" lon="5.38945">
        <ele>412</ele>
        <time>2013-09-08T06:50:30Z</time>
      </trkpt>
      <trkpt lat="50.0264" lon="5.38944">
        <ele>412</ele>
        <time>2013-09-08T06:50:36Z</time>
      </trkpt>
      <trkpt lat="50.0264" lon="5.38943">
        <ele>412</ele>
        <time>2013-09-08T06:50:41Z</time>
      </trkpt>
      <trkpt lat="50.0264" lon="5.38942">
        <ele>412</ele>
        <time>2013-09-08T06:50:47Z</time>
      </trkpt>
      <trkpt lat="50.02639" lon="5.38941">
        <ele>412</ele>
        <time>2013-09-08T06:50:52Z</time>
      </trkpt>
      <trkpt lat="50.02639" lon="5.3894">
        <ele>411</ele>
        <time>2013-09-08T06:50:58Z</time>
      </trkpt>
      <trkpt lat="50.02638" lon="5.3894">
        <ele>411</ele>
        <time>2013-09-08T06:51:03Z</time>
      </trkpt>
      <trkpt lat="50.02638" lon="5.3894">
        <ele>411</ele>
        <time>2013-09-08T06:51:12Z</time>
      </trkpt>
      <trkpt lat="50.02639" lon="5.38945">
        <ele>412</ele>
        <time>2013-09-08T06:51:17Z</time>
      </trkpt>
      <trkpt lat="50.02643" lon="5.38955">
        <ele>412</ele>
        <time>2013-09-08T06:51:23Z</time>
      </trkpt>
      <trkpt lat="50.02645" lon="5.3896">
        <ele>412</ele>
        <time>2013-09-08T06:51:28Z</time>
      </trkpt>
      <trkpt lat="50.02646" lon="5.38963">
        <ele>412</ele>
        <time>2013-09-08T06:51:33Z</time>
      </trkpt>
      <trkpt lat="50.02649" lon="5.38972">
        <ele>412</ele>
        <time>2013-09-08T06:51:38Z</time>
      </trkpt>
      <trkpt lat="50.02652" lon="5.38981">
        <ele>413</ele>
        <time>2013-09-08T06:51:43Z</time>
      </trkpt>
      <trkpt lat="50.02655" lon="5.3899">
        <ele>413</ele>
        <time>2013-09-08T06:51:48Z</time>
      </trkpt>
      <trkpt lat="50.02657" lon="5.38999">
        <ele>414</ele>
        <time>2013-09-08T06:51:53Z</time>
      </trkpt>
      <trkpt lat="50.02661" lon="5.39009">
        <ele>414</ele>
        <time>2013-09-08T06:51:59Z</time>
      </trkpt>
      <trkpt lat="50.02664" lon="5.39018">
        <ele>414</ele>
        <time>2013-09-08T06:52:04Z</time>
      </trkpt>
      <trkpt lat="50.02664" lon="5.39024">
        <ele>415</ele>
        <time>2013-09-08T06:52:10Z</time>
      </trkpt>
      <trkpt lat="50.02663" lon="5.39028">
        <ele>415</ele>
        <time>2013-09-08T06:52:15Z</time>
      </trkpt>
      <trkpt lat="50.02659" lon="5.3903">
        <ele>416</ele>
        <time>2013-09-08T06:52:20Z</time>
      </trkpt>
      <trkpt lat="50.02654" lon="5.39032">
        <ele>416</ele>
        <time>2013-09-08T06:52:26Z</time>
      </trkpt>
      <trkpt lat="50.0265" lon="5.39034">
        <ele>416</ele>
        <time>2013-09-08T06:52:31Z</time>
      </trkpt>
      <trkpt lat="50.02644" lon="5.39036">
        <ele>416</ele>
        <time>2013-09-08T06:52:36Z</time>
      </trkpt>
      <trkpt lat="50.02639" lon="5.39038">
        <ele>416</ele>
        <time>2013-09-08T06:52:42Z</time>
      </trkpt>
      <trkpt lat="50.02633" lon="5.3904">
        <ele>416</ele>
        <time>2013-09-08T06:52:47Z</time>
      </trkpt>
      <trkpt lat="50.02627" lon="5.39042">
        <ele>416</ele>
        <time>2013-09-08T06:52:52Z</time>
      </trkpt>
      <trkpt lat="50.0262" lon="5.39045">
        <ele>416</ele>
        <time>2013-09-08T06:52:57Z</time>
      </trkpt>
      <trkpt lat="50.02612" lon="5.39048">
        <ele>416</ele>
        <time>2013-09-08T06:53:03Z</time>
      </trkpt>
      <trkpt lat="50.02607" lon="5.39053">
        <ele>417</ele>
        <time>2013-09-08T06:53:08Z</time>
      </trkpt>
      <trkpt lat="50.02602" lon="5.39055">
        <ele>417</ele>
        <time>2013-09-08T06:53:13Z</time>
      </trkpt>
      <trkpt lat="50.02597" lon="5.39058">
        <ele>418</ele>
        <time>2013-09-08T06:53:18Z</time>
      </trkpt>
      <trkpt lat="50.02591" lon="5.39061">
        <ele>418</ele>
        <time>2013-09-08T06:53:23Z</time>
      </trkpt>
      <trkpt lat="50.02585" lon="5.39064">
        <ele>419</ele>
        <time>2013-09-08T06:53:28Z</time>
      </trkpt>
      <trkpt lat="50.02578" lon="5.39067">
        <ele>419</ele>
        <time>2013-09-08T06:53:33Z</time>
      </trkpt>
      <trkpt lat="50.0257" lon="5.39071">
        <ele>419</ele>
        <time>2013-09-08T06:53:39Z</time>
      </trkpt>
      <trkpt lat="50.02564" lon="5.39073">
        <ele>419</ele>
        <time>2013-09-08T06:53:44Z</time>
      </trkpt>
      <trkpt lat="50.02558" lon="5.39076">
        <ele>419</ele>
        <time>2013-09-08T06:53:49Z</time>
      </trkpt>
      <trkpt lat="50.02552" lon="5.39079">
        <ele>419</ele>
        <time>2013-09-08T06:53:54Z</time>
      </trkpt>
      <trkpt lat="50.02546" lon="5.3908">
        <ele>420</ele>
        <time>2013-09-08T06:53:59Z</time>
      </trkpt>
      <trkpt lat="50.0254" lon="5.39081">
        <ele>421</ele>
        <time>2013-09-08T06:54:04Z</time>
      </trkpt>
      <trkpt lat="50.02534" lon="5.39083">
        <ele>421</ele>
        <time>2013-09-08T06:54:09Z</time>
      </trkpt>
      <trkpt lat="50.02527" lon="5.39085">
        <ele>422</ele>
        <time>2013-09-08T06:54:15Z</time>
      </trkpt>
      <trkpt lat="50.02521" lon="5.39088">
        <ele>422</ele>
        <time>2013-09-08T06:54:20Z</time>
      </trkpt>
      <trkpt lat="50.02513" lon="5.39093">
        <ele>422</ele>
        <time>2013-09-08T06:54:26Z</time>
      </trkpt>
      <trkpt lat="50.02507" lon="5.39094">
        <ele>423</ele>
        <time>2013-09-08T06:54:31Z</time>
      </trkpt>
      <trkpt lat="50.025" lon="5.39097">
        <ele>423</ele>
        <time>2013-09-08T06:54:36Z</time>
      </trkpt>
      <trkpt lat="50.02494" lon="5.391">
        <ele>422</ele>
        <time>2013-09-08T06:54:41Z</time>
      </trkpt>
      <trkpt lat="50.02488" lon="5.39102">
        <ele>422</ele>
        <time>2013-09-08T06:54:46Z</time>
      </trkpt>
      <trkpt lat="50.0248" lon="5.39105">
        <ele>423</ele>
        <time>2013-09-08T06:54:52Z</time>
      </trkpt>
      <trkpt lat="50.02473" lon="5.39107">
        <ele>423</ele>
        <time>2013-09-08T06:54:57Z</time>
      </trkpt>
      <trkpt lat="50.02466" lon="5.3911">
        <ele>423</ele>
        <time>2013-09-08T06:55:03Z</time>
      </trkpt>
      <trkpt lat="50.02464" lon="5.3911">
        <ele>423</ele>
        <time>2013-09-08T06:55:09Z</time>
      </trkpt>
      <trkpt lat="50.02463" lon="5.3911">
        <ele>424</ele>
        <time>2013-09-08T06:55:16Z</time>
      </trkpt>
      <trkpt lat="50.02462" lon="5.39111">
        <ele>423</ele>
        <time>2013-09-08T06:55:23Z</time>
      </trkpt>
      <trkpt lat="50.02462" lon="5.39111">
        <ele>423</ele>
        <time>2013-09-08T06:55:28Z</time>
      </trkpt>
      <trkpt lat="50.02462" lon="5.39112">
        <ele>423</ele>
        <time>2013-09-08T06:55:35Z</time>
      </trkpt>
      <trkpt lat="50.02462" lon="5.39113">
        <ele>423</ele>
        <time>2013-09-08T06:55:40Z</time>
      </trkpt>
      <trkpt lat="50.02462" lon="5.3912">
        <ele>423</ele>
        <time>2013-09-08T06:55:45Z</time>
      </trkpt>
      <trkpt lat="50.0246" lon="5.39129">
        <ele>424</ele>
        <time>2013-09-08T06:55:50Z</time>
      </trkpt>
      <trkpt lat="50.02458" lon="5.39138">
        <ele>424</ele>
        <time>2013-09-08T06:55:55Z</time>
      </trkpt>
      <trkpt lat="50.02456" lon="5.3915">
        <ele>425</ele>
        <time>2013-09-08T06:56:01Z</time>
      </trkpt>
      <trkpt lat="50.02454" lon="5.3916">
        <ele>425</ele>
        <time>2013-09-08T06:56:06Z</time>
      </trkpt>
      <trkpt lat="50.02452" lon="5.39169">
        <ele>426</ele>
        <time>2013-09-08T06:56:11Z</time>
      </trkpt>
      <trkpt lat="50.02449" lon="5.39179">
        <ele>427</ele>
        <time>2013-09-08T06:56:16Z</time>
      </trkpt>
      <trkpt lat="50.02447" lon="5.39188">
        <ele>427</ele>
        <time>2013-09-08T06:56:21Z</time>
      </trkpt>
      <trkpt lat="50.02444" lon="5.392">
        <ele>428</ele>
        <time>2013-09-08T06:56:27Z</time>
      </trkpt>
      <trkpt lat="50.02442" lon="5.39209">
        <ele>428</ele>
        <time>2013-09-08T06:56:32Z</time>
      </trkpt>
      <trkpt lat="50.02441" lon="5.39215">
        <ele>429</ele>
        <time>2013-09-08T06:56:38Z</time>
      </trkpt>
      <trkpt lat="50.02438" lon="5.39224">
        <ele>429</ele>
        <time>2013-09-08T06:56:43Z</time>
      </trkpt>
      <trkpt lat="50.02436" lon="5.39234">
        <ele>430</ele>
        <time>2013-09-08T06:56:48Z</time>
      </trkpt>
      <trkpt lat="50.02434" lon="5.39244">
        <ele>430</ele>
        <time>2013-09-08T06:56:53Z</time>
      </trkpt>
      <trkpt lat="50.02435" lon="5.39247">
        <ele>430</ele>
        <time>2013-09-08T06:56:58Z</time>
      </trkpt>
      <trkpt lat="50.02435" lon="5.39247">
        <ele>430</ele>
        <time>2013-09-08T06:57:04Z</time>
      </trkpt>
      <trkpt lat="50.02434" lon="5.39252">
        <ele>431</ele>
        <time>2013-09-08T06:57:10Z</time>
      </trkpt>
      <trkpt lat="50.02431" lon="5.3926">
        <ele>431</ele>
        <time>2013-09-08T06:57:16Z</time>
      </trkpt>
      <trkpt lat="50.0243" lon="5.39269">
        <ele>432</ele>
        <time>2013-09-08T06:57:21Z</time>
      </trkpt>
      <trkpt lat="50.02427" lon="5.39279">
        <ele>432</ele>
        <time>2013-09-08T06:57:27Z</time>
      </trkpt>
      <trkpt lat="50.02425" lon="5.39289">
        <ele>433</ele>
        <time>2013-09-08T06:57:32Z</time>
      </trkpt>
      <trkpt lat="50.02422" lon="5.39299">
        <ele>433</ele>
        <time>2013-09-08T06:57:38Z</time>
      </trkpt>
      <trkpt lat="50.0242" lon="5.39308">
        <ele>434</ele>
        <time>2013-09-08T06:57:43Z</time>
      </trkpt>
      <trkpt lat="50.02417" lon="5.39317">
        <ele>435</ele>
        <time>2013-09-08T06:57:48Z</time>
      </trkpt>
      <trkpt lat="50.02415" lon="5.39325">
        <ele>436</ele>
        <time>2013-09-08T06:57:53Z</time>
      </trkpt>
      <trkpt lat="50.02413" lon="5.39333">
        <ele>436</ele>
        <time>2013-09-08T06:57:58Z</time>
      </trkpt>
      <trkpt lat="50.0241" lon="5.39341">
        <ele>436</ele>
        <time>2013-09-08T06:58:03Z</time>
      </trkpt>
      <trkpt lat="50.02406" lon="5.3935">
        <ele>437</ele>
        <time>2013-09-08T06:58:08Z</time>
      </trkpt>
      <trkpt lat="50.02403" lon="5.39358">
        <ele>437</ele>
        <time>2013-09-08T06:58:13Z</time>
      </trkpt>
      <trkpt lat="50.02401" lon="5.39366">
        <ele>438</ele>
        <time>2013-09-08T06:58:18Z</time>
      </trkpt>
      <trkpt lat="50.02398" lon="5.39377">
        <ele>439</ele>
        <time>2013-09-08T06:58:24Z</time>
      </trkpt>
      <trkpt lat="50.02395" lon="5.39389">
        <ele>439</ele>
        <time>2013-09-08T06:58:30Z</time>
      </trkpt>
      <trkpt lat="50.02393" lon="5.39398">
        <ele>439</ele>
        <time>2013-09-08T06:58:35Z</time>
      </trkpt>
      <trkpt lat="50.02392" lon="5.39406">
        <ele>440</ele>
        <time>2013-09-08T06:58:40Z</time>
      </trkpt>
      <trkpt lat="50.02391" lon="5.39417">
        <ele>440</ele>
        <time>2013-09-08T06:58:46Z</time>
      </trkpt>
      <trkpt lat="50.0239" lon="5.39427">
        <ele>441</ele>
        <time>2013-09-08T06:58:51Z</time>
      </trkpt>
      <trkpt lat="50.02388" lon="5.39435">
        <ele>442</ele>
        <time>2013-09-08T06:58:56Z</time>
      </trkpt>
      <trkpt lat="50.02386" lon="5.39442">
        <ele>443</ele>
        <time>2013-09-08T06:59:01Z</time>
      </trkpt>
      <trkpt lat="50.02386" lon="5.39451">
        <ele>443</ele>
        <time>2013-09-08T06:59:06Z</time>
      </trkpt>
      <trkpt lat="50.02385" lon="5.39459">
        <ele>443</ele>
        <time>2013-09-08T06:59:11Z</time>
      </trkpt>
      <trkpt lat="50.02385" lon="5.39466">
        <ele>444</ele>
        <time>2013-09-08T06:59:16Z</time>
      </trkpt>
      <trkpt lat="50.02384" lon="5.39475">
        <ele>444</ele>
        <time>2013-09-08T06:59:22Z</time>
      </trkpt>
      <trkpt lat="50.02383" lon="5.39483">
        <ele>445</ele>
        <time>2013-09-08T06:59:27Z</time>
      </trkpt>
      <trkpt lat="50.02382" lon="5.39492">
        <ele>445</ele>
        <time>2013-09-08T06:59:32Z</time>
      </trkpt>
      <trkpt lat="50.0238" lon="5.395">
        <ele>446</ele>
        <time>2013-09-08T06:59:37Z</time>
      </trkpt>
      <trkpt lat="50.02379" lon="5.39508">
        <ele>447</ele>
        <time>2013-09-08T06:59:42Z</time>
      </trkpt>
      <trkpt lat="50.02378" lon="5.39509">
        <ele>447</ele>
        <time>2013-09-08T06:59:47Z</time>
      </trkpt>
      <trkpt lat="50.02378" lon="5.39511">
        <ele>447</ele>
        <time>2013-09-08T06:59:53Z</time>
      </trkpt>
      <trkpt lat="50.02378" lon="5.39517">
        <ele>447</ele>
        <time>2013-09-08T06:59:58Z</time>
      </trkpt>
      <trkpt lat="50.02378" lon="5.39526">
        <ele>447</ele>
        <time>2013-09-08T07:00:03Z</time>
      </trkpt>
      <trkpt lat="50.02377" lon="5.39535">
        <ele>448</ele>
        <time>2013-09-08T07:00:09Z</time>
      </trkpt>
      <trkpt lat="50.02377" lon="5.39541">
        <ele>448</ele>
        <time>2013-09-08T07:00:14Z</time>
      </trkpt>
      <trkpt lat="50.02377" lon="5.39549">
        <ele>449</ele>
        <time>2013-09-08T07:00:19Z</time>
      </trkpt>
      <trkpt lat="50.02377" lon="5.39557">
        <ele>449</ele>
        <time>2013-09-08T07:00:24Z</time>
      </trkpt>
      <trkpt lat="50.02377" lon="5.39566">
        <ele>449</ele>
        <time>2013-09-08T07:00:30Z</time>
      </trkpt>
      <trkpt lat="50.02376" lon="5.39577">
        <ele>450</ele>
        <time>2013-09-08T07:00:36Z</time>
      </trkpt>
      <trkpt lat="50.02373" lon="5.39586">
        <ele>451</ele>
        <time>2013-09-08T07:00:42Z</time>
      </trkpt>
      <trkpt lat="50.02371" lon="5.39593">
        <ele>451</ele>
        <time>2013-09-08T07:00:47Z</time>
      </trkpt>
      <trkpt lat="50.02369" lon="5.39604">
        <ele>451</ele>
        <time>2013-09-08T07:00:53Z</time>
      </trkpt>
      <trkpt lat="50.02369" lon="5.39613">
        <ele>452</ele>
        <time>2013-09-08T07:00:58Z</time>
      </trkpt>
      <trkpt lat="50.02368" lon="5.39625">
        <ele>452</ele>
        <time>2013-09-08T07:01:04Z</time>
      </trkpt>
      <trkpt lat="50.02367" lon="5.39634">
        <ele>452</ele>
        <time>2013-09-08T07:01:09Z</time>
      </trkpt>
      <trkpt lat="50.02367" lon="5.39644">
        <ele>453</ele>
        <time>2013-09-08T07:01:15Z</time>
      </trkpt>
      <trkpt lat="50.02365" lon="5.39655">
        <ele>453</ele>
        <time>2013-09-08T07:01:21Z</time>
      </trkpt>
      <trkpt lat="50.02365" lon="5.39666">
        <ele>453</ele>
        <time>2013-09-08T07:01:27Z</time>
      </trkpt>
      <trkpt lat="50.02363" lon="5.39676">
        <ele>454</ele>
        <time>2013-09-08T07:01:33Z</time>
      </trkpt>
      <trkpt lat="50.02361" lon="5.39684">
        <ele>454</ele>
        <time>2013-09-08T07:01:39Z</time>
      </trkpt>
      <trkpt lat="50.0236" lon="5.39693">
        <ele>454</ele>
        <time>2013-09-08T07:01:44Z</time>
      </trkpt>
      <trkpt lat="50.02359" lon="5.39703">
        <ele>454</ele>
        <time>2013-09-08T07:01:50Z</time>
      </trkpt>
      <trkpt lat="50.02355" lon="5.39712">
        <ele>454</ele>
        <time>2013-09-08T07:01:56Z</time>
      </trkpt>
      <trkpt lat="50.02353" lon="5.39722">
        <ele>455</ele>
        <time>2013-09-08T07:02:02Z</time>
      </trkpt>
      <trkpt lat="50.02351" lon="5.3973">
        <ele>455</ele>
        <time>2013-09-08T07:02:07Z</time>
      </trkpt>
      <trkpt lat="50.0235" lon="5.39739">
        <ele>455</ele>
        <time>2013-09-08T07:02:12Z</time>
      </trkpt>
      <trkpt lat="50.02348" lon="5.39749">
        <ele>455</ele>
        <time>2013-09-08T07:02:18Z</time>
      </trkpt>
      <trkpt lat="50.02346" lon="5.3976">
        <ele>455</ele>
        <time>2013-09-08T07:02:24Z</time>
      </trkpt>
      <trkpt lat="50.02344" lon="5.3977">
        <ele>455</ele>
        <time>2013-09-08T07:02:30Z</time>
      </trkpt>
      <trkpt lat="50.02341" lon="5.3978">
        <ele>455</ele>
        <time>2013-09-08T07:02:36Z</time>
      </trkpt>
      <trkpt lat="50.02339" lon="5.39789">
        <ele>455</ele>
        <time>2013-09-08T07:02:41Z</time>
      </trkpt>
      <trkpt lat="50.02337" lon="5.39799">
        <ele>455</ele>
        <time>2013-09-08T07:02:47Z</time>
      </trkpt>
      <trkpt lat="50.02336" lon="5.39809">
        <ele>455</ele>
        <time>2013-09-08T07:02:53Z</time>
      </trkpt>
      <trkpt lat="50.02334" lon="5.39818">
        <ele>456</ele>
        <time>2013-09-08T07:02:58Z</time>
      </trkpt>
      <trkpt lat="50.02331" lon="5.39826">
        <ele>456</ele>
        <time>2013-09-08T07:03:03Z</time>
      </trkpt>
      <trkpt lat="50.02328" lon="5.39834">
        <ele>456</ele>
        <time>2013-09-08T07:03:08Z</time>
      </trkpt>
      <trkpt lat="50.02325" lon="5.39844">
        <ele>456</ele>
        <time>2013-09-08T07:03:14Z</time>
      </trkpt>
      <trkpt lat="50.02324" lon="5.39854">
        <ele>455</ele>
        <time>2013-09-08T07:03:19Z</time>
      </trkpt>
      <trkpt lat="50.02322" lon="5.39866">
        <ele>455</ele>
        <time>2013-09-08T07:03:25Z</time>
      </trkpt>
      <trkpt lat="50.02321" lon="5.39877">
        <ele>455</ele>
        <time>2013-09-08T07:03:31Z</time>
      </trkpt>
      <trkpt lat="50.02322" lon="5.39887">
        <ele>455</ele>
        <time>2013-09-08T07:03:36Z</time>
      </trkpt>
      <trkpt lat="50.02322" lon="5.39889">
        <ele>455</ele>
        <time>2013-09-08T07:03:42Z</time>
      </trkpt>
      <trkpt lat="50.02322" lon="5.39891">
        <ele>455</ele>
        <time>2013-09-08T07:03:47Z</time>
      </trkpt>
      <trkpt lat="50.02321" lon="5.39897">
        <ele>455</ele>
        <time>2013-09-08T07:03:52Z</time>
      </trkpt>
      <trkpt lat="50.0232" lon="5.39907">
        <ele>455</ele>
        <time>2013-09-08T07:03:58Z</time>
      </trkpt>
      <trkpt lat="50.02317" lon="5.39918">
        <ele>455</ele>
        <time>2013-09-08T07:04:04Z</time>
      </trkpt>
      <trkpt lat="50.02314" lon="5.39927">
        <ele>455</ele>
        <time>2013-09-08T07:04:09Z</time>
      </trkpt>
      <trkpt lat="50.02313" lon="5.39936">
        <ele>454</ele>
        <time>2013-09-08T07:04:14Z</time>
      </trkpt>
      <trkpt lat="50.02312" lon="5.39944">
        <ele>454</ele>
        <time>2013-09-08T07:04:20Z</time>
      </trkpt>
      <trkpt lat="50.0231" lon="5.39952">
        <ele>454</ele>
        <time>2013-09-08T07:04:26Z</time>
      </trkpt>
      <trkpt lat="50.02308" lon="5.3996">
        <ele>454</ele>
        <time>2013-09-08T07:04:32Z</time>
      </trkpt>
      <trkpt lat="50.02306" lon="5.39968">
        <ele>454</ele>
        <time>2013-09-08T07:04:37Z</time>
      </trkpt>
      <trkpt lat="50.02304" lon="5.39978">
        <ele>454</ele>
        <time>2013-09-08T07:04:42Z</time>
      </trkpt>
      <trkpt lat="50.02301" lon="5.39988">
        <ele>454</ele>
        <time>2013-09-08T07:04:48Z</time>
      </trkpt>
      <trkpt lat="50.023" lon="5.39996">
        <ele>453</ele>
        <time>2013-09-08T07:04:53Z</time>
      </trkpt>
      <trkpt lat="50.023" lon="5.40005">
        <ele>453</ele>
        <time>2013-09-08T07:04:58Z</time>
      </trkpt>
      <trkpt lat="50.023" lon="5.40013">
        <ele>453</ele>
        <time>2013-09-08T07:05:03Z</time>
      </trkpt>
      <trkpt lat="50.02298" lon="5.40025">
        <ele>452</ele>
        <time>2013-09-08T07:05:09Z</time>
      </trkpt>
      <trkpt lat="50.02296" lon="5.40034">
        <ele>452</ele>
        <time>2013-09-08T07:05:15Z</time>
      </trkpt>
      <trkpt lat="50.02293" lon="5.40042">
        <ele>452</ele>
        <time>2013-09-08T07:05:20Z</time>
      </trkpt>
      <trkpt lat="50.02291" lon="5.40052">
        <ele>452</ele>
        <time>2013-09-08T07:05:26Z</time>
      </trkpt>
      <trkpt lat="50.02289" lon="5.40062">
        <ele>452</ele>
        <time>2013-09-08T07:05:31Z</time>
      </trkpt>
      <trkpt lat="50.02287" lon="5.40069">
        <ele>452</ele>
        <time>2013-09-08T07:05:36Z</time>
      </trkpt>
      <trkpt lat="50.02285" lon="5.40082">
        <ele>451</ele>
        <time>2013-09-08T07:05:42Z</time>
      </trkpt>
      <trkpt lat="50.02285" lon="5.40091">
        <ele>451</ele>
        <time>2013-09-08T07:05:47Z</time>
      </trkpt>
      <trkpt lat="50.02283" lon="5.40103">
        <ele>451</ele>
        <time>2013-09-08T07:05:53Z</time>
      </trkpt>
      <trkpt lat="50.0228" lon="5.40111">
        <ele>451</ele>
        <time>2013-09-08T07:05:58Z</time>
      </trkpt>
      <trkpt lat="50.02278" lon="5.40119">
        <ele>450</ele>
        <time>2013-09-08T07:06:03Z</time>
      </trkpt>
      <trkpt lat="50.02275" lon="5.40128">
        <ele>450</ele>
        <time>2013-09-08T07:06:09Z</time>
      </trkpt>
      <trkpt lat="50.02274" lon="5.40135">
        <ele>450</ele>
        <time>2013-09-08T07:06:15Z</time>
      </trkpt>
      <trkpt lat="50.02273" lon="5.4014">
        <ele>450</ele>
        <time>2013-09-08T07:06:20Z</time>
      </trkpt>
      <trkpt lat="50.02272" lon="5.40143">
        <ele>450</ele>
        <time>2013-09-08T07:06:26Z</time>
      </trkpt>
      <trkpt lat="50.0227" lon="5.40146">
        <ele>450</ele>
        <time>2013-09-08T07:06:31Z</time>
      </trkpt>
      <trkpt lat="50.02269" lon="5.40147">
        <ele>450</ele>
        <time>2013-09-08T07:06:37Z</time>
      </trkpt>
      <trkpt lat="50.02268" lon="5.40147">
        <ele>450</ele>
        <time>2013-09-08T07:06:42Z</time>
      </trkpt>
      <trkpt lat="50.02268" lon="5.40146">
        <ele>450</ele>
        <time>2013-09-08T07:06:48Z</time>
      </trkpt>
      <trkpt lat="50.02269" lon="5.40146">
        <ele>449</ele>
        <time>2013-09-08T07:06:54Z</time>
      </trkpt>
      <trkpt lat="50.02269" lon="5.40147">
        <ele>450</ele>
        <time>2013-09-08T07:07:00Z</time>
      </trkpt>
      <trkpt lat="50.02267" lon="5.40148">
        <ele>450</ele>
        <time>2013-09-08T07:07:06Z</time>
      </trkpt>
      <trkpt lat="50.02267" lon="5.4015">
        <ele>449</ele>
        <time>2013-09-08T07:07:11Z</time>
      </trkpt>
      <trkpt lat="50.02268" lon="5.40154">
        <ele>449</ele>
        <time>2013-09-08T07:07:17Z</time>
      </trkpt>
      <trkpt lat="50.02268" lon="5.40161">
        <ele>449</ele>
        <time>2013-09-08T07:07:23Z</time>
      </trkpt>
      <trkpt lat="50.02268" lon="5.40168">
        <ele>449</ele>
        <time>2013-09-08T07:07:28Z</time>
      </trkpt>
      <trkpt lat="50.02267" lon="5.40177">
        <ele>449</ele>
        <time>2013-09-08T07:07:33Z</time>
      </trkpt>
      <trkpt lat="50.02269" lon="5.40188">
        <ele>449</ele>
        <time>2013-09-08T07:07:39Z</time>
      </trkpt>
      <trkpt lat="50.0227" lon="5.40196">
        <ele>449</ele>
        <time>2013-09-08T07:07:44Z</time>
      </trkpt>
      <trkpt lat="50.02272" lon="5.40206">
        <ele>449</ele>
        <time>2013-09-08T07:07:50Z</time>
      </trkpt>
      <trkpt lat="50.02272" lon="5.40215">
        <ele>449</ele>
        <time>2013-09-08T07:07:55Z</time>
      </trkpt>
      <trkpt lat="50.02271" lon="5.40225">
        <ele>449</ele>
        <time>2013-09-08T07:08:00Z</time>
      </trkpt>
      <trkpt lat="50.02269" lon="5.40237">
        <ele>449</ele>
        <time>2013-09-08T07:08:06Z</time>
      </trkpt>
      <trkpt lat="50.02269" lon="5.40246">
        <ele>449</ele>
        <time>2013-09-08T07:08:11Z</time>
      </trkpt>
      <trkpt lat="50.02266" lon="5.40258">
        <ele>449</ele>
        <time>2013-09-08T07:08:17Z</time>
      </trkpt>
      <trkpt lat="50.02263" lon="5.40269">
        <ele>449</ele>
        <time>2013-09-08T07:08:23Z</time>
      </trkpt>
      <trkpt lat="50.02261" lon="5.40271">
        <ele>449</ele>
        <time>2013-09-08T07:08:28Z</time>
      </trkpt>
      <trkpt lat="50.02255" lon="5.40279">
        <ele>449</ele>
        <time>2013-09-08T07:08:34Z</time>
      </trkpt>
      <trkpt lat="50.02251" lon="5.40288">
        <ele>449</ele>
        <time>2013-09-08T07:08:39Z</time>
      </trkpt>
      <trkpt lat="50.02246" lon="5.403">
        <ele>448</ele>
        <time>2013-09-08T07:08:45Z</time>
      </trkpt>
      <trkpt lat="50.02243" lon="5.40311">
        <ele>448</ele>
        <time>2013-09-08T07:08:50Z</time>
      </trkpt>
      <trkpt lat="50.02239" lon="5.40323">
        <ele>449</ele>
        <time>2013-09-08T07:08:56Z</time>
      </trkpt>
      <trkpt lat="50.02234" lon="5.40335">
        <ele>449</ele>
        <time>2013-09-08T07:09:02Z</time>
      </trkpt>
      <trkpt lat="50.02232" lon="5.40346">
        <ele>449</ele>
        <time>2013-09-08T07:09:08Z</time>
      </trkpt>
      <trkpt lat="50.02232" lon="5.4035">
        <ele>448</ele>
        <time>2013-09-08T07:09:13Z</time>
      </trkpt>
      <trkpt lat="50.02233" lon="5.40357">
        <ele>448</ele>
        <time>2013-09-08T07:09:19Z</time>
      </trkpt>
      <trkpt lat="50.02235" lon="5.40361">
        <ele>448</ele>
        <time>2013-09-08T07:09:25Z</time>
      </trkpt>
      <trkpt lat="50.02237" lon="5.40366">
        <ele>448</ele>
        <time>2013-09-08T07:09:30Z</time>
      </trkpt>
      <trkpt lat="50.02236" lon="5.40377">
        <ele>449</ele>
        <time>2013-09-08T07:09:35Z</time>
      </trkpt>
      <trkpt lat="50.02235" lon="5.40385">
        <ele>448</ele>
        <time>2013-09-08T07:09:41Z</time>
      </trkpt>
      <trkpt lat="50.02233" lon="5.40397">
        <ele>448</ele>
        <time>2013-09-08T07:09:47Z</time>
      </trkpt>
      <trkpt lat="50.0223" lon="5.40406">
        <ele>449</ele>
        <time>2013-09-08T07:09:52Z</time>
      </trkpt>
      <trkpt lat="50.02227" lon="5.40416">
        <ele>449</ele>
        <time>2013-09-08T07:09:58Z</time>
      </trkpt>
      <trkpt lat="50.02224" lon="5.40422">
        <ele>449</ele>
        <time>2013-09-08T07:10:03Z</time>
      </trkpt>
      <trkpt lat="50.0222" lon="5.40424">
        <ele>450</ele>
        <time>2013-09-08T07:10:09Z</time>
      </trkpt>
      <trkpt lat="50.02213" lon="5.40427">
        <ele>450</ele>
        <time>2013-09-08T07:10:15Z</time>
      </trkpt>
      <trkpt lat="50.02206" lon="5.4043">
        <ele>450</ele>
        <time>2013-09-08T07:10:21Z</time>
      </trkpt>
      <trkpt lat="50.02199" lon="5.40434">
        <ele>450</ele>
        <time>2013-09-08T07:10:26Z</time>
      </trkpt>
      <trkpt lat="50.02193" lon="5.40437">
        <ele>450</ele>
        <time>2013-09-08T07:10:32Z</time>
      </trkpt>
      <trkpt lat="50.02192" lon="5.40436">
        <ele>450</ele>
        <time>2013-09-08T07:10:37Z</time>
      </trkpt>
      <trkpt lat="50.02192" lon="5.40434">
        <ele>450</ele>
        <time>2013-09-08T07:10:42Z</time>
      </trkpt>
      <trkpt lat="50.02192" lon="5.40431">
        <ele>450</ele>
        <time>2013-09-08T07:10:48Z</time>
      </trkpt>
      <trkpt lat="50.0219" lon="5.4043">
        <ele>450</ele>
        <time>2013-09-08T07:10:53Z</time>
      </trkpt>
      <trkpt lat="50.02187" lon="5.40429">
        <ele>450</ele>
        <time>2013-09-08T07:10:58Z</time>
      </trkpt>
      <trkpt lat="50.02183" lon="5.40433">
        <ele>451</ele>
        <time>2013-09-08T07:11:04Z</time>
      </trkpt>
      <trkpt lat="50.02176" lon="5.40437">
        <ele>451</ele>
        <time>2013-09-08T07:11:09Z</time>
      </trkpt>
      <trkpt lat="50.0217" lon="5.40443">
        <ele>451</ele>
        <time>2013-09-08T07:11:14Z</time>
      </trkpt>
      <trkpt lat="50.02163" lon="5.40451">
        <ele>451</ele>
        <time>2013-09-08T07:11:20Z</time>
      </trkpt>
      <trkpt lat="50.02159" lon="5.40454">
        <ele>450</ele>
        <time>2013-09-08T07:11:25Z</time>
      </trkpt>
      <trkpt lat="50.02158" lon="5.40459">
        <ele>451</ele>
        <time>2013-09-08T07:11:31Z</time>
      </trkpt>
      <trkpt lat="50.02154" lon="5.40462">
        <ele>450</ele>
        <time>2013-09-08T07:11:37Z</time>
      </trkpt>
      <trkpt lat="50.02149" lon="5.40463">
        <ele>450</ele>
        <time>2013-09-08T07:11:42Z</time>
      </trkpt>
      <trkpt lat="50.02142" lon="5.40465">
        <ele>450</ele>
        <time>2013-09-08T07:11:48Z</time>
      </trkpt>
      <trkpt lat="50.02135" lon="5.40466">
        <ele>450</ele>
        <time>2013-09-08T07:11:54Z</time>
      </trkpt>
      <trkpt lat="50.02129" lon="5.40467">
        <ele>450</ele>
        <time>2013-09-08T07:11:59Z</time>
      </trkpt>
      <trkpt lat="50.02123" lon="5.40468">
        <ele>450</ele>
        <time>2013-09-08T07:12:05Z</time>
      </trkpt>
      <trkpt lat="50.02122" lon="5.40467">
        <ele>450</ele>
        <time>2013-09-08T07:12:10Z</time>
      </trkpt>
      <trkpt lat="50.02117" lon="5.40464">
        <ele>449</ele>
        <time>2013-09-08T07:12:16Z</time>
      </trkpt>
      <trkpt lat="50.02111" lon="5.40463">
        <ele>448</ele>
        <time>2013-09-08T07:12:22Z</time>
      </trkpt>
      <trkpt lat="50.02106" lon="5.40463">
        <ele>448</ele>
        <time>2013-09-08T07:12:27Z</time>
      </trkpt>
      <trkpt lat="50.02099" lon="5.40464">
        <ele>448</ele>
        <time>2013-09-08T07:12:33Z</time>
      </trkpt>
      <trkpt lat="50.02094" lon="5.40464">
        <ele>448</ele>
        <time>2013-09-08T07:12:38Z</time>
      </trkpt>
      <trkpt lat="50.02087" lon="5.40465">
        <ele>447</ele>
        <time>2013-09-08T07:12:44Z</time>
      </trkpt>
      <trkpt lat="50.02081" lon="5.40468">
        <ele>447</ele>
        <time>2013-09-08T07:12:49Z</time>
      </trkpt>
      <trkpt lat="50.02074" lon="5.40468">
        <ele>447</ele>
        <time>2013-09-08T07:12:54Z</time>
      </trkpt>
      <trkpt lat="50.02067" lon="5.40471">
        <ele>446</ele>
        <time>2013-09-08T07:13:00Z</time>
      </trkpt>
      <trkpt lat="50.02058" lon="5.40471">
        <ele>446</ele>
        <time>2013-09-08T07:13:06Z</time>
      </trkpt>
      <trkpt lat="50.0205" lon="5.40472">
        <ele>445</ele>
        <time>2013-09-08T07:13:12Z</time>
      </trkpt>
      <trkpt lat="50.02042" lon="5.40473">
        <ele>445</ele>
        <time>2013-09-08T07:13:18Z</time>
      </trkpt>
      <trkpt lat="50.02035" lon="5.40473">
        <ele>445</ele>
        <time>2013-09-08T07:13:24Z</time>
      </trkpt>
      <trkpt lat="50.02028" lon="5.40474">
        <ele>445</ele>
        <time>2013-09-08T07:13:30Z</time>
      </trkpt>
      <trkpt lat="50.02023" lon="5.40474">
        <ele>444</ele>
        <time>2013-09-08T07:13:35Z</time>
      </trkpt>
      <trkpt lat="50.02019" lon="5.40473">
        <ele>444</ele>
        <time>2013-09-08T07:13:41Z</time>
      </trkpt>
      <trkpt lat="50.02018" lon="5.40471">
        <ele>444</ele>
        <time>2013-09-08T07:13:46Z</time>
      </trkpt>
      <trkpt lat="50.02013" lon="5.40469">
        <ele>444</ele>
        <time>2013-09-08T07:13:52Z</time>
      </trkpt>
      <trkpt lat="50.02007" lon="5.40469">
        <ele>443</ele>
        <time>2013-09-08T07:13:58Z</time>
      </trkpt>
      <trkpt lat="50.01999" lon="5.40469">
        <ele>443</ele>
        <time>2013-09-08T07:14:04Z</time>
      </trkpt>
      <trkpt lat="50.01991" lon="5.4047">
        <ele>442</ele>
        <time>2013-09-08T07:14:10Z</time>
      </trkpt>
      <trkpt lat="50.01982" lon="5.40471">
        <ele>441</ele>
        <time>2013-09-08T07:14:16Z</time>
      </trkpt>
      <trkpt lat="50.01976" lon="5.40472">
        <ele>441</ele>
        <time>2013-09-08T07:14:21Z</time>
      </trkpt>
      <trkpt lat="50.0197" lon="5.40472">
        <ele>440</ele>
        <time>2013-09-08T07:14:27Z</time>
      </trkpt>
      <trkpt lat="50.01965" lon="5.40473">
        <ele>440</ele>
        <time>2013-09-08T07:14:32Z</time>
      </trkpt>
      <trkpt lat="50.0196" lon="5.40473">
        <ele>440</ele>
        <time>2013-09-08T07:14:37Z</time>
      </trkpt>
      <trkpt lat="50.01955" lon="5.40472">
        <ele>439</ele>
        <time>2013-09-08T07:14:43Z</time>
      </trkpt>
      <trkpt lat="50.01954" lon="5.40469">
        <ele>439</ele>
        <time>2013-09-08T07:14:48Z</time>
      </trkpt>
      <trkpt lat="50.01952" lon="5.40466">
        <ele>439</ele>
        <time>2013-09-08T07:14:53Z</time>
      </trkpt>
      <trkpt lat="50.0195" lon="5.40462">
        <ele>440</ele>
        <time>2013-09-08T07:14:59Z</time>
      </trkpt>
      <trkpt lat="50.0195" lon="5.40457">
        <ele>440</ele>
        <time>2013-09-08T07:15:04Z</time>
      </trkpt>
      <trkpt lat="50.01949" lon="5.40453">
        <ele>440</ele>
        <time>2013-09-08T07:15:09Z</time>
      </trkpt>
      <trkpt lat="50.01948" lon="5.40447">
        <ele>439</ele>
        <time>2013-09-08T07:15:15Z</time>
      </trkpt>
      <trkpt lat="50.01947" lon="5.40442">
        <ele>439</ele>
        <time>2013-09-08T07:15:21Z</time>
      </trkpt>
      <trkpt lat="50.01947" lon="5.40438">
        <ele>439</ele>
        <time>2013-09-08T07:15:26Z</time>
      </trkpt>
      <trkpt lat="50.01947" lon="5.40436">
        <ele>439</ele>
        <time>2013-09-08T07:15:31Z</time>
      </trkpt>
      <trkpt lat="50.01947" lon="5.40435">
        <ele>439</ele>
        <time>2013-09-08T07:15:36Z</time>
      </trkpt>
      <trkpt lat="50.01946" lon="5.40436">
        <ele>439</ele>
        <time>2013-09-08T07:15:42Z</time>
      </trkpt>
      <trkpt lat="50.01944" lon="5.40439">
        <ele>439</ele>
        <time>2013-09-08T07:15:47Z</time>
      </trkpt>
      <trkpt lat="50.01941" lon="5.40442">
        <ele>439</ele>
        <time>2013-09-08T07:15:52Z</time>
      </trkpt>
      <trkpt lat="50.01937" lon="5.40446">
        <ele>439</ele>
        <time>2013-09-08T07:15:57Z</time>
      </trkpt>
      <trkpt lat="50.01931" lon="5.40449">
        <ele>439</ele>
        <time>2013-09-08T07:16:03Z</time>
      </trkpt>
      <trkpt lat="50.01926" lon="5.40453">
        <ele>439</ele>
        <time>2013-09-08T07:16:08Z</time>
      </trkpt>
      <trkpt lat="50.0192" lon="5.40456">
        <ele>438</ele>
        <time>2013-09-08T07:16:13Z</time>
      </trkpt>
      <trkpt lat="50.01912" lon="5.40458">
        <ele>438</ele>
        <time>2013-09-08T07:16:19Z</time>
      </trkpt>
      <trkpt lat="50.01906" lon="5.40459">
        <ele>438</ele>
        <time>2013-09-08T07:16:24Z</time>
      </trkpt>
      <trkpt lat="50.019" lon="5.4046">
        <ele>437</ele>
        <time>2013-09-08T07:16:29Z</time>
      </trkpt>
      <trkpt lat="50.01894" lon="5.40461">
        <ele>436</ele>
        <time>2013-09-08T07:16:35Z</time>
      </trkpt>
      <trkpt lat="50.01887" lon="5.40462">
        <ele>436</ele>
        <time>2013-09-08T07:16:41Z</time>
      </trkpt>
      <trkpt lat="50.0188" lon="5.40463">
        <ele>436</ele>
        <time>2013-09-08T07:16:47Z</time>
      </trkpt>
      <trkpt lat="50.01877" lon="5.40463">
        <ele>436</ele>
        <time>2013-09-08T07:16:52Z</time>
      </trkpt>
      <trkpt lat="50.01872" lon="5.40462">
        <ele>435</ele>
        <time>2013-09-08T07:16:58Z</time>
      </trkpt>
      <trkpt lat="50.01865" lon="5.40461">
        <ele>436</ele>
        <time>2013-09-08T07:17:03Z</time>
      </trkpt>
      <trkpt lat="50.01859" lon="5.4046">
        <ele>435</ele>
        <time>2013-09-08T07:17:09Z</time>
      </trkpt>
      <trkpt lat="50.01852" lon="5.40458">
        <ele>435</ele>
        <time>2013-09-08T07:17:15Z</time>
      </trkpt>
      <trkpt lat="50.01846" lon="5.40458">
        <ele>434</ele>
        <time>2013-09-08T07:17:20Z</time>
      </trkpt>
      <trkpt lat="50.0184" lon="5.40458">
        <ele>434</ele>
        <time>2013-09-08T07:17:25Z</time>
      </trkpt>
      <trkpt lat="50.01832" lon="5.40456">
        <ele>434</ele>
        <time>2013-09-08T07:17:31Z</time>
      </trkpt>
      <trkpt lat="50.01826" lon="5.40454">
        <ele>433</ele>
        <time>2013-09-08T07:17:37Z</time>
      </trkpt>
      <trkpt lat="50.01821" lon="5.40452">
        <ele>433</ele>
        <time>2013-09-08T07:17:42Z</time>
      </trkpt>
      <trkpt lat="50.01814" lon="5.40449">
        <ele>433</ele>
        <time>2013-09-08T07:17:48Z</time>
      </trkpt>
      <trkpt lat="50.01808" lon="5.40448">
        <ele>433</ele>
        <time>2013-09-08T07:17:53Z</time>
      </trkpt>
      <trkpt lat="50.01805" lon="5.40448">
        <ele>433</ele>
        <time>2013-09-08T07:17:58Z</time>
      </trkpt>
      <trkpt lat="50.01798" lon="5.40446">
        <ele>434</ele>
        <time>2013-09-08T07:18:04Z</time>
      </trkpt>
      <trkpt lat="50.01791" lon="5.40444">
        <ele>433</ele>
        <time>2013-09-08T07:18:09Z</time>
      </trkpt>
      <trkpt lat="50.01785" lon="5.40442">
        <ele>433</ele>
        <time>2013-09-08T07:18:14Z</time>
      </trkpt>
      <trkpt lat="50.01778" lon="5.40439">
        <ele>433</ele>
        <time>2013-09-08T07:18:20Z</time>
      </trkpt>
      <trkpt lat="50.01772" lon="5.40436">
        <ele>433</ele>
        <time>2013-09-08T07:18:26Z</time>
      </trkpt>
      <trkpt lat="50.01767" lon="5.40436">
        <ele>433</ele>
        <time>2013-09-08T07:18:32Z</time>
      </trkpt>
      <trkpt lat="50.01766" lon="5.40436">
        <ele>432</ele>
        <time>2013-09-08T07:18:38Z</time>
      </trkpt>
      <trkpt lat="50.01765" lon="5.40439">
        <ele>432</ele>
        <time>2013-09-08T07:18:43Z</time>
      </trkpt>
      <trkpt lat="50.01764" lon="5.4044">
        <ele>432</ele>
        <time>2013-09-08T07:18:50Z</time>
      </trkpt>
      <trkpt lat="50.01765" lon="5.40445">
        <ele>432</ele>
        <time>2013-09-08T07:18:56Z</time>
      </trkpt>
      <trkpt lat="50.01766" lon="5.40456">
        <ele>431</ele>
        <time>2013-09-08T07:19:02Z</time>
      </trkpt>
      <trkpt lat="50.01767" lon="5.40466">
        <ele>432</ele>
        <time>2013-09-08T07:19:07Z</time>
      </trkpt>
      <trkpt lat="50.01768" lon="5.40479">
        <ele>431</ele>
        <time>2013-09-08T07:19:13Z</time>
      </trkpt>
      <trkpt lat="50.01768" lon="5.40488">
        <ele>431</ele>
        <time>2013-09-08T07:19:19Z</time>
      </trkpt>
      <trkpt lat="50.01768" lon="5.40498">
        <ele>431</ele>
        <time>2013-09-08T07:19:25Z</time>
      </trkpt>
      <trkpt lat="50.01769" lon="5.40506">
        <ele>431</ele>
        <time>2013-09-08T07:19:30Z</time>
      </trkpt>
      <trkpt lat="50.0177" lon="5.40511">
        <ele>431</ele>
        <time>2013-09-08T07:19:35Z</time>
      </trkpt>
      <trkpt lat="50.0177" lon="5.40517">
        <ele>431</ele>
        <time>2013-09-08T07:19:41Z</time>
      </trkpt>
      <trkpt lat="50.0177" lon="5.40524">
        <ele>430</ele>
        <time>2013-09-08T07:19:46Z</time>
      </trkpt>
      <trkpt lat="50.01771" lon="5.40535">
        <ele>431</ele>
        <time>2013-09-08T07:19:52Z</time>
      </trkpt>
      <trkpt lat="50.0177" lon="5.40547">
        <ele>431</ele>
        <time>2013-09-08T07:19:58Z</time>
      </trkpt>
      <trkpt lat="50.0177" lon="5.40558">
        <ele>432</ele>
        <time>2013-09-08T07:20:04Z</time>
      </trkpt>
      <trkpt lat="50.0177" lon="5.4057">
        <ele>432</ele>
        <time>2013-09-08T07:20:10Z</time>
      </trkpt>
      <trkpt lat="50.01771" lon="5.4058">
        <ele>433</ele>
        <time>2013-09-08T07:20:15Z</time>
      </trkpt>
      <trkpt lat="50.01772" lon="5.4059">
        <ele>434</ele>
        <time>2013-09-08T07:20:20Z</time>
      </trkpt>
      <trkpt lat="50.01773" lon="5.4059">
        <ele>434</ele>
        <time>2013-09-08T07:20:26Z</time>
      </trkpt>
      <trkpt lat="50.01773" lon="5.40599">
        <ele>433</ele>
        <time>2013-09-08T07:20:31Z</time>
      </trkpt>
      <trkpt lat="50.01773" lon="5.40609">
        <ele>433</ele>
        <time>2013-09-08T07:20:36Z</time>
      </trkpt>
      <trkpt lat="50.01773" lon="5.40621">
        <ele>434</ele>
        <time>2013-09-08T07:20:42Z</time>
      </trkpt>
      <trkpt lat="50.01774" lon="5.40631">
        <ele>435</ele>
        <time>2013-09-08T07:20:48Z</time>
      </trkpt>
      <trkpt lat="50.01774" lon="5.40642">
        <ele>435</ele>
        <time>2013-09-08T07:20:54Z</time>
      </trkpt>
      <trkpt lat="50.01774" lon="5.40654">
        <ele>435</ele>
        <time>2013-09-08T07:21:00Z</time>
      </trkpt>
      <trkpt lat="50.01775" lon="5.40664">
        <ele>435</ele>
        <time>2013-09-08T07:21:06Z</time>
      </trkpt>
      <trkpt lat="50.01775" lon="5.40674">
        <ele>436</ele>
        <time>2013-09-08T07:21:11Z</time>
      </trkpt>
      <trkpt lat="50.01776" lon="5.40684">
        <ele>436</ele>
        <time>2013-09-08T07:21:16Z</time>
      </trkpt>
      <trkpt lat="50.01777" lon="5.40694">
        <ele>436</ele>
        <time>2013-09-08T07:21:21Z</time>
      </trkpt>
      <trkpt lat="50.01776" lon="5.40705">
        <ele>436</ele>
        <time>2013-09-08T07:21:27Z</time>
      </trkpt>
      <trkpt lat="50.01777" lon="5.40715">
        <ele>436</ele>
        <time>2013-09-08T07:21:32Z</time>
      </trkpt>
      <trkpt lat="50.01777" lon="5.40728">
        <ele>436</ele>
        <time>2013-09-08T07:21:38Z</time>
      </trkpt>
      <trkpt lat="50.01777" lon="5.40741">
        <ele>437</ele>
        <time>2013-09-08T07:21:44Z</time>
      </trkpt>
      <trkpt lat="50.01777" lon="5.40752">
        <ele>437</ele>
        <time>2013-09-08T07:21:49Z</time>
      </trkpt>
      <trkpt lat="50.01778" lon="5.40764">
        <ele>438</ele>
        <time>2013-09-08T07:21:55Z</time>
      </trkpt>
      <trkpt lat="50.01778" lon="5.40769">
        <ele>439</ele>
        <time>2013-09-08T07:22:00Z</time>
      </trkpt>
      <trkpt lat="50.01778" lon="5.40778">
        <ele>438</ele>
        <time>2013-09-08T07:22:05Z</time>
      </trkpt>
      <trkpt lat="50.01779" lon="5.4079">
        <ele>438</ele>
        <time>2013-09-08T07:22:11Z</time>
      </trkpt>
      <trkpt lat="50.01779" lon="5.40799">
        <ele>438</ele>
        <time>2013-09-08T07:22:16Z</time>
      </trkpt>
      <trkpt lat="50.01778" lon="5.4081">
        <ele>439</ele>
        <time>2013-09-08T07:22:22Z</time>
      </trkpt>
      <trkpt lat="50.01778" lon="5.40821">
        <ele>439</ele>
        <time>2013-09-08T07:22:28Z</time>
      </trkpt>
      <trkpt lat="50.01778" lon="5.4083">
        <ele>439</ele>
        <time>2013-09-08T07:22:33Z</time>
      </trkpt>
      <trkpt lat="50.01779" lon="5.40839">
        <ele>439</ele>
        <time>2013-09-08T07:22:38Z</time>
      </trkpt>
      <trkpt lat="50.0178" lon="5.4085">
        <ele>439</ele>
        <time>2013-09-08T07:22:44Z</time>
      </trkpt>
      <trkpt lat="50.01781" lon="5.40858">
        <ele>439</ele>
        <time>2013-09-08T07:22:49Z</time>
      </trkpt>
      <trkpt lat="50.01782" lon="5.40868">
        <ele>439</ele>
        <time>2013-09-08T07:22:54Z</time>
      </trkpt>
      <trkpt lat="50.01782" lon="5.40878">
        <ele>440</ele>
        <time>2013-09-08T07:22:59Z</time>
      </trkpt>
      <trkpt lat="50.01782" lon="5.40888">
        <ele>439</ele>
        <time>2013-09-08T07:23:05Z</time>
      </trkpt>
      <trkpt lat="50.01782" lon="5.40896">
        <ele>439</ele>
        <time>2013-09-08T07:23:10Z</time>
      </trkpt>
      <trkpt lat="50.01782" lon="5.40898">
        <ele>440</ele>
        <time>2013-09-08T07:23:17Z</time>
      </trkpt>
      <trkpt lat="50.01783" lon="5.40899">
        <ele>440</ele>
        <time>2013-09-08T07:23:22Z</time>
      </trkpt>
      <trkpt lat="50.01782" lon="5.40903">
        <ele>441</ele>
        <time>2013-09-08T07:23:28Z</time>
      </trkpt>
      <trkpt lat="50.01781" lon="5.40905">
        <ele>440</ele>
        <time>2013-09-08T07:23:33Z</time>
      </trkpt>
      <trkpt lat="50.0178" lon="5.40908">
        <ele>440</ele>
        <time>2013-09-08T07:23:38Z</time>
      </trkpt>
      <trkpt lat="50.0178" lon="5.40918">
        <ele>440</ele>
        <time>2013-09-08T07:23:44Z</time>
      </trkpt>
      <trkpt lat="50.0178" lon="5.40928">
        <ele>441</ele>
        <time>2013-09-08T07:23:49Z</time>
      </trkpt>
      <trkpt lat="50.01781" lon="5.40936">
        <ele>441</ele>
        <time>2013-09-08T07:23:54Z</time>
      </trkpt>
      <trkpt lat="50.01781" lon="5.40947">
        <ele>440</ele>
        <time>2013-09-08T07:24:00Z</time>
      </trkpt>
      <trkpt lat="50.01783" lon="5.40955">
        <ele>440</ele>
        <time>2013-09-08T07:24:06Z</time>
      </trkpt>
      <trkpt lat="50.01783" lon="5.40965">
        <ele>440</ele>
        <time>2013-09-08T07:24:11Z</time>
      </trkpt>
      <trkpt lat="50.01783" lon="5.40975">
        <ele>440</ele>
        <time>2013-09-08T07:24:16Z</time>
      </trkpt>
      <trkpt lat="50.01785" lon="5.40983">
        <ele>440</ele>
        <time>2013-09-08T07:24:22Z</time>
      </trkpt>
      <trkpt lat="50.01785" lon="5.40991">
        <ele>440</ele>
        <time>2013-09-08T07:24:27Z</time>
      </trkpt>
      <trkpt lat="50.01786" lon="5.41001">
        <ele>439</ele>
        <time>2013-09-08T07:24:33Z</time>
      </trkpt>
      <trkpt lat="50.01788" lon="5.41008">
        <ele>439</ele>
        <time>2013-09-08T07:24:38Z</time>
      </trkpt>
      <trkpt lat="50.01788" lon="5.41016">
        <ele>439</ele>
        <time>2013-09-08T07:24:43Z</time>
      </trkpt>
      <trkpt lat="50.01789" lon="5.41027">
        <ele>440</ele>
        <time>2013-09-08T07:24:49Z</time>
      </trkpt>
      <trkpt lat="50.01788" lon="5.41037">
        <ele>439</ele>
        <time>2013-09-08T07:24:54Z</time>
      </trkpt>
      <trkpt lat="50.01789" lon="5.41045">
        <ele>439</ele>
        <time>2013-09-08T07:24:59Z</time>
      </trkpt>
      <trkpt lat="50.01789" lon="5.41054">
        <ele>439</ele>
        <time>2013-09-08T07:25:04Z</time>
      </trkpt>
      <trkpt lat="50.0179" lon="5.41066">
        <ele>440</ele>
        <time>2013-09-08T07:25:10Z</time>
      </trkpt>
      <trkpt lat="50.01791" lon="5.41075">
        <ele>439</ele>
        <time>2013-09-08T07:25:15Z</time>
      </trkpt>
      <trkpt lat="50.0179" lon="5.41086">
        <ele>440</ele>
        <time>2013-09-08T07:25:21Z</time>
      </trkpt>
      <trkpt lat="50.0179" lon="5.41095">
        <ele>439</ele>
        <time>2013-09-08T07:25:26Z</time>
      </trkpt>
      <trkpt lat="50.01791" lon="5.41105">
        <ele>439</ele>
        <time>2013-09-08T07:25:32Z</time>
      </trkpt>
      <trkpt lat="50.01792" lon="5.41116">
        <ele>439</ele>
        <time>2013-09-08T07:25:38Z</time>
      </trkpt>
      <trkpt lat="50.01792" lon="5.41125">
        <ele>439</ele>
        <time>2013-09-08T07:25:43Z</time>
      </trkpt>
      <trkpt lat="50.01793" lon="5.41135">
        <ele>439</ele>
        <time>2013-09-08T07:25:48Z</time>
      </trkpt>
      <trkpt lat="50.01793" lon="5.41146">
        <ele>439</ele>
        <time>2013-09-08T07:25:53Z</time>
      </trkpt>
      <trkpt lat="50.01791" lon="5.41158">
        <ele>439</ele>
        <time>2013-09-08T07:25:59Z</time>
      </trkpt>
      <trkpt lat="50.01789" lon="5.4117">
        <ele>439</ele>
        <time>2013-09-08T07:26:05Z</time>
      </trkpt>
      <trkpt lat="50.01789" lon="5.41182">
        <ele>439</ele>
        <time>2013-09-08T07:26:11Z</time>
      </trkpt>
      <trkpt lat="50.01789" lon="5.4119">
        <ele>439</ele>
        <time>2013-09-08T07:26:16Z</time>
      </trkpt>
      <trkpt lat="50.01787" lon="5.41202">
        <ele>439</ele>
        <time>2013-09-08T07:26:22Z</time>
      </trkpt>
      <trkpt lat="50.01788" lon="5.41211">
        <ele>438</ele>
        <time>2013-09-08T07:26:27Z</time>
      </trkpt>
      <trkpt lat="50.01787" lon="5.41222">
        <ele>439</ele>
        <time>2013-09-08T07:26:33Z</time>
      </trkpt>
      <trkpt lat="50.01787" lon="5.41232">
        <ele>438</ele>
        <time>2013-09-08T07:26:38Z</time>
      </trkpt>
      <trkpt lat="50.01787" lon="5.41242">
        <ele>438</ele>
        <time>2013-09-08T07:26:43Z</time>
      </trkpt>
      <trkpt lat="50.01788" lon="5.41254">
        <ele>439</ele>
        <time>2013-09-08T07:26:49Z</time>
      </trkpt>
      <trkpt lat="50.01789" lon="5.41263">
        <ele>438</ele>
        <time>2013-09-08T07:26:54Z</time>
      </trkpt>
      <trkpt lat="50.01788" lon="5.41274">
        <ele>438</ele>
        <time>2013-09-08T07:26:59Z</time>
      </trkpt>
      <trkpt lat="50.01789" lon="5.41283">
        <ele>438</ele>
        <time>2013-09-08T07:27:04Z</time>
      </trkpt>
      <trkpt lat="50.01791" lon="5.41292">
        <ele>438</ele>
        <time>2013-09-08T07:27:09Z</time>
      </trkpt>
      <trkpt lat="50.01792" lon="5.41304">
        <ele>437</ele>
        <time>2013-09-08T07:27:15Z</time>
      </trkpt>
      <trkpt lat="50.01792" lon="5.41315">
        <ele>438</ele>
        <time>2013-09-08T07:27:20Z</time>
      </trkpt>
      <trkpt lat="50.01792" lon="5.41327">
        <ele>437</ele>
        <time>2013-09-08T07:27:26Z</time>
      </trkpt>
      <trkpt lat="50.01791" lon="5.41339">
        <ele>437</ele>
        <time>2013-09-08T07:27:32Z</time>
      </trkpt>
      <trkpt lat="50.01791" lon="5.41349">
        <ele>437</ele>
        <time>2013-09-08T07:27:38Z</time>
      </trkpt>
      <trkpt lat="50.01792" lon="5.41359">
        <ele>436</ele>
        <time>2013-09-08T07:27:44Z</time>
      </trkpt>
      <trkpt lat="50.01791" lon="5.41368">
        <ele>436</ele>
        <time>2013-09-08T07:27:49Z</time>
      </trkpt>
      <trkpt lat="50.01791" lon="5.41379">
        <ele>437</ele>
        <time>2013-09-08T07:27:55Z</time>
      </trkpt>
      <trkpt lat="50.01793" lon="5.41388">
        <ele>436</ele>
        <time>2013-09-08T07:28:00Z</time>
      </trkpt>
      <trkpt lat="50.01795" lon="5.41397">
        <ele>436</ele>
        <time>2013-09-08T07:28:05Z</time>
      </trkpt>
      <trkpt lat="50.01796" lon="5.41409">
        <ele>436</ele>
        <time>2013-09-08T07:28:11Z</time>
      </trkpt>
      <trkpt lat="50.01796" lon="5.41419">
        <ele>436</ele>
        <time>2013-09-08T07:28:16Z</time>
      </trkpt>
      <trkpt lat="50.01796" lon="5.41428">
        <ele>436</ele>
        <time>2013-09-08T07:28:21Z</time>
      </trkpt>
      <trkpt lat="50.01796" lon="5.41435">
        <ele>436</ele>
        <time>2013-09-08T07:28:26Z</time>
      </trkpt>
      <trkpt lat="50.01793" lon="5.4144">
        <ele>436</ele>
        <time>2013-09-08T07:28:32Z</time>
      </trkpt>
      <trkpt lat="50.0179" lon="5.41442">
        <ele>436</ele>
        <time>2013-09-08T07:28:37Z</time>
      </trkpt>
      <trkpt lat="50.01784" lon="5.41444">
        <ele>435</ele>
        <time>2013-09-08T07:28:43Z</time>
      </trkpt>
      <trkpt lat="50.01778" lon="5.41445">
        <ele>435</ele>
        <time>2013-09-08T07:28:48Z</time>
      </trkpt>
      <trkpt lat="50.01771" lon="5.41447">
        <ele>434</ele>
        <time>2013-09-08T07:28:54Z</time>
      </trkpt>
      <trkpt lat="50.01764" lon="5.41449">
        <ele>434</ele>
        <time>2013-09-08T07:29:00Z</time>
      </trkpt>
      <trkpt lat="50.01757" lon="5.4145">
        <ele>433</ele>
        <time>2013-09-08T07:29:05Z</time>
      </trkpt>
      <trkpt lat="50.01749" lon="5.41451">
        <ele>433</ele>
        <time>2013-09-08T07:29:11Z</time>
      </trkpt>
      <trkpt lat="50.01743" lon="5.41451">
        <ele>432</ele>
        <time>2013-09-08T07:29:16Z</time>
      </trkpt>
      <trkpt lat="50.01735" lon="5.41453">
        <ele>432</ele>
        <time>2013-09-08T07:29:22Z</time>
      </trkpt>
      <trkpt lat="50.01728" lon="5.41453">
        <ele>432</ele>
        <time>2013-09-08T07:29:27Z</time>
      </trkpt>
      <trkpt lat="50.01723" lon="5.41453">
        <ele>432</ele>
        <time>2013-09-08T07:29:32Z</time>
      </trkpt>
      <trkpt lat="50.0172" lon="5.41452">
        <ele>432</ele>
        <time>2013-09-08T07:29:38Z</time>
      </trkpt>
      <trkpt lat="50.01719" lon="5.41453">
        <ele>431</ele>
        <time>2013-09-08T07:29:44Z</time>
      </trkpt>
      <trkpt lat="50.0172" lon="5.41453">
        <ele>431</ele>
        <time>2013-09-08T07:29:49Z</time>
      </trkpt>
      <trkpt lat="50.0172" lon="5.41453">
        <ele>431</ele>
        <time>2013-09-08T07:29:55Z</time>
      </trkpt>
      <trkpt lat="50.0172" lon="5.41452">
        <ele>432</ele>
        <time>2013-09-08T07:30:01Z</time>
      </trkpt>
      <trkpt lat="50.0172" lon="5.41452">
        <ele>431</ele>
        <time>2013-09-08T07:30:06Z</time>
      </trkpt>
      <trkpt lat="50.01719" lon="5.41451">
        <ele>431</ele>
        <time>2013-09-08T07:30:12Z</time>
      </trkpt>
      <trkpt lat="50.01719" lon="5.41449">
        <ele>431</ele>
        <time>2013-09-08T07:30:18Z</time>
      </trkpt>
      <trkpt lat="50.01719" lon="5.41449">
        <ele>431</ele>
        <time>2013-09-08T07:30:23Z</time>
      </trkpt>
      <trkpt lat="50.01719" lon="5.41448">
        <ele>431</ele>
        <time>2013-09-08T07:30:30Z</time>
      </trkpt>
      <trkpt lat="50.0172" lon="5.41448">
        <ele>431</ele>
        <time>2013-09-08T07:30:35Z</time>
      </trkpt>
      <trkpt lat="50.01721" lon="5.41448">
        <ele>431</ele>
        <time>2013-09-08T07:30:41Z</time>
      </trkpt>
      <trkpt lat="50.01722" lon="5.41448">
        <ele>431</ele>
        <time>2013-09-08T07:30:46Z</time>
      </trkpt>
      <trkpt lat="50.01723" lon="5.41449">
        <ele>431</ele>
        <time>2013-09-08T07:30:52Z</time>
      </trkpt>
      <trkpt lat="50.01723" lon="5.41449">
        <ele>431</ele>
        <time>2013-09-08T07:30:58Z</time>
      </trkpt>
      <trkpt lat="50.01724" lon="5.41448">
        <ele>431</ele>
        <time>2013-09-08T07:31:05Z</time>
      </trkpt>
      <trkpt lat="50.01724" lon="5.41448">
        <ele>431</ele>
        <time>2013-09-08T07:31:10Z</time>
      </trkpt>
      <trkpt lat="50.01724" lon="5.41448">
        <ele>431</ele>
        <time>2013-09-08T07:31:16Z</time>
      </trkpt>
      <trkpt lat="50.01723" lon="5.41448">
        <ele>431</ele>
        <time>2013-09-08T07:31:22Z</time>
      </trkpt>
      <trkpt lat="50.01722" lon="5.41445">
        <ele>431</ele>
        <time>2013-09-08T07:31:28Z</time>
      </trkpt>
      <trkpt lat="50.01721" lon="5.41443">
        <ele>431</ele>
        <time>2013-09-08T07:31:33Z</time>
      </trkpt>
      <trkpt lat="50.0172" lon="5.41441">
        <ele>431</ele>
        <time>2013-09-08T07:31:39Z</time>
      </trkpt>
      <trkpt lat="50.0172" lon="5.41439">
        <ele>431</ele>
        <time>2013-09-08T07:31:48Z</time>
      </trkpt>
      <trkpt lat="50.01722" lon="5.41438">
        <ele>431</ele>
        <time>2013-09-08T07:31:56Z</time>
      </trkpt>
      <trkpt lat="50.01721" lon="5.41433">
        <ele>431</ele>
        <time>2013-09-08T07:32:01Z</time>
      </trkpt>
      <trkpt lat="50.0172" lon="5.41426">
        <ele>431</ele>
        <time>2013-09-08T07:32:07Z</time>
      </trkpt>
      <trkpt lat="50.01719" lon="5.41418">
        <ele>431</ele>
        <time>2013-09-08T07:32:12Z</time>
      </trkpt>
      <trkpt lat="50.01717" lon="5.41408">
        <ele>431</ele>
        <time>2013-09-08T07:32:18Z</time>
      </trkpt>
      <trkpt lat="50.01714" lon="5.41402">
        <ele>431</ele>
        <time>2013-09-08T07:32:23Z</time>
      </trkpt>
      <trkpt lat="50.0171" lon="5.41396">
        <ele>430</ele>
        <time>2013-09-08T07:32:28Z</time>
      </trkpt>
      <trkpt lat="50.01707" lon="5.4139">
        <ele>431</ele>
        <time>2013-09-08T07:32:33Z</time>
      </trkpt>
      <trkpt lat="50.01703" lon="5.41381">
        <ele>430</ele>
        <time>2013-09-08T07:32:39Z</time>
      </trkpt>
      <trkpt lat="50.01699" lon="5.41373">
        <ele>430</ele>
        <time>2013-09-08T07:32:45Z</time>
      </trkpt>
      <trkpt lat="50.01695" lon="5.41366">
        <ele>430</ele>
        <time>2013-09-08T07:32:50Z</time>
      </trkpt>
      <trkpt lat="50.01692" lon="5.41359">
        <ele>430</ele>
        <time>2013-09-08T07:32:55Z</time>
      </trkpt>
      <trkpt lat="50.01689" lon="5.41352">
        <ele>429</ele>
        <time>2013-09-08T07:33:00Z</time>
      </trkpt>
      <trkpt lat="50.01686" lon="5.41344">
        <ele>429</ele>
        <time>2013-09-08T07:33:05Z</time>
      </trkpt>
      <trkpt lat="50.01682" lon="5.41335">
        <ele>429</ele>
        <time>2013-09-08T07:33:11Z</time>
      </trkpt>
      <trkpt lat="50.01678" lon="5.41328">
        <ele>429</ele>
        <time>2013-09-08T07:33:16Z</time>
      </trkpt>
      <trkpt lat="50.01674" lon="5.41319">
        <ele>428</ele>
        <time>2013-09-08T07:33:22Z</time>
      </trkpt>
      <trkpt lat="50.01671" lon="5.41309">
        <ele>428</ele>
        <time>2013-09-08T07:33:28Z</time>
      </trkpt>
      <trkpt lat="50.01668" lon="5.41301">
        <ele>428</ele>
        <time>2013-09-08T07:33:33Z</time>
      </trkpt>
      <trkpt lat="50.01665" lon="5.41291">
        <ele>427</ele>
        <time>2013-09-08T07:33:39Z</time>
      </trkpt>
      <trkpt lat="50.01663" lon="5.41289">
        <ele>428</ele>
        <time>2013-09-08T07:33:44Z</time>
      </trkpt>
      <trkpt lat="50.0166" lon="5.41291">
        <ele>428</ele>
        <time>2013-09-08T07:33:49Z</time>
      </trkpt>
      <trkpt lat="50.01659" lon="5.41291">
        <ele>428</ele>
        <time>2013-09-08T07:33:55Z</time>
      </trkpt>
      <trkpt lat="50.01659" lon="5.41292">
        <ele>427</ele>
        <time>2013-09-08T07:34:01Z</time>
      </trkpt>
      <trkpt lat="50.01659" lon="5.41293">
        <ele>427</ele>
        <time>2013-09-08T07:34:07Z</time>
      </trkpt>
      <trkpt lat="50.01659" lon="5.41294">
        <ele>428</ele>
        <time>2013-09-08T07:34:13Z</time>
      </trkpt>
      <trkpt lat="50.01658" lon="5.41295">
        <ele>428</ele>
        <time>2013-09-08T07:34:18Z</time>
      </trkpt>
      <trkpt lat="50.01659" lon="5.41295">
        <ele>427</ele>
        <time>2013-09-08T07:34:24Z</time>
      </trkpt>
      <trkpt lat="50.01659" lon="5.41296">
        <ele>427</ele>
        <time>2013-09-08T07:34:30Z</time>
      </trkpt>
      <trkpt lat="50.01659" lon="5.41296">
        <ele>427</ele>
        <time>2013-09-08T07:34:35Z</time>
      </trkpt>
      <trkpt lat="50.01659" lon="5.41296">
        <ele>428</ele>
        <time>2013-09-08T07:34:41Z</time>
      </trkpt>
      <trkpt lat="50.01659" lon="5.41297">
        <ele>428</ele>
        <time>2013-09-08T07:34:49Z</time>
      </trkpt>
      <trkpt lat="50.01659" lon="5.41297">
        <ele>427</ele>
        <time>2013-09-08T07:34:54Z</time>
      </trkpt>
      <trkpt lat="50.01659" lon="5.41297">
        <ele>428</ele>
        <time>2013-09-08T07:35:00Z</time>
      </trkpt>
      <trkpt lat="50.01658" lon="5.41297">
        <ele>428</ele>
        <time>2013-09-08T07:35:07Z</time>
      </trkpt>
      <trkpt lat="50.01655" lon="5.413">
        <ele>428</ele>
        <time>2013-09-08T07:35:12Z</time>
      </trkpt>
      <trkpt lat="50.01655" lon="5.41299">
        <ele>428</ele>
        <time>2013-09-08T07:35:17Z</time>
      </trkpt>
      <trkpt lat="50.01657" lon="5.41296">
        <ele>428</ele>
        <time>2013-09-08T07:35:22Z</time>
      </trkpt>
      <trkpt lat="50.01655" lon="5.41291">
        <ele>427</ele>
        <time>2013-09-08T07:35:27Z</time>
      </trkpt>
      <trkpt lat="50.01655" lon="5.41286">
        <ele>427</ele>
        <time>2013-09-08T07:35:33Z</time>
      </trkpt>
      <trkpt lat="50.01656" lon="5.41285">
        <ele>427</ele>
        <time>2013-09-08T07:35:39Z</time>
      </trkpt>
      <trkpt lat="50.01656" lon="5.41285">
        <ele>427</ele>
        <time>2013-09-08T07:35:45Z</time>
      </trkpt>
      <trkpt lat="50.01656" lon="5.41284">
        <ele>427</ele>
        <time>2013-09-08T07:35:51Z</time>
      </trkpt>
      <trkpt lat="50.01656" lon="5.41284">
        <ele>427</ele>
        <time>2013-09-08T07:35:56Z</time>
      </trkpt>
      <trkpt lat="50.01654" lon="5.41278">
        <ele>427</ele>
        <time>2013-09-08T07:36:01Z</time>
      </trkpt>
      <trkpt lat="50.01652" lon="5.41269">
        <ele>427</ele>
        <time>2013-09-08T07:36:07Z</time>
      </trkpt>
      <trkpt lat="50.01649" lon="5.41261">
        <ele>427</ele>
        <time>2013-09-08T07:36:13Z</time>
      </trkpt>
      <trkpt lat="50.01649" lon="5.4126">
        <ele>427</ele>
        <time>2013-09-08T07:36:18Z</time>
      </trkpt>
      <trkpt lat="50.01646" lon="5.41253">
        <ele>427</ele>
        <time>2013-09-08T07:36:23Z</time>
      </trkpt>
      <trkpt lat="50.01643" lon="5.41243">
        <ele>426</ele>
        <time>2013-09-08T07:36:29Z</time>
      </trkpt>
      <trkpt lat="50.0164" lon="5.41235">
        <ele>427</ele>
        <time>2013-09-08T07:36:35Z</time>
      </trkpt>
      <trkpt lat="50.0164" lon="5.41233">
        <ele>427</ele>
        <time>2013-09-08T07:36:40Z</time>
      </trkpt>
      <trkpt lat="50.01636" lon="5.41224">
        <ele>427</ele>
        <time>2013-09-08T07:36:46Z</time>
      </trkpt>
      <trkpt lat="50.01632" lon="5.41215">
        <ele>426</ele>
        <time>2013-09-08T07:36:52Z</time>
      </trkpt>
      <trkpt lat="50.01629" lon="5.41214">
        <ele>426</ele>
        <time>2013-09-08T07:36:57Z</time>
      </trkpt>
      <trkpt lat="50.01629" lon="5.41213">
        <ele>426</ele>
        <time>2013-09-08T07:37:02Z</time>
      </trkpt>
      <trkpt lat="50.0163" lon="5.41212">
        <ele>426</ele>
        <time>2013-09-08T07:37:07Z</time>
      </trkpt>
      <trkpt lat="50.0163" lon="5.41212">
        <ele>426</ele>
        <time>2013-09-08T07:37:12Z</time>
      </trkpt>
      <trkpt lat="50.01631" lon="5.41211">
        <ele>426</ele>
        <time>2013-09-08T07:37:18Z</time>
      </trkpt>
      <trkpt lat="50.01632" lon="5.41209">
        <ele>427</ele>
        <time>2013-09-08T07:37:24Z</time>
      </trkpt>
      <trkpt lat="50.01634" lon="5.41203">
        <ele>426</ele>
        <time>2013-09-08T07:37:29Z</time>
      </trkpt>
      <trkpt lat="50.01633" lon="5.41204">
        <ele>426</ele>
        <time>2013-09-08T07:37:35Z</time>
      </trkpt>
      <trkpt lat="50.01633" lon="5.4121">
        <ele>426</ele>
        <time>2013-09-08T07:37:41Z</time>
      </trkpt>
      <trkpt lat="50.01632" lon="5.41209">
        <ele>426</ele>
        <time>2013-09-08T07:37:46Z</time>
      </trkpt>
      <trkpt lat="50.0163" lon="5.41203">
        <ele>426</ele>
        <time>2013-09-08T07:37:52Z</time>
      </trkpt>
      <trkpt lat="50.0163" lon="5.41203">
        <ele>426</ele>
        <time>2013-09-08T07:37:59Z</time>
      </trkpt>
      <trkpt lat="50.0163" lon="5.41203">
        <ele>426</ele>
        <time>2013-09-08T07:38:04Z</time>
      </trkpt>
      <trkpt lat="50.01631" lon="5.41202">
        <ele>426</ele>
        <time>2013-09-08T07:38:09Z</time>
      </trkpt>
      <trkpt lat="50.01631" lon="5.41202">
        <ele>426</ele>
        <time>2013-09-08T07:38:16Z</time>
      </trkpt>
      <trkpt lat="50.01631" lon="5.41202">
        <ele>426</ele>
        <time>2013-09-08T07:38:21Z</time>
      </trkpt>
      <trkpt lat="50.01629" lon="5.41204">
        <ele>426</ele>
        <time>2013-09-08T07:38:27Z</time>
      </trkpt>
      <trkpt lat="50.01626" lon="5.41206">
        <ele>426</ele>
        <time>2013-09-08T07:38:32Z</time>
      </trkpt>
      <trkpt lat="50.01624" lon="5.41206">
        <ele>426</ele>
        <time>2013-09-08T07:38:38Z</time>
      </trkpt>
      <trkpt lat="50.01621" lon="5.41207">
        <ele>426</ele>
        <time>2013-09-08T07:38:43Z</time>
      </trkpt>
      <trkpt lat="50.01617" lon="5.41214">
        <ele>426</ele>
        <time>2013-09-08T07:38:48Z</time>
      </trkpt>
      <trkpt lat="50.01608" lon="5.41225">
        <ele>426</ele>
        <time>2013-09-08T07:38:54Z</time>
      </trkpt>
      <trkpt lat="50.01609" lon="5.41225">
        <ele>426</ele>
        <time>2013-09-08T07:38:59Z</time>
      </trkpt>
      <trkpt lat="50.0161" lon="5.41226">
        <ele>426</ele>
        <time>2013-09-08T07:39:05Z</time>
      </trkpt>
      <trkpt lat="50.01613" lon="5.41223">
        <ele>425</ele>
        <time>2013-09-08T07:39:10Z</time>
      </trkpt>
      <trkpt lat="50.01618" lon="5.41213">
        <ele>426</ele>
        <time>2013-09-08T07:39:16Z</time>
      </trkpt>
      <trkpt lat="50.01617" lon="5.41203">
        <ele>426</ele>
        <time>2013-09-08T07:39:21Z</time>
      </trkpt>
      <trkpt lat="50.01619" lon="5.41187">
        <ele>426</ele>
        <time>2013-09-08T07:39:27Z</time>
      </trkpt>
      <trkpt lat="50.0162" lon="5.41183">
        <ele>425</ele>
        <time>2013-09-08T07:39:32Z</time>
      </trkpt>
      <trkpt lat="50.01619" lon="5.41175">
        <ele>425</ele>
        <time>2013-09-08T07:39:38Z</time>
      </trkpt>
      <trkpt lat="50.01618" lon="5.41165">
        <ele>425</ele>
        <time>2013-09-08T07:39:43Z</time>
      </trkpt>
      <trkpt lat="50.01617" lon="5.4116">
        <ele>425</ele>
        <time>2013-09-08T07:39:49Z</time>
      </trkpt>
      <trkpt lat="50.01618" lon="5.41157">
        <ele>425</ele>
        <time>2013-09-08T07:39:54Z</time>
      </trkpt>
      <trkpt lat="50.01619" lon="5.41155">
        <ele>425</ele>
        <time>2013-09-08T07:39:59Z</time>
      </trkpt>
      <trkpt lat="50.01622" lon="5.41153">
        <ele>426</ele>
        <time>2013-09-08T07:40:04Z</time>
      </trkpt>
      <trkpt lat="50.01626" lon="5.41153">
        <ele>426</ele>
        <time>2013-09-08T07:40:10Z</time>
      </trkpt>
      <trkpt lat="50.01632" lon="5.41151">
        <ele>426</ele>
        <time>2013-09-08T07:40:16Z</time>
      </trkpt>
      <trkpt lat="50.01636" lon="5.41149">
        <ele>426</ele>
        <time>2013-09-08T07:40:21Z</time>
      </trkpt>
      <trkpt lat="50.0164" lon="5.4115">
        <ele>426</ele>
        <time>2013-09-08T07:40:27Z</time>
      </trkpt>
      <trkpt lat="50.01643" lon="5.41152">
        <ele>427</ele>
        <time>2013-09-08T07:40:32Z</time>
      </trkpt>
      <trkpt lat="50.01643" lon="5.41152">
        <ele>427</ele>
        <time>2013-09-08T07:40:37Z</time>
      </trkpt>
      <trkpt lat="50.01643" lon="5.4115">
        <ele>427</ele>
        <time>2013-09-08T07:40:43Z</time>
      </trkpt>
      <trkpt lat="50.01644" lon="5.4115">
        <ele>427</ele>
        <time>2013-09-08T07:40:48Z</time>
      </trkpt>
      <trkpt lat="50.01642" lon="5.41151">
        <ele>426</ele>
        <time>2013-09-08T07:40:54Z</time>
      </trkpt>
      <trkpt lat="50.01643" lon="5.41152">
        <ele>427</ele>
        <time>2013-09-08T07:40:59Z</time>
      </trkpt>
      <trkpt lat="50.0164" lon="5.4115">
        <ele>427</ele>
        <time>2013-09-08T07:41:04Z</time>
      </trkpt>
      <trkpt lat="50.01639" lon="5.41151">
        <ele>427</ele>
        <time>2013-09-08T07:41:09Z</time>
      </trkpt>
      <trkpt lat="50.01636" lon="5.41151">
        <ele>427</ele>
        <time>2013-09-08T07:41:15Z</time>
      </trkpt>
      <trkpt lat="50.01633" lon="5.41151">
        <ele>426</ele>
        <time>2013-09-08T07:41:21Z</time>
      </trkpt>
      <trkpt lat="50.01632" lon="5.41152">
        <ele>427</ele>
        <time>2013-09-08T07:41:27Z</time>
      </trkpt>
      <trkpt lat="50.01634" lon="5.41155">
        <ele>427</ele>
        <time>2013-09-08T07:41:33Z</time>
      </trkpt>
      <trkpt lat="50.01634" lon="5.41156">
        <ele>426</ele>
        <time>2013-09-08T07:41:38Z</time>
      </trkpt>
      <trkpt lat="50.01633" lon="5.41157">
        <ele>426</ele>
        <time>2013-09-08T07:41:44Z</time>
      </trkpt>
      <trkpt lat="50.01633" lon="5.41154">
        <ele>426</ele>
        <time>2013-09-08T07:41:49Z</time>
      </trkpt>
      <trkpt lat="50.01633" lon="5.41154">
        <ele>426</ele>
        <time>2013-09-08T07:41:55Z</time>
      </trkpt>
      <trkpt lat="50.01633" lon="5.41152">
        <ele>426</ele>
        <time>2013-09-08T07:42:01Z</time>
      </trkpt>
      <trkpt lat="50.01635" lon="5.41152">
        <ele>426</ele>
        <time>2013-09-08T07:42:06Z</time>
      </trkpt>
      <trkpt lat="50.01635" lon="5.41151">
        <ele>426</ele>
        <time>2013-09-08T07:42:12Z</time>
      </trkpt>
      <trkpt lat="50.01634" lon="5.41151">
        <ele>426</ele>
        <time>2013-09-08T07:42:17Z</time>
      </trkpt>
      <trkpt lat="50.01634" lon="5.41151">
        <ele>426</ele>
        <time>2013-09-08T07:42:24Z</time>
      </trkpt>
      <trkpt lat="50.01635" lon="5.41152">
        <ele>426</ele>
        <time>2013-09-08T07:42:29Z</time>
      </trkpt>
      <trkpt lat="50.01634" lon="5.41152">
        <ele>426</ele>
        <time>2013-09-08T07:42:35Z</time>
      </trkpt>
      <trkpt lat="50.01631" lon="5.41151">
        <ele>426</ele>
        <time>2013-09-08T07:42:41Z</time>
      </trkpt>
      <trkpt lat="50.01632" lon="5.41152">
        <ele>426</ele>
        <time>2013-09-08T07:42:47Z</time>
      </trkpt>
      <trkpt lat="50.01634" lon="5.41154">
        <ele>426</ele>
        <time>2013-09-08T07:42:53Z</time>
      </trkpt>
      <trkpt lat="50.01633" lon="5.41152">
        <ele>426</ele>
        <time>2013-09-08T07:42:58Z</time>
      </trkpt>
      <trkpt lat="50.01633" lon="5.41148">
        <ele>426</ele>
        <time>2013-09-08T07:43:04Z</time>
      </trkpt>
      <trkpt lat="50.01635" lon="5.41148">
        <ele>425</ele>
        <time>2013-09-08T07:43:10Z</time>
      </trkpt>
      <trkpt lat="50.01635" lon="5.4115">
        <ele>425</ele>
        <time>2013-09-08T07:43:16Z</time>
      </trkpt>
      <trkpt lat="50.01632" lon="5.41152">
        <ele>425</ele>
        <time>2013-09-08T07:43:21Z</time>
      </trkpt>
      <trkpt lat="50.01628" lon="5.41154">
        <ele>425</ele>
        <time>2013-09-08T07:43:26Z</time>
      </trkpt>
      <trkpt lat="50.01624" lon="5.41157">
        <ele>424</ele>
        <time>2013-09-08T07:43:32Z</time>
      </trkpt>
      <trkpt lat="50.01621" lon="5.41155">
        <ele>424</ele>
        <time>2013-09-08T07:43:37Z</time>
      </trkpt>
      <trkpt lat="50.01619" lon="5.41146">
        <ele>423</ele>
        <time>2013-09-08T07:43:43Z</time>
      </trkpt>
      <trkpt lat="50.01614" lon="5.41138">
        <ele>423</ele>
        <time>2013-09-08T07:43:48Z</time>
      </trkpt>
      <trkpt lat="50.0161" lon="5.41129">
        <ele>423</ele>
        <time>2013-09-08T07:43:53Z</time>
      </trkpt>
      <trkpt lat="50.01603" lon="5.41121">
        <ele>423</ele>
        <time>2013-09-08T07:43:59Z</time>
      </trkpt>
      <trkpt lat="50.01598" lon="5.41113">
        <ele>423</ele>
        <time>2013-09-08T07:44:04Z</time>
      </trkpt>
      <trkpt lat="50.01594" lon="5.41106">
        <ele>423</ele>
        <time>2013-09-08T07:44:09Z</time>
      </trkpt>
      <trkpt lat="50.01592" lon="5.41097">
        <ele>423</ele>
        <time>2013-09-08T07:44:14Z</time>
      </trkpt>
      <trkpt lat="50.01589" lon="5.41089">
        <ele>422</ele>
        <time>2013-09-08T07:44:19Z</time>
      </trkpt>
      <trkpt lat="50.01585" lon="5.41079">
        <ele>422</ele>
        <time>2013-09-08T07:44:25Z</time>
      </trkpt>
      <trkpt lat="50.01582" lon="5.4107">
        <ele>421</ele>
        <time>2013-09-08T07:44:30Z</time>
      </trkpt>
      <trkpt lat="50.01578" lon="5.41061">
        <ele>421</ele>
        <time>2013-09-08T07:44:36Z</time>
      </trkpt>
      <trkpt lat="50.01575" lon="5.41053">
        <ele>421</ele>
        <time>2013-09-08T07:44:41Z</time>
      </trkpt>
      <trkpt lat="50.01572" lon="5.41044">
        <ele>421</ele>
        <time>2013-09-08T07:44:47Z</time>
      </trkpt>
      <trkpt lat="50.0157" lon="5.41035">
        <ele>420</ele>
        <time>2013-09-08T07:44:52Z</time>
      </trkpt>
      <trkpt lat="50.01568" lon="5.41027">
        <ele>420</ele>
        <time>2013-09-08T07:44:57Z</time>
      </trkpt>
      <trkpt lat="50.01564" lon="5.41018">
        <ele>420</ele>
        <time>2013-09-08T07:45:03Z</time>
      </trkpt>
      <trkpt lat="50.01561" lon="5.41008">
        <ele>420</ele>
        <time>2013-09-08T07:45:09Z</time>
      </trkpt>
      <trkpt lat="50.01557" lon="5.40999">
        <ele>420</ele>
        <time>2013-09-08T07:45:14Z</time>
      </trkpt>
      <trkpt lat="50.01554" lon="5.4099">
        <ele>420</ele>
        <time>2013-09-08T07:45:19Z</time>
      </trkpt>
      <trkpt lat="50.01549" lon="5.4098">
        <ele>419</ele>
        <time>2013-09-08T07:45:25Z</time>
      </trkpt>
      <trkpt lat="50.01545" lon="5.40972">
        <ele>419</ele>
        <time>2013-09-08T07:45:30Z</time>
      </trkpt>
      <trkpt lat="50.01542" lon="5.40962">
        <ele>419</ele>
        <time>2013-09-08T07:45:36Z</time>
      </trkpt>
      <trkpt lat="50.01537" lon="5.40953">
        <ele>419</ele>
        <time>2013-09-08T07:45:42Z</time>
      </trkpt>
      <trkpt lat="50.01534" lon="5.40944">
        <ele>419</ele>
        <time>2013-09-08T07:45:48Z</time>
      </trkpt>
      <trkpt lat="50.01531" lon="5.40936">
        <ele>418</ele>
        <time>2013-09-08T07:45:53Z</time>
      </trkpt>
      <trkpt lat="50.01526" lon="5.40927">
        <ele>418</ele>
        <time>2013-09-08T07:45:59Z</time>
      </trkpt>
      <trkpt lat="50.01522" lon="5.40919">
        <ele>417</ele>
        <time>2013-09-08T07:46:04Z</time>
      </trkpt>
      <trkpt lat="50.01516" lon="5.40911">
        <ele>417</ele>
        <time>2013-09-08T07:46:10Z</time>
      </trkpt>
      <trkpt lat="50.01511" lon="5.40903">
        <ele>417</ele>
        <time>2013-09-08T07:46:16Z</time>
      </trkpt>
      <trkpt lat="50.01506" lon="5.40897">
        <ele>416</ele>
        <time>2013-09-08T07:46:21Z</time>
      </trkpt>
      <trkpt lat="50.01501" lon="5.40891">
        <ele>416</ele>
        <time>2013-09-08T07:46:26Z</time>
      </trkpt>
      <trkpt lat="50.01496" lon="5.40885">
        <ele>416</ele>
        <time>2013-09-08T07:46:31Z</time>
      </trkpt>
      <trkpt lat="50.01491" lon="5.4088">
        <ele>415</ele>
        <time>2013-09-08T07:46:37Z</time>
      </trkpt>
      <trkpt lat="50.01488" lon="5.40878">
        <ele>415</ele>
        <time>2013-09-08T07:46:43Z</time>
      </trkpt>
      <trkpt lat="50.01483" lon="5.40873">
        <ele>415</ele>
        <time>2013-09-08T07:46:48Z</time>
      </trkpt>
      <trkpt lat="50.01477" lon="5.40868">
        <ele>414</ele>
        <time>2013-09-08T07:46:54Z</time>
      </trkpt>
      <trkpt lat="50.01473" lon="5.40863">
        <ele>414</ele>
        <time>2013-09-08T07:46:59Z</time>
      </trkpt>
      <trkpt lat="50.01469" lon="5.40857">
        <ele>413</ele>
        <time>2013-09-08T07:47:05Z</time>
      </trkpt>
      <trkpt lat="50.01464" lon="5.40852">
        <ele>413</ele>
        <time>2013-09-08T07:47:10Z</time>
      </trkpt>
      <trkpt lat="50.01459" lon="5.40848">
        <ele>412</ele>
        <time>2013-09-08T07:47:16Z</time>
      </trkpt>
      <trkpt lat="50.01455" lon="5.40843">
        <ele>412</ele>
        <time>2013-09-08T07:47:22Z</time>
      </trkpt>
      <trkpt lat="50.01449" lon="5.40841">
        <ele>411</ele>
        <time>2013-09-08T07:47:27Z</time>
      </trkpt>
      <trkpt lat="50.01444" lon="5.40837">
        <ele>411</ele>
        <time>2013-09-08T07:47:32Z</time>
      </trkpt>
      <trkpt lat="50.0144" lon="5.40833">
        <ele>411</ele>
        <time>2013-09-08T07:47:38Z</time>
      </trkpt>
      <trkpt lat="50.01438" lon="5.40829">
        <ele>410</ele>
        <time>2013-09-08T07:47:43Z</time>
      </trkpt>
      <trkpt lat="50.01435" lon="5.40824">
        <ele>410</ele>
        <time>2013-09-08T07:47:48Z</time>
      </trkpt>
      <trkpt lat="50.01431" lon="5.4082">
        <ele>410</ele>
        <time>2013-09-08T07:47:53Z</time>
      </trkpt>
      <trkpt lat="50.01426" lon="5.40814">
        <ele>410</ele>
        <time>2013-09-08T07:47:59Z</time>
      </trkpt>
      <trkpt lat="50.01421" lon="5.4081">
        <ele>410</ele>
        <time>2013-09-08T07:48:04Z</time>
      </trkpt>
      <trkpt lat="50.01418" lon="5.40808">
        <ele>409</ele>
        <time>2013-09-08T07:48:10Z</time>
      </trkpt>
      <trkpt lat="50.01411" lon="5.40804">
        <ele>409</ele>
        <time>2013-09-08T07:48:15Z</time>
      </trkpt>
      <trkpt lat="50.01403" lon="5.40799">
        <ele>409</ele>
        <time>2013-09-08T07:48:21Z</time>
      </trkpt>
      <trkpt lat="50.01395" lon="5.40794">
        <ele>408</ele>
        <time>2013-09-08T07:48:27Z</time>
      </trkpt>
      <trkpt lat="50.01388" lon="5.4079">
        <ele>408</ele>
        <time>2013-09-08T07:48:33Z</time>
      </trkpt>
      <trkpt lat="50.01381" lon="5.40786">
        <ele>407</ele>
        <time>2013-09-08T07:48:39Z</time>
      </trkpt>
      <trkpt lat="50.01376" lon="5.40781">
        <ele>407</ele>
        <time>2013-09-08T07:48:44Z</time>
      </trkpt>
      <trkpt lat="50.01368" lon="5.40777">
        <ele>407</ele>
        <time>2013-09-08T07:48:50Z</time>
      </trkpt>
      <trkpt lat="50.01363" lon="5.40772">
        <ele>406</ele>
        <time>2013-09-08T07:48:55Z</time>
      </trkpt>
      <trkpt lat="50.01357" lon="5.40766">
        <ele>407</ele>
        <time>2013-09-08T07:49:01Z</time>
      </trkpt>
      <trkpt lat="50.01352" lon="5.40765">
        <ele>406</ele>
        <time>2013-09-08T07:49:06Z</time>
      </trkpt>
      <trkpt lat="50.01346" lon="5.40763">
        <ele>406</ele>
        <time>2013-09-08T07:49:12Z</time>
      </trkpt>
      <trkpt lat="50.01341" lon="5.40763">
        <ele>406</ele>
        <time>2013-09-08T07:49:17Z</time>
      </trkpt>
      <trkpt lat="50.01335" lon="5.40759">
        <ele>406</ele>
        <time>2013-09-08T07:49:23Z</time>
      </trkpt>
      <trkpt lat="50.01329" lon="5.40756">
        <ele>406</ele>
        <time>2013-09-08T07:49:28Z</time>
      </trkpt>
      <trkpt lat="50.01323" lon="5.40755">
        <ele>406</ele>
        <time>2013-09-08T07:49:34Z</time>
      </trkpt>
      <trkpt lat="50.01322" lon="5.40757">
        <ele>407</ele>
        <time>2013-09-08T07:49:40Z</time>
      </trkpt>
      <trkpt lat="50.01321" lon="5.40758">
        <ele>406</ele>
        <time>2013-09-08T07:49:45Z</time>
      </trkpt>
      <trkpt lat="50.01321" lon="5.40759">
        <ele>406</ele>
        <time>2013-09-08T07:49:51Z</time>
      </trkpt>
      <trkpt lat="50.0132" lon="5.4076">
        <ele>406</ele>
        <time>2013-09-08T07:49:56Z</time>
      </trkpt>
      <trkpt lat="50.01319" lon="5.40762">
        <ele>406</ele>
        <time>2013-09-08T07:50:02Z</time>
      </trkpt>
      <trkpt lat="50.01318" lon="5.40763">
        <ele>406</ele>
        <time>2013-09-08T07:50:07Z</time>
      </trkpt>
      <trkpt lat="50.01318" lon="5.40764">
        <ele>406</ele>
        <time>2013-09-08T07:50:13Z</time>
      </trkpt>
      <trkpt lat="50.01316" lon="5.40765">
        <ele>406</ele>
        <time>2013-09-08T07:50:18Z</time>
      </trkpt>
      <trkpt lat="50.01315" lon="5.40766">
        <ele>406</ele>
        <time>2013-09-08T07:50:23Z</time>
      </trkpt>
      <trkpt lat="50.01314" lon="5.40767">
        <ele>405</ele>
        <time>2013-09-08T07:50:28Z</time>
      </trkpt>
      <trkpt lat="50.01314" lon="5.40767">
        <ele>406</ele>
        <time>2013-09-08T07:50:33Z</time>
      </trkpt>
      <trkpt lat="50.01315" lon="5.40767">
        <ele>406</ele>
        <time>2013-09-08T07:50:39Z</time>
      </trkpt>
      <trkpt lat="50.01316" lon="5.40767">
        <ele>406</ele>
        <time>2013-09-08T07:50:44Z</time>
      </trkpt>
      <trkpt lat="50.01316" lon="5.40767">
        <ele>406</ele>
        <time>2013-09-08T07:50:50Z</time>
      </trkpt>
      <trkpt lat="50.01317" lon="5.40767">
        <ele>406</ele>
        <time>2013-09-08T07:50:55Z</time>
      </trkpt>
      <trkpt lat="50.01318" lon="5.40768">
        <ele>406</ele>
        <time>2013-09-08T07:51:01Z</time>
      </trkpt>
      <trkpt lat="50.01317" lon="5.40768">
        <ele>406</ele>
        <time>2013-09-08T07:51:06Z</time>
      </trkpt>
      <trkpt lat="50.01316" lon="5.40769">
        <ele>406</ele>
        <time>2013-09-08T07:51:12Z</time>
      </trkpt>
      <trkpt lat="50.01316" lon="5.40769">
        <ele>406</ele>
        <time>2013-09-08T07:51:18Z</time>
      </trkpt>
      <trkpt lat="50.01316" lon="5.40769">
        <ele>406</ele>
        <time>2013-09-08T07:51:23Z</time>
      </trkpt>
      <trkpt lat="50.01316" lon="5.40769">
        <ele>406</ele>
        <time>2013-09-08T07:51:29Z</time>
      </trkpt>
      <trkpt lat="50.01318" lon="5.40769">
        <ele>406</ele>
        <time>2013-09-08T07:51:34Z</time>
      </trkpt>
      <trkpt lat="50.01319" lon="5.40769">
        <ele>406</ele>
        <time>2013-09-08T07:51:39Z</time>
      </trkpt>
      <trkpt lat="50.0132" lon="5.40769">
        <ele>406</ele>
        <time>2013-09-08T07:51:45Z</time>
      </trkpt>
      <trkpt lat="50.0132" lon="5.40769">
        <ele>406</ele>
        <time>2013-09-08T07:51:50Z</time>
      </trkpt>
      <trkpt lat="50.0132" lon="5.40767">
        <ele>406</ele>
        <time>2013-09-08T07:51:56Z</time>
      </trkpt>
      <trkpt lat="50.0132" lon="5.40765">
        <ele>406</ele>
        <time>2013-09-08T07:52:02Z</time>
      </trkpt>
      <trkpt lat="50.01318" lon="5.40765">
        <ele>405</ele>
        <time>2013-09-08T07:52:07Z</time>
      </trkpt>
      <trkpt lat="50.01317" lon="5.40766">
        <ele>405</ele>
        <time>2013-09-08T07:52:13Z</time>
      </trkpt>
      <trkpt lat="50.01318" lon="5.40765">
        <ele>405</ele>
        <time>2013-09-08T07:52:19Z</time>
      </trkpt>
      <trkpt lat="50.0132" lon="5.40765">
        <ele>406</ele>
        <time>2013-09-08T07:52:25Z</time>
      </trkpt>
      <trkpt lat="50.01322" lon="5.40764">
        <ele>406</ele>
        <time>2013-09-08T07:52:31Z</time>
      </trkpt>
      <trkpt lat="50.01322" lon="5.40764">
        <ele>406</ele>
        <time>2013-09-08T07:52:37Z</time>
      </trkpt>
      <trkpt lat="50.01324" lon="5.40764">
        <ele>405</ele>
        <time>2013-09-08T07:52:42Z</time>
      </trkpt>
      <trkpt lat="50.01325" lon="5.40761">
        <ele>406</ele>
        <time>2013-09-08T07:52:47Z</time>
      </trkpt>
      <trkpt lat="50.01323" lon="5.4076">
        <ele>406</ele>
        <time>2013-09-08T07:52:53Z</time>
      </trkpt>
      <trkpt lat="50.01323" lon="5.40761">
        <ele>406</ele>
        <time>2013-09-08T07:52:59Z</time>
      </trkpt>
      <trkpt lat="50.01324" lon="5.4076">
        <ele>406</ele>
        <time>2013-09-08T07:53:05Z</time>
      </trkpt>
      <trkpt lat="50.01325" lon="5.40758">
        <ele>406</ele>
        <time>2013-09-08T07:53:10Z</time>
      </trkpt>
      <trkpt lat="50.01323" lon="5.40756">
        <ele>406</ele>
        <time>2013-09-08T07:53:16Z</time>
      </trkpt>
      <trkpt lat="50.01323" lon="5.40755">
        <ele>406</ele>
        <time>2013-09-08T07:53:22Z</time>
      </trkpt>
      <trkpt lat="50.01321" lon="5.40754">
        <ele>406</ele>
        <time>2013-09-08T07:53:27Z</time>
      </trkpt>
      <trkpt lat="50.01321" lon="5.40755">
        <ele>406</ele>
        <time>2013-09-08T07:53:32Z</time>
      </trkpt>
      <trkpt lat="50.0132" lon="5.40755">
        <ele>406</ele>
        <time>2013-09-08T07:53:38Z</time>
      </trkpt>
      <trkpt lat="50.01322" lon="5.40757">
        <ele>405</ele>
        <time>2013-09-08T07:53:43Z</time>
      </trkpt>
      <trkpt lat="50.01326" lon="5.40759">
        <ele>406</ele>
        <time>2013-09-08T07:53:49Z</time>
      </trkpt>
      <trkpt lat="50.01322" lon="5.40758">
        <ele>406</ele>
        <time>2013-09-08T07:53:55Z</time>
      </trkpt>
      <trkpt lat="50.01317" lon="5.40756">
        <ele>405</ele>
        <time>2013-09-08T07:54:01Z</time>
      </trkpt>
      <trkpt lat="50.0132" lon="5.40759">
        <ele>405</ele>
        <time>2013-09-08T07:54:07Z</time>
      </trkpt>
      <trkpt lat="50.01322" lon="5.4076">
        <ele>405</ele>
        <time>2013-09-08T07:54:12Z</time>
      </trkpt>
      <trkpt lat="50.01323" lon="5.4076">
        <ele>405</ele>
        <time>2013-09-08T07:54:18Z</time>
      </trkpt>
      <trkpt lat="50.01321" lon="5.40762">
        <ele>406</ele>
        <time>2013-09-08T07:54:23Z</time>
      </trkpt>
      <trkpt lat="50.0132" lon="5.40761">
        <ele>406</ele>
        <time>2013-09-08T07:54:29Z</time>
      </trkpt>
      <trkpt lat="50.01319" lon="5.4076">
        <ele>406</ele>
        <time>2013-09-08T07:54:34Z</time>
      </trkpt>
      <trkpt lat="50.01319" lon="5.4076">
        <ele>405</ele>
        <time>2013-09-08T07:54:40Z</time>
      </trkpt>
      <trkpt lat="50.01318" lon="5.4076">
        <ele>406</ele>
        <time>2013-09-08T07:54:45Z</time>
      </trkpt>
      <trkpt lat="50.01323" lon="5.4076">
        <ele>407</ele>
        <time>2013-09-08T07:54:50Z</time>
      </trkpt>
      <trkpt lat="50.01322" lon="5.4076">
        <ele>407</ele>
        <time>2013-09-08T07:54:55Z</time>
      </trkpt>
      <trkpt lat="50.01322" lon="5.40759">
        <ele>407</ele>
        <time>2013-09-08T07:55:01Z</time>
      </trkpt>
      <trkpt lat="50.01321" lon="5.40758">
        <ele>406</ele>
        <time>2013-09-08T07:55:06Z</time>
      </trkpt>
      <trkpt lat="50.0132" lon="5.40756">
        <ele>406</ele>
        <time>2013-09-08T07:55:11Z</time>
      </trkpt>
      <trkpt lat="50.01319" lon="5.40756">
        <ele>406</ele>
        <time>2013-09-08T07:55:17Z</time>
      </trkpt>
      <trkpt lat="50.01318" lon="5.40754">
        <ele>406</ele>
        <time>2013-09-08T07:55:22Z</time>
      </trkpt>
      <trkpt lat="50.01322" lon="5.40751">
        <ele>406</ele>
        <time>2013-09-08T07:55:28Z</time>
      </trkpt>
      <trkpt lat="50.01326" lon="5.40755">
        <ele>407</ele>
        <time>2013-09-08T07:55:34Z</time>
      </trkpt>
      <trkpt lat="50.01331" lon="5.40759">
        <ele>406</ele>
        <time>2013-09-08T07:55:40Z</time>
      </trkpt>
      <trkpt lat="50.01336" lon="5.40763">
        <ele>406</ele>
        <time>2013-09-08T07:55:46Z</time>
      </trkpt>
      <trkpt lat="50.01342" lon="5.40764">
        <ele>406</ele>
        <time>2013-09-08T07:55:51Z</time>
      </trkpt>
      <trkpt lat="50.0135" lon="5.40761">
        <ele>406</ele>
        <time>2013-09-08T07:55:57Z</time>
      </trkpt>
      <trkpt lat="50.01355" lon="5.40756">
        <ele>406</ele>
        <time>2013-09-08T07:56:02Z</time>
      </trkpt>
      <trkpt lat="50.01358" lon="5.40746">
        <ele>406</ele>
        <time>2013-09-08T07:56:08Z</time>
      </trkpt>
      <trkpt lat="50.01361" lon="5.40737">
        <ele>406</ele>
        <time>2013-09-08T07:56:13Z</time>
      </trkpt>
      <trkpt lat="50.01363" lon="5.40725">
        <ele>407</ele>
        <time>2013-09-08T07:56:19Z</time>
      </trkpt>
      <trkpt lat="50.01364" lon="5.40716">
        <ele>406</ele>
        <time>2013-09-08T07:56:24Z</time>
      </trkpt>
      <trkpt lat="50.01366" lon="5.40707">
        <ele>406</ele>
        <time>2013-09-08T07:56:30Z</time>
      </trkpt>
      <trkpt lat="50.01365" lon="5.40697">
        <ele>407</ele>
        <time>2013-09-08T07:56:35Z</time>
      </trkpt>
      <trkpt lat="50.01365" lon="5.40686">
        <ele>407</ele>
        <time>2013-09-08T07:56:40Z</time>
      </trkpt>
      <trkpt lat="50.01367" lon="5.40674">
        <ele>407</ele>
        <time>2013-09-08T07:56:46Z</time>
      </trkpt>
      <trkpt lat="50.01367" lon="5.40665">
        <ele>407</ele>
        <time>2013-09-08T07:56:51Z</time>
      </trkpt>
      <trkpt lat="50.01369" lon="5.40653">
        <ele>407</ele>
        <time>2013-09-08T07:56:57Z</time>
      </trkpt>
      <trkpt lat="50.0137" lon="5.40642">
        <ele>406</ele>
        <time>2013-09-08T07:57:03Z</time>
      </trkpt>
      <trkpt lat="50.01369" lon="5.4063">
        <ele>406</ele>
        <time>2013-09-08T07:57:09Z</time>
      </trkpt>
      <trkpt lat="50.01369" lon="5.40618">
        <ele>407</ele>
        <time>2013-09-08T07:57:15Z</time>
      </trkpt>
      <trkpt lat="50.01369" lon="5.40609">
        <ele>407</ele>
        <time>2013-09-08T07:57:20Z</time>
      </trkpt>
      <trkpt lat="50.01369" lon="5.406">
        <ele>407</ele>
        <time>2013-09-08T07:57:25Z</time>
      </trkpt>
      <trkpt lat="50.01369" lon="5.40591">
        <ele>407</ele>
        <time>2013-09-08T07:57:30Z</time>
      </trkpt>
      <trkpt lat="50.0137" lon="5.40582">
        <ele>407</ele>
        <time>2013-09-08T07:57:35Z</time>
      </trkpt>
      <trkpt lat="50.01372" lon="5.40572">
        <ele>407</ele>
        <time>2013-09-08T07:57:41Z</time>
      </trkpt>
      <trkpt lat="50.01376" lon="5.40565">
        <ele>407</ele>
        <time>2013-09-08T07:57:46Z</time>
      </trkpt>
      <trkpt lat="50.0138" lon="5.40558">
        <ele>407</ele>
        <time>2013-09-08T07:57:52Z</time>
      </trkpt>
      <trkpt lat="50.01384" lon="5.40553">
        <ele>407</ele>
        <time>2013-09-08T07:57:57Z</time>
      </trkpt>
      <trkpt lat="50.01388" lon="5.4055">
        <ele>408</ele>
        <time>2013-09-08T07:58:03Z</time>
      </trkpt>
      <trkpt lat="50.01392" lon="5.40548">
        <ele>407</ele>
        <time>2013-09-08T07:58:09Z</time>
      </trkpt>
      <trkpt lat="50.01394" lon="5.40547">
        <ele>408</ele>
        <time>2013-09-08T07:58:14Z</time>
      </trkpt>
      <trkpt lat="50.01395" lon="5.40544">
        <ele>408</ele>
        <time>2013-09-08T07:58:20Z</time>
      </trkpt>
      <trkpt lat="50.01396" lon="5.40543">
        <ele>408</ele>
        <time>2013-09-08T07:58:25Z</time>
      </trkpt>
      <trkpt lat="50.01399" lon="5.40539">
        <ele>408</ele>
        <time>2013-09-08T07:58:30Z</time>
      </trkpt>
      <trkpt lat="50.01401" lon="5.40536">
        <ele>408</ele>
        <time>2013-09-08T07:58:36Z</time>
      </trkpt>
      <trkpt lat="50.01403" lon="5.40534">
        <ele>409</ele>
        <time>2013-09-08T07:58:41Z</time>
      </trkpt>
      <trkpt lat="50.01408" lon="5.40534">
        <ele>409</ele>
        <time>2013-09-08T07:58:46Z</time>
      </trkpt>
      <trkpt lat="50.01412" lon="5.40533">
        <ele>409</ele>
        <time>2013-09-08T07:58:51Z</time>
      </trkpt>
      <trkpt lat="50.01416" lon="5.40531">
        <ele>410</ele>
        <time>2013-09-08T07:58:56Z</time>
      </trkpt>
      <trkpt lat="50.01421" lon="5.40528">
        <ele>410</ele>
        <time>2013-09-08T07:59:02Z</time>
      </trkpt>
      <trkpt lat="50.0143" lon="5.40524">
        <ele>410</ele>
        <time>2013-09-08T07:59:07Z</time>
      </trkpt>
      <trkpt lat="50.01436" lon="5.40522">
        <ele>410</ele>
        <time>2013-09-08T07:59:12Z</time>
      </trkpt>
      <trkpt lat="50.01443" lon="5.40519">
        <ele>411</ele>
        <time>2013-09-08T07:59:17Z</time>
      </trkpt>
      <trkpt lat="50.01451" lon="5.40516">
        <ele>412</ele>
        <time>2013-09-08T07:59:23Z</time>
      </trkpt>
      <trkpt lat="50.01456" lon="5.40511">
        <ele>412</ele>
        <time>2013-09-08T07:59:29Z</time>
      </trkpt>
      <trkpt lat="50.01464" lon="5.40503">
        <ele>413</ele>
        <time>2013-09-08T07:59:34Z</time>
      </trkpt>
      <trkpt lat="50.01469" lon="5.40494">
        <ele>413</ele>
        <time>2013-09-08T07:59:39Z</time>
      </trkpt>
      <trkpt lat="50.01474" lon="5.40484">
        <ele>413</ele>
        <time>2013-09-08T07:59:45Z</time>
      </trkpt>
      <trkpt lat="50.01478" lon="5.40474">
        <ele>414</ele>
        <time>2013-09-08T07:59:51Z</time>
      </trkpt>
      <trkpt lat="50.01482" lon="5.40463">
        <ele>414</ele>
        <time>2013-09-08T07:59:57Z</time>
      </trkpt>
      <trkpt lat="50.01484" lon="5.40453">
        <ele>414</ele>
        <time>2013-09-08T08:00:03Z</time>
      </trkpt>
      <trkpt lat="50.01487" lon="5.40441">
        <ele>414</ele>
        <time>2013-09-08T08:00:08Z</time>
      </trkpt>
      <trkpt lat="50.01487" lon="5.40437">
        <ele>415</ele>
        <time>2013-09-08T08:00:13Z</time>
      </trkpt>
      <trkpt lat="50.01486" lon="5.40436">
        <ele>415</ele>
        <time>2013-09-08T08:00:18Z</time>
      </trkpt>
      <trkpt lat="50.01487" lon="5.40427">
        <ele>415</ele>
        <time>2013-09-08T08:00:24Z</time>
      </trkpt>
      <trkpt lat="50.01488" lon="5.40424">
        <ele>415</ele>
        <time>2013-09-08T08:00:30Z</time>
      </trkpt>
      <trkpt lat="50.01489" lon="5.40422">
        <ele>416</ele>
        <time>2013-09-08T08:00:35Z</time>
      </trkpt>
      <trkpt lat="50.01491" lon="5.40416">
        <ele>415</ele>
        <time>2013-09-08T08:00:41Z</time>
      </trkpt>
      <trkpt lat="50.01492" lon="5.40405">
        <ele>416</ele>
        <time>2013-09-08T08:00:46Z</time>
      </trkpt>
      <trkpt lat="50.01494" lon="5.40401">
        <ele>416</ele>
        <time>2013-09-08T08:00:51Z</time>
      </trkpt>
      <trkpt lat="50.01493" lon="5.404">
        <ele>416</ele>
        <time>2013-09-08T08:00:56Z</time>
      </trkpt>
      <trkpt lat="50.01491" lon="5.404">
        <ele>417</ele>
        <time>2013-09-08T08:01:02Z</time>
      </trkpt>
      <trkpt lat="50.01489" lon="5.404">
        <ele>417</ele>
        <time>2013-09-08T08:01:07Z</time>
      </trkpt>
      <trkpt lat="50.01488" lon="5.40401">
        <ele>417</ele>
        <time>2013-09-08T08:01:13Z</time>
      </trkpt>
      <trkpt lat="50.01487" lon="5.40402">
        <ele>417</ele>
        <time>2013-09-08T08:01:20Z</time>
      </trkpt>
      <trkpt lat="50.01489" lon="5.40401">
        <ele>417</ele>
        <time>2013-09-08T08:01:25Z</time>
      </trkpt>
      <trkpt lat="50.01492" lon="5.40397">
        <ele>417</ele>
        <time>2013-09-08T08:01:30Z</time>
      </trkpt>
      <trkpt lat="50.01495" lon="5.40392">
        <ele>418</ele>
        <time>2013-09-08T08:01:35Z</time>
      </trkpt>
      <trkpt lat="50.01499" lon="5.40384">
        <ele>418</ele>
        <time>2013-09-08T08:01:41Z</time>
      </trkpt>
      <trkpt lat="50.01503" lon="5.40378">
        <ele>419</ele>
        <time>2013-09-08T08:01:46Z</time>
      </trkpt>
      <trkpt lat="50.01508" lon="5.4037">
        <ele>419</ele>
        <time>2013-09-08T08:01:52Z</time>
      </trkpt>
      <trkpt lat="50.01511" lon="5.40363">
        <ele>420</ele>
        <time>2013-09-08T08:01:58Z</time>
      </trkpt>
      <trkpt lat="50.01514" lon="5.40358">
        <ele>421</ele>
        <time>2013-09-08T08:02:03Z</time>
      </trkpt>
      <trkpt lat="50.01519" lon="5.40349">
        <ele>421</ele>
        <time>2013-09-08T08:02:09Z</time>
      </trkpt>
      <trkpt lat="50.01522" lon="5.40344">
        <ele>422</ele>
        <time>2013-09-08T08:02:14Z</time>
      </trkpt>
      <trkpt lat="50.01526" lon="5.40338">
        <ele>422</ele>
        <time>2013-09-08T08:02:20Z</time>
      </trkpt>
      <trkpt lat="50.01531" lon="5.40332">
        <ele>423</ele>
        <time>2013-09-08T08:02:26Z</time>
      </trkpt>
      <trkpt lat="50.01534" lon="5.40329">
        <ele>424</ele>
        <time>2013-09-08T08:02:32Z</time>
      </trkpt>
      <trkpt lat="50.01537" lon="5.40323">
        <ele>424</ele>
        <time>2013-09-08T08:02:37Z</time>
      </trkpt>
      <trkpt lat="50.0154" lon="5.40316">
        <ele>424</ele>
        <time>2013-09-08T08:02:43Z</time>
      </trkpt>
      <trkpt lat="50.0154" lon="5.40313">
        <ele>425</ele>
        <time>2013-09-08T08:02:49Z</time>
      </trkpt>
      <trkpt lat="50.0154" lon="5.40312">
        <ele>425</ele>
        <time>2013-09-08T08:02:54Z</time>
      </trkpt>
      <trkpt lat="50.0154" lon="5.40308">
        <ele>425</ele>
        <time>2013-09-08T08:02:59Z</time>
      </trkpt>
      <trkpt lat="50.01543" lon="5.40301">
        <ele>426</ele>
        <time>2013-09-08T08:03:04Z</time>
      </trkpt>
      <trkpt lat="50.01546" lon="5.40295">
        <ele>426</ele>
        <time>2013-09-08T08:03:10Z</time>
      </trkpt>
      <trkpt lat="50.01548" lon="5.40289">
        <ele>427</ele>
        <time>2013-09-08T08:03:15Z</time>
      </trkpt>
      <trkpt lat="50.0155" lon="5.4028">
        <ele>428</ele>
        <time>2013-09-08T08:03:21Z</time>
      </trkpt>
      <trkpt lat="50.0155" lon="5.40271">
        <ele>428</ele>
        <time>2013-09-08T08:03:27Z</time>
      </trkpt>
      <trkpt lat="50.01551" lon="5.40264">
        <ele>429</ele>
        <time>2013-09-08T08:03:32Z</time>
      </trkpt>
      <trkpt lat="50.01553" lon="5.40255">
        <ele>430</ele>
        <time>2013-09-08T08:03:38Z</time>
      </trkpt>
      <trkpt lat="50.01556" lon="5.40246">
        <ele>430</ele>
        <time>2013-09-08T08:03:43Z</time>
      </trkpt>
      <trkpt lat="50.01558" lon="5.40238">
        <ele>430</ele>
        <time>2013-09-08T08:03:48Z</time>
      </trkpt>
      <trkpt lat="50.01561" lon="5.40229">
        <ele>430</ele>
        <time>2013-09-08T08:03:54Z</time>
      </trkpt>
      <trkpt lat="50.01565" lon="5.40223">
        <ele>431</ele>
        <time>2013-09-08T08:04:00Z</time>
      </trkpt>
      <trkpt lat="50.01568" lon="5.4022">
        <ele>431</ele>
        <time>2013-09-08T08:04:05Z</time>
      </trkpt>
      <trkpt lat="50.01569" lon="5.40216">
        <ele>431</ele>
        <time>2013-09-08T08:04:11Z</time>
      </trkpt>
      <trkpt lat="50.01571" lon="5.4021">
        <ele>432</ele>
        <time>2013-09-08T08:04:16Z</time>
      </trkpt>
      <trkpt lat="50.01573" lon="5.40204">
        <ele>432</ele>
        <time>2013-09-08T08:04:21Z</time>
      </trkpt>
      <trkpt lat="50.01574" lon="5.40198">
        <ele>432</ele>
        <time>2013-09-08T08:04:27Z</time>
      </trkpt>
      <trkpt lat="50.01578" lon="5.40191">
        <ele>433</ele>
        <time>2013-09-08T08:04:32Z</time>
      </trkpt>
      <trkpt lat="50.0158" lon="5.40182">
        <ele>433</ele>
        <time>2013-09-08T08:04:37Z</time>
      </trkpt>
      <trkpt lat="50.01583" lon="5.40173">
        <ele>434</ele>
        <time>2013-09-08T08:04:43Z</time>
      </trkpt>
      <trkpt lat="50.01585" lon="5.40164">
        <ele>435</ele>
        <time>2013-09-08T08:04:49Z</time>
      </trkpt>
      <trkpt lat="50.01587" lon="5.40156">
        <ele>434</ele>
        <time>2013-09-08T08:04:55Z</time>
      </trkpt>
      <trkpt lat="50.01588" lon="5.40149">
        <ele>434</ele>
        <time>2013-09-08T08:05:00Z</time>
      </trkpt>
      <trkpt lat="50.0159" lon="5.40148">
        <ele>435</ele>
        <time>2013-09-08T08:05:06Z</time>
      </trkpt>
      <trkpt lat="50.01593" lon="5.40144">
        <ele>435</ele>
        <time>2013-09-08T08:05:11Z</time>
      </trkpt>
      <trkpt lat="50.01598" lon="5.4014">
        <ele>435</ele>
        <time>2013-09-08T08:05:17Z</time>
      </trkpt>
      <trkpt lat="50.016" lon="5.40136">
        <ele>435</ele>
        <time>2013-09-08T08:05:22Z</time>
      </trkpt>
      <trkpt lat="50.01602" lon="5.40132">
        <ele>435</ele>
        <time>2013-09-08T08:05:27Z</time>
      </trkpt>
      <trkpt lat="50.01604" lon="5.40127">
        <ele>435</ele>
        <time>2013-09-08T08:05:33Z</time>
      </trkpt>
      <trkpt lat="50.01605" lon="5.40121">
        <ele>436</ele>
        <time>2013-09-08T08:05:38Z</time>
      </trkpt>
      <trkpt lat="50.01606" lon="5.40115">
        <ele>437</ele>
        <time>2013-09-08T08:05:43Z</time>
      </trkpt>
      <trkpt lat="50.01607" lon="5.40108">
        <ele>437</ele>
        <time>2013-09-08T08:05:48Z</time>
      </trkpt>
      <trkpt lat="50.01608" lon="5.40099">
        <ele>437</ele>
        <time>2013-09-08T08:05:54Z</time>
      </trkpt>
      <trkpt lat="50.01607" lon="5.4009">
        <ele>438</ele>
        <time>2013-09-08T08:06:00Z</time>
      </trkpt>
      <trkpt lat="50.01609" lon="5.40081">
        <ele>439</ele>
        <time>2013-09-08T08:06:06Z</time>
      </trkpt>
      <trkpt lat="50.01611" lon="5.40072">
        <ele>438</ele>
        <time>2013-09-08T08:06:11Z</time>
      </trkpt>
      <trkpt lat="50.01613" lon="5.4006">
        <ele>439</ele>
        <time>2013-09-08T08:06:17Z</time>
      </trkpt>
      <trkpt lat="50.01615" lon="5.40051">
        <ele>439</ele>
        <time>2013-09-08T08:06:22Z</time>
      </trkpt>
      <trkpt lat="50.01617" lon="5.40046">
        <ele>439</ele>
        <time>2013-09-08T08:06:27Z</time>
      </trkpt>
      <trkpt lat="50.01619" lon="5.40037">
        <ele>439</ele>
        <time>2013-09-08T08:06:33Z</time>
      </trkpt>
      <trkpt lat="50.01621" lon="5.40029">
        <ele>440</ele>
        <time>2013-09-08T08:06:39Z</time>
      </trkpt>
      <trkpt lat="50.01624" lon="5.40019">
        <ele>440</ele>
        <time>2013-09-08T08:06:44Z</time>
      </trkpt>
      <trkpt lat="50.01627" lon="5.40009">
        <ele>440</ele>
        <time>2013-09-08T08:06:50Z</time>
      </trkpt>
      <trkpt lat="50.01628" lon="5.40001">
        <ele>441</ele>
        <time>2013-09-08T08:06:56Z</time>
      </trkpt>
      <trkpt lat="50.01631" lon="5.39994">
        <ele>441</ele>
        <time>2013-09-08T08:07:01Z</time>
      </trkpt>
      <trkpt lat="50.01632" lon="5.39985">
        <ele>441</ele>
        <time>2013-09-08T08:07:06Z</time>
      </trkpt>
      <trkpt lat="50.01633" lon="5.39976">
        <ele>440</ele>
        <time>2013-09-08T08:07:11Z</time>
      </trkpt>
      <trkpt lat="50.01635" lon="5.39966">
        <ele>441</ele>
        <time>2013-09-08T08:07:17Z</time>
      </trkpt>
      <trkpt lat="50.01636" lon="5.39954">
        <ele>442</ele>
        <time>2013-09-08T08:07:23Z</time>
      </trkpt>
      <trkpt lat="50.01637" lon="5.39944">
        <ele>442</ele>
        <time>2013-09-08T08:07:29Z</time>
      </trkpt>
      <trkpt lat="50.01639" lon="5.39935">
        <ele>442</ele>
        <time>2013-09-08T08:07:34Z</time>
      </trkpt>
      <trkpt lat="50.0164" lon="5.39925">
        <ele>442</ele>
        <time>2013-09-08T08:07:40Z</time>
      </trkpt>
      <trkpt lat="50.01644" lon="5.3992">
        <ele>442</ele>
        <time>2013-09-08T08:07:45Z</time>
      </trkpt>
      <trkpt lat="50.01646" lon="5.39917">
        <ele>442</ele>
        <time>2013-09-08T08:07:51Z</time>
      </trkpt>
      <trkpt lat="50.01648" lon="5.39915">
        <ele>442</ele>
        <time>2013-09-08T08:07:56Z</time>
      </trkpt>
      <trkpt lat="50.01651" lon="5.39919">
        <ele>443</ele>
        <time>2013-09-08T08:08:02Z</time>
      </trkpt>
      <trkpt lat="50.01653" lon="5.39921">
        <ele>443</ele>
        <time>2013-09-08T08:08:07Z</time>
      </trkpt>
      <trkpt lat="50.01652" lon="5.39918">
        <ele>442</ele>
        <time>2013-09-08T08:08:12Z</time>
      </trkpt>
      <trkpt lat="50.01653" lon="5.39912">
        <ele>442</ele>
        <time>2013-09-08T08:08:18Z</time>
      </trkpt>
      <trkpt lat="50.01654" lon="5.39904">
        <ele>443</ele>
        <time>2013-09-08T08:08:23Z</time>
      </trkpt>
      <trkpt lat="50.01653" lon="5.39895">
        <ele>443</ele>
        <time>2013-09-08T08:08:29Z</time>
      </trkpt>
      <trkpt lat="50.01653" lon="5.39887">
        <ele>443</ele>
        <time>2013-09-08T08:08:34Z</time>
      </trkpt>
      <trkpt lat="50.01654" lon="5.39877">
        <ele>443</ele>
        <time>2013-09-08T08:08:40Z</time>
      </trkpt>
      <trkpt lat="50.01656" lon="5.39869">
        <ele>444</ele>
        <time>2013-09-08T08:08:45Z</time>
      </trkpt>
      <trkpt lat="50.01653" lon="5.39862">
        <ele>444</ele>
        <time>2013-09-08T08:08:51Z</time>
      </trkpt>
      <trkpt lat="50.01652" lon="5.39858">
        <ele>443</ele>
        <time>2013-09-08T08:08:57Z</time>
      </trkpt>
      <trkpt lat="50.01651" lon="5.39853">
        <ele>443</ele>
        <time>2013-09-08T08:09:03Z</time>
      </trkpt>
      <trkpt lat="50.0165" lon="5.39847">
        <ele>443</ele>
        <time>2013-09-08T08:09:09Z</time>
      </trkpt>
      <trkpt lat="50.01653" lon="5.39843">
        <ele>443</ele>
        <time>2013-09-08T08:09:15Z</time>
      </trkpt>
      <trkpt lat="50.01657" lon="5.39843">
        <ele>443</ele>
        <time>2013-09-08T08:09:20Z</time>
      </trkpt>
      <trkpt lat="50.01661" lon="5.39838">
        <ele>443</ele>
        <time>2013-09-08T08:09:26Z</time>
      </trkpt>
      <trkpt lat="50.01662" lon="5.39836">
        <ele>443</ele>
        <time>2013-09-08T08:09:31Z</time>
      </trkpt>
      <trkpt lat="50.01664" lon="5.39836">
        <ele>443</ele>
        <time>2013-09-08T08:09:37Z</time>
      </trkpt>
      <trkpt lat="50.01665" lon="5.39836">
        <ele>443</ele>
        <time>2013-09-08T08:09:42Z</time>
      </trkpt>
      <trkpt lat="50.01673" lon="5.39833">
        <ele>443</ele>
        <time>2013-09-08T08:09:48Z</time>
      </trkpt>
      <trkpt lat="50.01672" lon="5.39829">
        <ele>443</ele>
        <time>2013-09-08T08:09:54Z</time>
      </trkpt>
      <trkpt lat="50.01669" lon="5.39829">
        <ele>444</ele>
        <time>2013-09-08T08:09:59Z</time>
      </trkpt>
      <trkpt lat="50.01667" lon="5.3983">
        <ele>444</ele>
        <time>2013-09-08T08:10:05Z</time>
      </trkpt>
      <trkpt lat="50.01662" lon="5.39836">
        <ele>443</ele>
        <time>2013-09-08T08:10:11Z</time>
      </trkpt>
      <trkpt lat="50.01656" lon="5.3984">
        <ele>443</ele>
        <time>2013-09-08T08:10:17Z</time>
      </trkpt>
      <trkpt lat="50.01656" lon="5.39842">
        <ele>443</ele>
        <time>2013-09-08T08:10:23Z</time>
      </trkpt>
      <trkpt lat="50.01657" lon="5.39841">
        <ele>443</ele>
        <time>2013-09-08T08:10:29Z</time>
      </trkpt>
      <trkpt lat="50.01657" lon="5.39837">
        <ele>444</ele>
        <time>2013-09-08T08:10:35Z</time>
      </trkpt>
      <trkpt lat="50.01657" lon="5.39835">
        <ele>444</ele>
        <time>2013-09-08T08:10:40Z</time>
      </trkpt>
      <trkpt lat="50.01658" lon="5.39831">
        <ele>443</ele>
        <time>2013-09-08T08:10:46Z</time>
      </trkpt>
      <trkpt lat="50.01658" lon="5.39827">
        <ele>444</ele>
        <time>2013-09-08T08:10:52Z</time>
      </trkpt>
      <trkpt lat="50.01661" lon="5.39821">
        <ele>444</ele>
        <time>2013-09-08T08:10:57Z</time>
      </trkpt>
      <trkpt lat="50.01661" lon="5.39813">
        <ele>444</ele>
        <time>2013-09-08T08:11:03Z</time>
      </trkpt>
      <trkpt lat="50.01659" lon="5.39811">
        <ele>444</ele>
        <time>2013-09-08T08:11:09Z</time>
      </trkpt>
      <trkpt lat="50.01659" lon="5.39802">
        <ele>444</ele>
        <time>2013-09-08T08:11:15Z</time>
      </trkpt>
      <trkpt lat="50.0166" lon="5.39794">
        <ele>445</ele>
        <time>2013-09-08T08:11:21Z</time>
      </trkpt>
      <trkpt lat="50.01662" lon="5.39786">
        <ele>445</ele>
        <time>2013-09-08T08:11:27Z</time>
      </trkpt>
      <trkpt lat="50.01665" lon="5.39777">
        <ele>445</ele>
        <time>2013-09-08T08:11:33Z</time>
      </trkpt>
      <trkpt lat="50.01667" lon="5.39769">
        <ele>445</ele>
        <time>2013-09-08T08:11:38Z</time>
      </trkpt>
      <trkpt lat="50.01668" lon="5.39761">
        <ele>445</ele>
        <time>2013-09-08T08:11:44Z</time>
      </trkpt>
      <trkpt lat="50.0167" lon="5.39753">
        <ele>445</ele>
        <time>2013-09-08T08:11:49Z</time>
      </trkpt>
      <trkpt lat="50.01672" lon="5.39746">
        <ele>446</ele>
        <time>2013-09-08T08:11:55Z</time>
      </trkpt>
      <trkpt lat="50.01674" lon="5.39736">
        <ele>446</ele>
        <time>2013-09-08T08:12:00Z</time>
      </trkpt>
      <trkpt lat="50.01676" lon="5.39729">
        <ele>446</ele>
        <time>2013-09-08T08:12:05Z</time>
      </trkpt>
      <trkpt lat="50.0168" lon="5.39721">
        <ele>446</ele>
        <time>2013-09-08T08:12:11Z</time>
      </trkpt>
      <trkpt lat="50.01681" lon="5.39713">
        <ele>447</ele>
        <time>2013-09-08T08:12:17Z</time>
      </trkpt>
      <trkpt lat="50.01682" lon="5.39708">
        <ele>447</ele>
        <time>2013-09-08T08:12:22Z</time>
      </trkpt>
      <trkpt lat="50.01686" lon="5.39698">
        <ele>447</ele>
        <time>2013-09-08T08:12:28Z</time>
      </trkpt>
      <trkpt lat="50.01689" lon="5.3969">
        <ele>447</ele>
        <time>2013-09-08T08:12:33Z</time>
      </trkpt>
      <trkpt lat="50.01694" lon="5.39681">
        <ele>447</ele>
        <time>2013-09-08T08:12:39Z</time>
      </trkpt>
      <trkpt lat="50.01699" lon="5.39676">
        <ele>447</ele>
        <time>2013-09-08T08:12:44Z</time>
      </trkpt>
      <trkpt lat="50.017" lon="5.3967">
        <ele>447</ele>
        <time>2013-09-08T08:12:49Z</time>
      </trkpt>
      <trkpt lat="50.01704" lon="5.39663">
        <ele>447</ele>
        <time>2013-09-08T08:12:55Z</time>
      </trkpt>
      <trkpt lat="50.01709" lon="5.39656">
        <ele>447</ele>
        <time>2013-09-08T08:13:01Z</time>
      </trkpt>
      <trkpt lat="50.01712" lon="5.39649">
        <ele>447</ele>
        <time>2013-09-08T08:13:06Z</time>
      </trkpt>
      <trkpt lat="50.01717" lon="5.39641">
        <ele>446</ele>
        <time>2013-09-08T08:13:12Z</time>
      </trkpt>
      <trkpt lat="50.01722" lon="5.39634">
        <ele>446</ele>
        <time>2013-09-08T08:13:17Z</time>
      </trkpt>
      <trkpt lat="50.01727" lon="5.39625">
        <ele>446</ele>
        <time>2013-09-08T08:13:23Z</time>
      </trkpt>
      <trkpt lat="50.0173" lon="5.39618">
        <ele>447</ele>
        <time>2013-09-08T08:13:28Z</time>
      </trkpt>
      <trkpt lat="50.01735" lon="5.39607">
        <ele>446</ele>
        <time>2013-09-08T08:13:34Z</time>
      </trkpt>
      <trkpt lat="50.0174" lon="5.39603">
        <ele>446</ele>
        <time>2013-09-08T08:13:39Z</time>
      </trkpt>
      <trkpt lat="50.01744" lon="5.39595">
        <ele>446</ele>
        <time>2013-09-08T08:13:45Z</time>
      </trkpt>
      <trkpt lat="50.01748" lon="5.39587">
        <ele>445</ele>
        <time>2013-09-08T08:13:50Z</time>
      </trkpt>
      <trkpt lat="50.01753" lon="5.3958">
        <ele>446</ele>
        <time>2013-09-08T08:13:56Z</time>
      </trkpt>
      <trkpt lat="50.01757" lon="5.39571">
        <ele>446</ele>
        <time>2013-09-08T08:14:02Z</time>
      </trkpt>
      <trkpt lat="50.0176" lon="5.39561">
        <ele>446</ele>
        <time>2013-09-08T08:14:08Z</time>
      </trkpt>
      <trkpt lat="50.01764" lon="5.39552">
        <ele>445</ele>
        <time>2013-09-08T08:14:14Z</time>
      </trkpt>
      <trkpt lat="50.01766" lon="5.39545">
        <ele>445</ele>
        <time>2013-09-08T08:14:20Z</time>
      </trkpt>
      <trkpt lat="50.01769" lon="5.39538">
        <ele>445</ele>
        <time>2013-09-08T08:14:26Z</time>
      </trkpt>
      <trkpt lat="50.01771" lon="5.39533">
        <ele>444</ele>
        <time>2013-09-08T08:14:31Z</time>
      </trkpt>
      <trkpt lat="50.01775" lon="5.39527">
        <ele>444</ele>
        <time>2013-09-08T08:14:36Z</time>
      </trkpt>
      <trkpt lat="50.0178" lon="5.39517">
        <ele>444</ele>
        <time>2013-09-08T08:14:42Z</time>
      </trkpt>
      <trkpt lat="50.01784" lon="5.3951">
        <ele>444</ele>
        <time>2013-09-08T08:14:47Z</time>
      </trkpt>
      <trkpt lat="50.01785" lon="5.39506">
        <ele>443</ele>
        <time>2013-09-08T08:14:53Z</time>
      </trkpt>
      <trkpt lat="50.01786" lon="5.39505">
        <ele>444</ele>
        <time>2013-09-08T08:14:59Z</time>
      </trkpt>
      <trkpt lat="50.01789" lon="5.395">
        <ele>444</ele>
        <time>2013-09-08T08:15:04Z</time>
      </trkpt>
      <trkpt lat="50.01793" lon="5.39494">
        <ele>444</ele>
        <time>2013-09-08T08:15:09Z</time>
      </trkpt>
      <trkpt lat="50.01796" lon="5.39488">
        <ele>444</ele>
        <time>2013-09-08T08:15:15Z</time>
      </trkpt>
      <trkpt lat="50.01799" lon="5.39484">
        <ele>444</ele>
        <time>2013-09-08T08:15:21Z</time>
      </trkpt>
      <trkpt lat="50.01802" lon="5.39478">
        <ele>443</ele>
        <time>2013-09-08T08:15:26Z</time>
      </trkpt>
      <trkpt lat="50.01805" lon="5.39469">
        <ele>443</ele>
        <time>2013-09-08T08:15:32Z</time>
      </trkpt>
      <trkpt lat="50.01809" lon="5.39462">
        <ele>443</ele>
        <time>2013-09-08T08:15:37Z</time>
      </trkpt>
      <trkpt lat="50.01811" lon="5.39455">
        <ele>443</ele>
        <time>2013-09-08T08:15:42Z</time>
      </trkpt>
      <trkpt lat="50.01815" lon="5.39447">
        <ele>443</ele>
        <time>2013-09-08T08:15:48Z</time>
      </trkpt>
      <trkpt lat="50.01816" lon="5.39446">
        <ele>442</ele>
        <time>2013-09-08T08:15:53Z</time>
      </trkpt>
      <trkpt lat="50.01817" lon="5.39446">
        <ele>443</ele>
        <time>2013-09-08T08:15:59Z</time>
      </trkpt>
      <trkpt lat="50.01818" lon="5.39445">
        <ele>443</ele>
        <time>2013-09-08T08:16:06Z</time>
      </trkpt>
      <trkpt lat="50.01822" lon="5.39444">
        <ele>442</ele>
        <time>2013-09-08T08:16:12Z</time>
      </trkpt>
      <trkpt lat="50.01827" lon="5.39444">
        <ele>442</ele>
        <time>2013-09-08T08:16:17Z</time>
      </trkpt>
      <trkpt lat="50.01829" lon="5.39441">
        <ele>443</ele>
        <time>2013-09-08T08:16:23Z</time>
      </trkpt>
      <trkpt lat="50.01833" lon="5.39436">
        <ele>442</ele>
        <time>2013-09-08T08:16:29Z</time>
      </trkpt>
      <trkpt lat="50.01833" lon="5.3943">
        <ele>443</ele>
        <time>2013-09-08T08:16:34Z</time>
      </trkpt>
      <trkpt lat="50.01834" lon="5.39422">
        <ele>442</ele>
        <time>2013-09-08T08:16:40Z</time>
      </trkpt>
      <trkpt lat="50.01835" lon="5.39414">
        <ele>442</ele>
        <time>2013-09-08T08:16:45Z</time>
      </trkpt>
      <trkpt lat="50.01835" lon="5.39404">
        <ele>442</ele>
        <time>2013-09-08T08:16:51Z</time>
      </trkpt>
      <trkpt lat="50.01835" lon="5.39397">
        <ele>442</ele>
        <time>2013-09-08T08:16:56Z</time>
      </trkpt>
      <trkpt lat="50.01835" lon="5.39388">
        <ele>442</ele>
        <time>2013-09-08T08:17:01Z</time>
      </trkpt>
      <trkpt lat="50.01835" lon="5.39376">
        <ele>441</ele>
        <time>2013-09-08T08:17:07Z</time>
      </trkpt>
      <trkpt lat="50.01837" lon="5.39367">
        <ele>441</ele>
        <time>2013-09-08T08:17:13Z</time>
      </trkpt>
      <trkpt lat="50.01841" lon="5.39359">
        <ele>440</ele>
        <time>2013-09-08T08:17:19Z</time>
      </trkpt>
      <trkpt lat="50.01843" lon="5.39352">
        <ele>440</ele>
        <time>2013-09-08T08:17:24Z</time>
      </trkpt>
      <trkpt lat="50.01846" lon="5.39345">
        <ele>440</ele>
        <time>2013-09-08T08:17:29Z</time>
      </trkpt>
      <trkpt lat="50.01842" lon="5.39343">
        <ele>439</ele>
        <time>2013-09-08T08:17:35Z</time>
      </trkpt>
      <trkpt lat="50.01843" lon="5.39336">
        <ele>439</ele>
        <time>2013-09-08T08:17:41Z</time>
      </trkpt>
      <trkpt lat="50.01844" lon="5.3933">
        <ele>439</ele>
        <time>2013-09-08T08:17:47Z</time>
      </trkpt>
      <trkpt lat="50.01844" lon="5.39329">
        <ele>439</ele>
        <time>2013-09-08T08:17:52Z</time>
      </trkpt>
      <trkpt lat="50.01846" lon="5.39323">
        <ele>439</ele>
        <time>2013-09-08T08:17:57Z</time>
      </trkpt>
      <trkpt lat="50.01849" lon="5.39314">
        <ele>439</ele>
        <time>2013-09-08T08:18:03Z</time>
      </trkpt>
      <trkpt lat="50.01852" lon="5.39303">
        <ele>438</ele>
        <time>2013-09-08T08:18:09Z</time>
      </trkpt>
      <trkpt lat="50.01855" lon="5.39296">
        <ele>438</ele>
        <time>2013-09-08T08:18:14Z</time>
      </trkpt>
      <trkpt lat="50.01856" lon="5.39289">
        <ele>438</ele>
        <time>2013-09-08T08:18:19Z</time>
      </trkpt>
      <trkpt lat="50.01859" lon="5.39282">
        <ele>438</ele>
        <time>2013-09-08T08:18:25Z</time>
      </trkpt>
      <trkpt lat="50.0186" lon="5.39277">
        <ele>437</ele>
        <time>2013-09-08T08:18:30Z</time>
      </trkpt>
      <trkpt lat="50.01863" lon="5.39267">
        <ele>437</ele>
        <time>2013-09-08T08:18:36Z</time>
      </trkpt>
      <trkpt lat="50.01866" lon="5.39257">
        <ele>437</ele>
        <time>2013-09-08T08:18:42Z</time>
      </trkpt>
      <trkpt lat="50.01868" lon="5.39249">
        <ele>437</ele>
        <time>2013-09-08T08:18:47Z</time>
      </trkpt>
      <trkpt lat="50.01872" lon="5.39239">
        <ele>436</ele>
        <time>2013-09-08T08:18:53Z</time>
      </trkpt>
      <trkpt lat="50.01875" lon="5.39232">
        <ele>436</ele>
        <time>2013-09-08T08:18:59Z</time>
      </trkpt>
      <trkpt lat="50.01875" lon="5.3923">
        <ele>436</ele>
        <time>2013-09-08T08:19:05Z</time>
      </trkpt>
      <trkpt lat="50.01875" lon="5.39227">
        <ele>435</ele>
        <time>2013-09-08T08:19:11Z</time>
      </trkpt>
      <trkpt lat="50.01875" lon="5.39226">
        <ele>436</ele>
        <time>2013-09-08T08:19:16Z</time>
      </trkpt>
      <trkpt lat="50.01875" lon="5.39225">
        <ele>436</ele>
        <time>2013-09-08T08:19:23Z</time>
      </trkpt>
      <trkpt lat="50.01875" lon="5.39225">
        <ele>436</ele>
        <time>2013-09-08T08:19:28Z</time>
      </trkpt>
      <trkpt lat="50.01875" lon="5.39222">
        <ele>436</ele>
        <time>2013-09-08T08:19:33Z</time>
      </trkpt>
      <trkpt lat="50.01876" lon="5.39218">
        <ele>436</ele>
        <time>2013-09-08T08:19:39Z</time>
      </trkpt>
      <trkpt lat="50.01876" lon="5.3921">
        <ele>436</ele>
        <time>2013-09-08T08:19:44Z</time>
      </trkpt>
      <trkpt lat="50.01878" lon="5.39201">
        <ele>435</ele>
        <time>2013-09-08T08:19:50Z</time>
      </trkpt>
      <trkpt lat="50.01879" lon="5.39195">
        <ele>435</ele>
        <time>2013-09-08T08:19:55Z</time>
      </trkpt>
      <trkpt lat="50.01881" lon="5.39188">
        <ele>435</ele>
        <time>2013-09-08T08:20:00Z</time>
      </trkpt>
      <trkpt lat="50.01883" lon="5.39181">
        <ele>435</ele>
        <time>2013-09-08T08:20:06Z</time>
      </trkpt>
      <trkpt lat="50.01886" lon="5.39175">
        <ele>435</ele>
        <time>2013-09-08T08:20:11Z</time>
      </trkpt>
      <trkpt lat="50.01888" lon="5.3917">
        <ele>434</ele>
        <time>2013-09-08T08:20:17Z</time>
      </trkpt>
      <trkpt lat="50.0189" lon="5.39165">
        <ele>434</ele>
        <time>2013-09-08T08:20:22Z</time>
      </trkpt>
      <trkpt lat="50.01889" lon="5.39162">
        <ele>434</ele>
        <time>2013-09-08T08:20:27Z</time>
      </trkpt>
      <trkpt lat="50.01889" lon="5.3916">
        <ele>433</ele>
        <time>2013-09-08T08:20:33Z</time>
      </trkpt>
      <trkpt lat="50.01888" lon="5.3916">
        <ele>433</ele>
        <time>2013-09-08T08:20:38Z</time>
      </trkpt>
      <trkpt lat="50.01889" lon="5.39158">
        <ele>434</ele>
        <time>2013-09-08T08:20:44Z</time>
      </trkpt>
      <trkpt lat="50.01889" lon="5.39155">
        <ele>434</ele>
        <time>2013-09-08T08:20:49Z</time>
      </trkpt>
      <trkpt lat="50.01891" lon="5.39151">
        <ele>434</ele>
        <time>2013-09-08T08:20:54Z</time>
      </trkpt>
      <trkpt lat="50.01891" lon="5.3915">
        <ele>434</ele>
        <time>2013-09-08T08:20:59Z</time>
      </trkpt>
      <trkpt lat="50.01894" lon="5.39148">
        <ele>434</ele>
        <time>2013-09-08T08:21:05Z</time>
      </trkpt>
      <trkpt lat="50.01896" lon="5.39146">
        <ele>433</ele>
        <time>2013-09-08T08:21:11Z</time>
      </trkpt>
      <trkpt lat="50.01899" lon="5.39145">
        <ele>433</ele>
        <time>2013-09-08T08:21:17Z</time>
      </trkpt>
      <trkpt lat="50.01902" lon="5.39142">
        <ele>433</ele>
        <time>2013-09-08T08:21:23Z</time>
      </trkpt>
      <trkpt lat="50.01905" lon="5.39141">
        <ele>432</ele>
        <time>2013-09-08T08:21:29Z</time>
      </trkpt>
      <trkpt lat="50.01908" lon="5.39138">
        <ele>432</ele>
        <time>2013-09-08T08:21:35Z</time>
      </trkpt>
      <trkpt lat="50.01912" lon="5.39137">
        <ele>432</ele>
        <time>2013-09-08T08:21:40Z</time>
      </trkpt>
      <trkpt lat="50.01917" lon="5.39133">
        <ele>432</ele>
        <time>2013-09-08T08:21:46Z</time>
      </trkpt>
      <trkpt lat="50.0192" lon="5.3913">
        <ele>431</ele>
        <time>2013-09-08T08:21:51Z</time>
      </trkpt>
      <trkpt lat="50.01924" lon="5.39127">
        <ele>431</ele>
        <time>2013-09-08T08:21:56Z</time>
      </trkpt>
      <trkpt lat="50.01929" lon="5.39125">
        <ele>431</ele>
        <time>2013-09-08T08:22:02Z</time>
      </trkpt>
      <trkpt lat="50.01933" lon="5.39125">
        <ele>430</ele>
        <time>2013-09-08T08:22:07Z</time>
      </trkpt>
      <trkpt lat="50.01936" lon="5.3912">
        <ele>430</ele>
        <time>2013-09-08T08:22:12Z</time>
      </trkpt>
      <trkpt lat="50.01941" lon="5.39114">
        <ele>429</ele>
        <time>2013-09-08T08:22:18Z</time>
      </trkpt>
      <trkpt lat="50.01943" lon="5.39108">
        <ele>430</ele>
        <time>2013-09-08T08:22:24Z</time>
      </trkpt>
      <trkpt lat="50.01946" lon="5.39107">
        <ele>430</ele>
        <time>2013-09-08T08:22:29Z</time>
      </trkpt>
      <trkpt lat="50.0195" lon="5.39103">
        <ele>429</ele>
        <time>2013-09-08T08:22:34Z</time>
      </trkpt>
      <trkpt lat="50.01955" lon="5.39097">
        <ele>429</ele>
        <time>2013-09-08T08:22:40Z</time>
      </trkpt>
      <trkpt lat="50.01962" lon="5.39094">
        <ele>428</ele>
        <time>2013-09-08T08:22:45Z</time>
      </trkpt>
      <trkpt lat="50.01971" lon="5.39089">
        <ele>428</ele>
        <time>2013-09-08T08:22:51Z</time>
      </trkpt>
      <trkpt lat="50.01978" lon="5.39086">
        <ele>427</ele>
        <time>2013-09-08T08:22:56Z</time>
      </trkpt>
      <trkpt lat="50.01986" lon="5.39084">
        <ele>427</ele>
        <time>2013-09-08T08:23:01Z</time>
      </trkpt>
      <trkpt lat="50.01994" lon="5.3908">
        <ele>427</ele>
        <time>2013-09-08T08:23:07Z</time>
      </trkpt>
      <trkpt lat="50.02002" lon="5.39075">
        <ele>427</ele>
        <time>2013-09-08T08:23:13Z</time>
      </trkpt>
      <trkpt lat="50.02009" lon="5.39073">
        <ele>426</ele>
        <time>2013-09-08T08:23:18Z</time>
      </trkpt>
      <trkpt lat="50.02016" lon="5.39069">
        <ele>426</ele>
        <time>2013-09-08T08:23:23Z</time>
      </trkpt>
      <trkpt lat="50.02022" lon="5.39066">
        <ele>426</ele>
        <time>2013-09-08T08:23:28Z</time>
      </trkpt>
      <trkpt lat="50.02025" lon="5.39064">
        <ele>425</ele>
        <time>2013-09-08T08:23:34Z</time>
      </trkpt>
      <trkpt lat="50.02028" lon="5.39062">
        <ele>425</ele>
        <time>2013-09-08T08:23:39Z</time>
      </trkpt>
      <trkpt lat="50.02033" lon="5.39059">
        <ele>425</ele>
        <time>2013-09-08T08:23:44Z</time>
      </trkpt>
      <trkpt lat="50.02038" lon="5.39056">
        <ele>425</ele>
        <time>2013-09-08T08:23:49Z</time>
      </trkpt>
      <trkpt lat="50.02045" lon="5.39052">
        <ele>424</ele>
        <time>2013-09-08T08:23:55Z</time>
      </trkpt>
      <trkpt lat="50.02049" lon="5.39049">
        <ele>424</ele>
        <time>2013-09-08T08:24:00Z</time>
      </trkpt>
      <trkpt lat="50.02053" lon="5.39045">
        <ele>424</ele>
        <time>2013-09-08T08:24:06Z</time>
      </trkpt>
      <trkpt lat="50.02058" lon="5.39042">
        <ele>424</ele>
        <time>2013-09-08T08:24:12Z</time>
      </trkpt>
      <trkpt lat="50.02063" lon="5.39037">
        <ele>424</ele>
        <time>2013-09-08T08:24:18Z</time>
      </trkpt>
      <trkpt lat="50.02065" lon="5.39036">
        <ele>423</ele>
        <time>2013-09-08T08:24:23Z</time>
      </trkpt>
      <trkpt lat="50.02066" lon="5.39034">
        <ele>423</ele>
        <time>2013-09-08T08:24:29Z</time>
      </trkpt>
      <trkpt lat="50.02067" lon="5.39033">
        <ele>423</ele>
        <time>2013-09-08T08:24:34Z</time>
      </trkpt>
      <trkpt lat="50.02069" lon="5.39033">
        <ele>423</ele>
        <time>2013-09-08T08:24:39Z</time>
      </trkpt>
      <trkpt lat="50.02072" lon="5.39031">
        <ele>423</ele>
        <time>2013-09-08T08:24:44Z</time>
      </trkpt>
      <trkpt lat="50.02077" lon="5.39026">
        <ele>424</ele>
        <time>2013-09-08T08:24:50Z</time>
      </trkpt>
      <trkpt lat="50.0208" lon="5.39022">
        <ele>423</ele>
        <time>2013-09-08T08:24:55Z</time>
      </trkpt>
      <trkpt lat="50.02085" lon="5.39019">
        <ele>422</ele>
        <time>2013-09-08T08:25:01Z</time>
      </trkpt>
      <trkpt lat="50.0209" lon="5.39016">
        <ele>422</ele>
        <time>2013-09-08T08:25:07Z</time>
      </trkpt>
      <trkpt lat="50.02095" lon="5.39016">
        <ele>422</ele>
        <time>2013-09-08T08:25:12Z</time>
      </trkpt>
      <trkpt lat="50.021" lon="5.39016">
        <ele>421</ele>
        <time>2013-09-08T08:25:17Z</time>
      </trkpt>
      <trkpt lat="50.02106" lon="5.39015">
        <ele>421</ele>
        <time>2013-09-08T08:25:22Z</time>
      </trkpt>
      <trkpt lat="50.02112" lon="5.39014">
        <ele>421</ele>
        <time>2013-09-08T08:25:27Z</time>
      </trkpt>
      <trkpt lat="50.02121" lon="5.39014">
        <ele>421</ele>
        <time>2013-09-08T08:25:33Z</time>
      </trkpt>
      <trkpt lat="50.02127" lon="5.39015">
        <ele>421</ele>
        <time>2013-09-08T08:25:38Z</time>
      </trkpt>
      <trkpt lat="50.02134" lon="5.39016">
        <ele>421</ele>
        <time>2013-09-08T08:25:43Z</time>
      </trkpt>
      <trkpt lat="50.02141" lon="5.39017">
        <ele>421</ele>
        <time>2013-09-08T08:25:49Z</time>
      </trkpt>
      <trkpt lat="50.02148" lon="5.39018">
        <ele>421</ele>
        <time>2013-09-08T08:25:55Z</time>
      </trkpt>
      <trkpt lat="50.02153" lon="5.39013">
        <ele>420</ele>
        <time>2013-09-08T08:26:01Z</time>
      </trkpt>
      <trkpt lat="50.02159" lon="5.39011">
        <ele>420</ele>
        <time>2013-09-08T08:26:06Z</time>
      </trkpt>
      <trkpt lat="50.02161" lon="5.39011">
        <ele>419</ele>
        <time>2013-09-08T08:26:12Z</time>
      </trkpt>
      <trkpt lat="50.02162" lon="5.39008">
        <ele>420</ele>
        <time>2013-09-08T08:26:18Z</time>
      </trkpt>
      <trkpt lat="50.02163" lon="5.39006">
        <ele>420</ele>
        <time>2013-09-08T08:26:24Z</time>
      </trkpt>
      <trkpt lat="50.02165" lon="5.39004">
        <ele>420</ele>
        <time>2013-09-08T08:26:30Z</time>
      </trkpt>
      <trkpt lat="50.02168" lon="5.38994">
        <ele>419</ele>
        <time>2013-09-08T08:26:36Z</time>
      </trkpt>
      <trkpt lat="50.02171" lon="5.38986">
        <ele>419</ele>
        <time>2013-09-08T08:26:41Z</time>
      </trkpt>
      <trkpt lat="50.02174" lon="5.38977">
        <ele>418</ele>
        <time>2013-09-08T08:26:46Z</time>
      </trkpt>
      <trkpt lat="50.02178" lon="5.38969">
        <ele>418</ele>
        <time>2013-09-08T08:26:52Z</time>
      </trkpt>
      <trkpt lat="50.02181" lon="5.38962">
        <ele>418</ele>
        <time>2013-09-08T08:26:57Z</time>
      </trkpt>
      <trkpt lat="50.02184" lon="5.38951">
        <ele>417</ele>
        <time>2013-09-08T08:27:03Z</time>
      </trkpt>
      <trkpt lat="50.02187" lon="5.38944">
        <ele>416</ele>
        <time>2013-09-08T08:27:08Z</time>
      </trkpt>
      <trkpt lat="50.0219" lon="5.38938">
        <ele>416</ele>
        <time>2013-09-08T08:27:13Z</time>
      </trkpt>
      <trkpt lat="50.02194" lon="5.38929">
        <ele>416</ele>
        <time>2013-09-08T08:27:19Z</time>
      </trkpt>
      <trkpt lat="50.02198" lon="5.38925">
        <ele>415</ele>
        <time>2013-09-08T08:27:24Z</time>
      </trkpt>
      <trkpt lat="50.02198" lon="5.38923">
        <ele>415</ele>
        <time>2013-09-08T08:27:30Z</time>
      </trkpt>
      <trkpt lat="50.02202" lon="5.38916">
        <ele>415</ele>
        <time>2013-09-08T08:27:36Z</time>
      </trkpt>
      <trkpt lat="50.02206" lon="5.38906">
        <ele>414</ele>
        <time>2013-09-08T08:27:42Z</time>
      </trkpt>
      <trkpt lat="50.0221" lon="5.389">
        <ele>414</ele>
        <time>2013-09-08T08:27:47Z</time>
      </trkpt>
      <trkpt lat="50.02214" lon="5.38893">
        <ele>413</ele>
        <time>2013-09-08T08:27:53Z</time>
      </trkpt>
      <trkpt lat="50.02216" lon="5.38889">
        <ele>413</ele>
        <time>2013-09-08T08:27:59Z</time>
      </trkpt>
      <trkpt lat="50.02221" lon="5.38881">
        <ele>412</ele>
        <time>2013-09-08T08:28:05Z</time>
      </trkpt>
      <trkpt lat="50.02226" lon="5.38874">
        <ele>412</ele>
        <time>2013-09-08T08:28:11Z</time>
      </trkpt>
      <trkpt lat="50.02229" lon="5.38867">
        <ele>412</ele>
        <time>2013-09-08T08:28:16Z</time>
      </trkpt>
      <trkpt lat="50.02234" lon="5.38859">
        <ele>412</ele>
        <time>2013-09-08T08:28:22Z</time>
      </trkpt>
      <trkpt lat="50.02239" lon="5.38853">
        <ele>411</ele>
        <time>2013-09-08T08:28:27Z</time>
      </trkpt>
      <trkpt lat="50.02243" lon="5.38847">
        <ele>411</ele>
        <time>2013-09-08T08:28:32Z</time>
      </trkpt>
      <trkpt lat="50.02248" lon="5.38842">
        <ele>411</ele>
        <time>2013-09-08T08:28:38Z</time>
      </trkpt>
      <trkpt lat="50.02253" lon="5.38837">
        <ele>411</ele>
        <time>2013-09-08T08:28:43Z</time>
      </trkpt>
      <trkpt lat="50.02258" lon="5.38832">
        <ele>410</ele>
        <time>2013-09-08T08:28:48Z</time>
      </trkpt>
      <trkpt lat="50.02263" lon="5.38827">
        <ele>410</ele>
        <time>2013-09-08T08:28:53Z</time>
      </trkpt>
      <trkpt lat="50.02267" lon="5.38822">
        <ele>410</ele>
        <time>2013-09-08T08:28:58Z</time>
      </trkpt>
      <trkpt lat="50.02273" lon="5.38817">
        <ele>409</ele>
        <time>2013-09-08T08:29:04Z</time>
      </trkpt>
      <trkpt lat="50.02277" lon="5.38812">
        <ele>409</ele>
        <time>2013-09-08T08:29:09Z</time>
      </trkpt>
      <trkpt lat="50.02283" lon="5.38807">
        <ele>409</ele>
        <time>2013-09-08T08:29:15Z</time>
      </trkpt>
      <trkpt lat="50.02288" lon="5.38803">
        <ele>408</ele>
        <time>2013-09-08T08:29:20Z</time>
      </trkpt>
      <trkpt lat="50.0229" lon="5.388">
        <ele>408</ele>
        <time>2013-09-08T08:29:26Z</time>
      </trkpt>
      <trkpt lat="50.02295" lon="5.38795">
        <ele>408</ele>
        <time>2013-09-08T08:29:32Z</time>
      </trkpt>
      <trkpt lat="50.02298" lon="5.38791">
        <ele>407</ele>
        <time>2013-09-08T08:29:37Z</time>
      </trkpt>
      <trkpt lat="50.02303" lon="5.38786">
        <ele>406</ele>
        <time>2013-09-08T08:29:43Z</time>
      </trkpt>
      <trkpt lat="50.02305" lon="5.38785">
        <ele>407</ele>
        <time>2013-09-08T08:29:49Z</time>
      </trkpt>
      <trkpt lat="50.02306" lon="5.38784">
        <ele>406</ele>
        <time>2013-09-08T08:29:54Z</time>
      </trkpt>
      <trkpt lat="50.02307" lon="5.38784">
        <ele>406</ele>
        <time>2013-09-08T08:30:00Z</time>
      </trkpt>
      <trkpt lat="50.02309" lon="5.38781">
        <ele>406</ele>
        <time>2013-09-08T08:30:05Z</time>
      </trkpt>
      <trkpt lat="50.02315" lon="5.38775">
        <ele>406</ele>
        <time>2013-09-08T08:30:11Z</time>
      </trkpt>
      <trkpt lat="50.02319" lon="5.38769">
        <ele>406</ele>
        <time>2013-09-08T08:30:16Z</time>
      </trkpt>
      <trkpt lat="50.02324" lon="5.38761">
        <ele>405</ele>
        <time>2013-09-08T08:30:22Z</time>
      </trkpt>
      <trkpt lat="50.02326" lon="5.38758">
        <ele>406</ele>
        <time>2013-09-08T08:30:27Z</time>
      </trkpt>
      <trkpt lat="50.02327" lon="5.38757">
        <ele>405</ele>
        <time>2013-09-08T08:30:32Z</time>
      </trkpt>
      <trkpt lat="50.02328" lon="5.38753">
        <ele>405</ele>
        <time>2013-09-08T08:30:38Z</time>
      </trkpt>
      <trkpt lat="50.02332" lon="5.38745">
        <ele>405</ele>
        <time>2013-09-08T08:30:44Z</time>
      </trkpt>
      <trkpt lat="50.02336" lon="5.38736">
        <ele>405</ele>
        <time>2013-09-08T08:30:50Z</time>
      </trkpt>
      <trkpt lat="50.0234" lon="5.38729">
        <ele>404</ele>
        <time>2013-09-08T08:30:55Z</time>
      </trkpt>
      <trkpt lat="50.02343" lon="5.38721">
        <ele>404</ele>
        <time>2013-09-08T08:31:01Z</time>
      </trkpt>
      <trkpt lat="50.02347" lon="5.38714">
        <ele>404</ele>
        <time>2013-09-08T08:31:06Z</time>
      </trkpt>
      <trkpt lat="50.02351" lon="5.38706">
        <ele>404</ele>
        <time>2013-09-08T08:31:12Z</time>
      </trkpt>
      <trkpt lat="50.02354" lon="5.387">
        <ele>403</ele>
        <time>2013-09-08T08:31:17Z</time>
      </trkpt>
      <trkpt lat="50.02357" lon="5.38693">
        <ele>403</ele>
        <time>2013-09-08T08:31:23Z</time>
      </trkpt>
      <trkpt lat="50.0236" lon="5.38687">
        <ele>403</ele>
        <time>2013-09-08T08:31:28Z</time>
      </trkpt>
      <trkpt lat="50.0236" lon="5.38686">
        <ele>403</ele>
        <time>2013-09-08T08:31:34Z</time>
      </trkpt>
      <trkpt lat="50.02361" lon="5.38685">
        <ele>403</ele>
        <time>2013-09-08T08:31:39Z</time>
      </trkpt>
      <trkpt lat="50.02361" lon="5.38685">
        <ele>403</ele>
        <time>2013-09-08T08:31:44Z</time>
      </trkpt>
      <trkpt lat="50.02362" lon="5.38684">
        <ele>402</ele>
        <time>2013-09-08T08:31:50Z</time>
      </trkpt>
      <trkpt lat="50.02362" lon="5.38684">
        <ele>403</ele>
        <time>2013-09-08T08:31:57Z</time>
      </trkpt>
      <trkpt lat="50.02362" lon="5.38685">
        <ele>403</ele>
        <time>2013-09-08T08:32:04Z</time>
      </trkpt>
      <trkpt lat="50.02363" lon="5.38686">
        <ele>403</ele>
        <time>2013-09-08T08:32:10Z</time>
      </trkpt>
      <trkpt lat="50.02363" lon="5.38686">
        <ele>403</ele>
        <time>2013-09-08T08:32:17Z</time>
      </trkpt>
      <trkpt lat="50.02364" lon="5.38686">
        <ele>403</ele>
        <time>2013-09-08T08:32:23Z</time>
      </trkpt>
      <trkpt lat="50.02365" lon="5.38686">
        <ele>403</ele>
        <time>2013-09-08T08:32:30Z</time>
      </trkpt>
      <trkpt lat="50.02365" lon="5.38686">
        <ele>403</ele>
        <time>2013-09-08T08:32:35Z</time>
      </trkpt>
      <trkpt lat="50.02366" lon="5.38686">
        <ele>403</ele>
        <time>2013-09-08T08:32:41Z</time>
      </trkpt>
      <trkpt lat="50.02367" lon="5.38686">
        <ele>403</ele>
        <time>2013-09-08T08:32:48Z</time>
      </trkpt>
      <trkpt lat="50.02367" lon="5.38685">
        <ele>403</ele>
        <time>2013-09-08T08:32:54Z</time>
      </trkpt>
      <trkpt lat="50.02369" lon="5.3868">
        <ele>403</ele>
        <time>2013-09-08T08:33:00Z</time>
      </trkpt>
      <trkpt lat="50.02371" lon="5.38673">
        <ele>402</ele>
        <time>2013-09-08T08:33:05Z</time>
      </trkpt>
      <trkpt lat="50.02373" lon="5.38667">
        <ele>402</ele>
        <time>2013-09-08T08:33:12Z</time>
      </trkpt>
      <trkpt lat="50.02372" lon="5.38665">
        <ele>402</ele>
        <time>2013-09-08T08:33:18Z</time>
      </trkpt>
      <trkpt lat="50.02373" lon="5.38662">
        <ele>402</ele>
        <time>2013-09-08T08:33:23Z</time>
      </trkpt>
      <trkpt lat="50.02373" lon="5.3866">
        <ele>402</ele>
        <time>2013-09-08T08:33:29Z</time>
      </trkpt>
      <trkpt lat="50.02372" lon="5.38659">
        <ele>402</ele>
        <time>2013-09-08T08:33:35Z</time>
      </trkpt>
      <trkpt lat="50.02375" lon="5.38653">
        <ele>401</ele>
        <time>2013-09-08T08:33:40Z</time>
      </trkpt>
      <trkpt lat="50.02376" lon="5.38646">
        <ele>401</ele>
        <time>2013-09-08T08:33:45Z</time>
      </trkpt>
      <trkpt lat="50.02379" lon="5.38638">
        <ele>401</ele>
        <time>2013-09-08T08:33:51Z</time>
      </trkpt>
      <trkpt lat="50.0238" lon="5.38631">
        <ele>400</ele>
        <time>2013-09-08T08:33:56Z</time>
      </trkpt>
      <trkpt lat="50.02382" lon="5.38624">
        <ele>400</ele>
        <time>2013-09-08T08:34:02Z</time>
      </trkpt>
      <trkpt lat="50.02383" lon="5.38617">
        <ele>399</ele>
        <time>2013-09-08T08:34:07Z</time>
      </trkpt>
      <trkpt lat="50.02381" lon="5.38612">
        <ele>399</ele>
        <time>2013-09-08T08:34:13Z</time>
      </trkpt>
      <trkpt lat="50.0238" lon="5.38609">
        <ele>399</ele>
        <time>2013-09-08T08:34:18Z</time>
      </trkpt>
      <trkpt lat="50.0238" lon="5.38607">
        <ele>399</ele>
        <time>2013-09-08T08:34:24Z</time>
      </trkpt>
      <trkpt lat="50.02379" lon="5.38605">
        <ele>399</ele>
        <time>2013-09-08T08:34:29Z</time>
      </trkpt>
      <trkpt lat="50.02379" lon="5.38603">
        <ele>399</ele>
        <time>2013-09-08T08:34:34Z</time>
      </trkpt>
      <trkpt lat="50.02379" lon="5.38602">
        <ele>400</ele>
        <time>2013-09-08T08:34:40Z</time>
      </trkpt>
      <trkpt lat="50.02379" lon="5.38601">
        <ele>400</ele>
        <time>2013-09-08T08:34:45Z</time>
      </trkpt>
      <trkpt lat="50.02379" lon="5.386">
        <ele>400</ele>
        <time>2013-09-08T08:34:51Z</time>
      </trkpt>
      <trkpt lat="50.0238" lon="5.38597">
        <ele>399</ele>
        <time>2013-09-08T08:34:57Z</time>
      </trkpt>
      <trkpt lat="50.02383" lon="5.38595">
        <ele>399</ele>
        <time>2013-09-08T08:35:03Z</time>
      </trkpt>
      <trkpt lat="50.02386" lon="5.3859">
        <ele>399</ele>
        <time>2013-09-08T08:35:08Z</time>
      </trkpt>
      <trkpt lat="50.02389" lon="5.38583">
        <ele>399</ele>
        <time>2013-09-08T08:35:14Z</time>
      </trkpt>
      <trkpt lat="50.02389" lon="5.3858">
        <ele>398</ele>
        <time>2013-09-08T08:35:20Z</time>
      </trkpt>
      <trkpt lat="50.0239" lon="5.38571">
        <ele>398</ele>
        <time>2013-09-08T08:35:26Z</time>
      </trkpt>
      <trkpt lat="50.0239" lon="5.38565">
        <ele>397</ele>
        <time>2013-09-08T08:35:31Z</time>
      </trkpt>
      <trkpt lat="50.02391" lon="5.38558">
        <ele>397</ele>
        <time>2013-09-08T08:35:36Z</time>
      </trkpt>
      <trkpt lat="50.02391" lon="5.3855">
        <ele>397</ele>
        <time>2013-09-08T08:35:42Z</time>
      </trkpt>
      <trkpt lat="50.02393" lon="5.38541">
        <ele>396</ele>
        <time>2013-09-08T08:35:48Z</time>
      </trkpt>
      <trkpt lat="50.02395" lon="5.38533">
        <ele>396</ele>
        <time>2013-09-08T08:35:53Z</time>
      </trkpt>
      <trkpt lat="50.02397" lon="5.38526">
        <ele>396</ele>
        <time>2013-09-08T08:35:59Z</time>
      </trkpt>
      <trkpt lat="50.02397" lon="5.38525">
        <ele>396</ele>
        <time>2013-09-08T08:36:04Z</time>
      </trkpt>
      <trkpt lat="50.02398" lon="5.38524">
        <ele>396</ele>
        <time>2013-09-08T08:36:10Z</time>
      </trkpt>
      <trkpt lat="50.02399" lon="5.38523">
        <ele>396</ele>
        <time>2013-09-08T08:36:15Z</time>
      </trkpt>
      <trkpt lat="50.02399" lon="5.38522">
        <ele>396</ele>
        <time>2013-09-08T08:36:21Z</time>
      </trkpt>
      <trkpt lat="50.02401" lon="5.38516">
        <ele>396</ele>
        <time>2013-09-08T08:36:27Z</time>
      </trkpt>
      <trkpt lat="50.02403" lon="5.38508">
        <ele>396</ele>
        <time>2013-09-08T08:36:33Z</time>
      </trkpt>
      <trkpt lat="50.02403" lon="5.38508">
        <ele>396</ele>
        <time>2013-09-08T08:36:39Z</time>
      </trkpt>
      <trkpt lat="50.02403" lon="5.38507">
        <ele>396</ele>
        <time>2013-09-08T08:36:47Z</time>
      </trkpt>
      <trkpt lat="50.02404" lon="5.38507">
        <ele>396</ele>
        <time>2013-09-08T08:36:52Z</time>
      </trkpt>
      <trkpt lat="50.02404" lon="5.38504">
        <ele>396</ele>
        <time>2013-09-08T08:36:57Z</time>
      </trkpt>
      <trkpt lat="50.02407" lon="5.38496">
        <ele>395</ele>
        <time>2013-09-08T08:37:03Z</time>
      </trkpt>
      <trkpt lat="50.0241" lon="5.38488">
        <ele>395</ele>
        <time>2013-09-08T08:37:09Z</time>
      </trkpt>
      <trkpt lat="50.02412" lon="5.38482">
        <ele>395</ele>
        <time>2013-09-08T08:37:14Z</time>
      </trkpt>
      <trkpt lat="50.02415" lon="5.38476">
        <ele>395</ele>
        <time>2013-09-08T08:37:19Z</time>
      </trkpt>
      <trkpt lat="50.02417" lon="5.38469">
        <ele>395</ele>
        <time>2013-09-08T08:37:24Z</time>
      </trkpt>
      <trkpt lat="50.02419" lon="5.38462">
        <ele>394</ele>
        <time>2013-09-08T08:37:29Z</time>
      </trkpt>
      <trkpt lat="50.02421" lon="5.38456">
        <ele>393</ele>
        <time>2013-09-08T08:37:34Z</time>
      </trkpt>
      <trkpt lat="50.02423" lon="5.38448">
        <ele>393</ele>
        <time>2013-09-08T08:37:39Z</time>
      </trkpt>
      <trkpt lat="50.02425" lon="5.38439">
        <ele>393</ele>
        <time>2013-09-08T08:37:45Z</time>
      </trkpt>
      <trkpt lat="50.02428" lon="5.38429">
        <ele>393</ele>
        <time>2013-09-08T08:37:51Z</time>
      </trkpt>
      <trkpt lat="50.0243" lon="5.38421">
        <ele>393</ele>
        <time>2013-09-08T08:37:56Z</time>
      </trkpt>
      <trkpt lat="50.02433" lon="5.38412">
        <ele>392</ele>
        <time>2013-09-08T08:38:01Z</time>
      </trkpt>
      <trkpt lat="50.02435" lon="5.38403">
        <ele>392</ele>
        <time>2013-09-08T08:38:06Z</time>
      </trkpt>
      <trkpt lat="50.02438" lon="5.38393">
        <ele>392</ele>
        <time>2013-09-08T08:38:12Z</time>
      </trkpt>
      <trkpt lat="50.02441" lon="5.38386">
        <ele>391</ele>
        <time>2013-09-08T08:38:17Z</time>
      </trkpt>
      <trkpt lat="50.02445" lon="5.38378">
        <ele>391</ele>
        <time>2013-09-08T08:38:23Z</time>
      </trkpt>
      <trkpt lat="50.02447" lon="5.3837">
        <ele>391</ele>
        <time>2013-09-08T08:38:29Z</time>
      </trkpt>
      <trkpt lat="50.02449" lon="5.38362">
        <ele>390</ele>
        <time>2013-09-08T08:38:35Z</time>
      </trkpt>
      <trkpt lat="50.02452" lon="5.38352">
        <ele>390</ele>
        <time>2013-09-08T08:38:41Z</time>
      </trkpt>
      <trkpt lat="50.02456" lon="5.38343">
        <ele>390</ele>
        <time>2013-09-08T08:38:47Z</time>
      </trkpt>
      <trkpt lat="50.02458" lon="5.38334">
        <ele>390</ele>
        <time>2013-09-08T08:38:53Z</time>
      </trkpt>
      <trkpt lat="50.02459" lon="5.38323">
        <ele>390</ele>
        <time>2013-09-08T08:38:59Z</time>
      </trkpt>
      <trkpt lat="50.02458" lon="5.38314">
        <ele>390</ele>
        <time>2013-09-08T08:39:04Z</time>
      </trkpt>
      <trkpt lat="50.02454" lon="5.38305">
        <ele>390</ele>
        <time>2013-09-08T08:39:10Z</time>
      </trkpt>
      <trkpt lat="50.02451" lon="5.38297">
        <ele>391</ele>
        <time>2013-09-08T08:39:16Z</time>
      </trkpt>
      <trkpt lat="50.02448" lon="5.38293">
        <ele>391</ele>
        <time>2013-09-08T08:39:21Z</time>
      </trkpt>
      <trkpt lat="50.02444" lon="5.38288">
        <ele>392</ele>
        <time>2013-09-08T08:39:26Z</time>
      </trkpt>
      <trkpt lat="50.02441" lon="5.38284">
        <ele>393</ele>
        <time>2013-09-08T08:39:31Z</time>
      </trkpt>
      <trkpt lat="50.02436" lon="5.3828">
        <ele>393</ele>
        <time>2013-09-08T08:39:37Z</time>
      </trkpt>
      <trkpt lat="50.02431" lon="5.38277">
        <ele>394</ele>
        <time>2013-09-08T08:39:42Z</time>
      </trkpt>
      <trkpt lat="50.02425" lon="5.38275">
        <ele>394</ele>
        <time>2013-09-08T08:39:48Z</time>
      </trkpt>
      <trkpt lat="50.0242" lon="5.38272">
        <ele>395</ele>
        <time>2013-09-08T08:39:53Z</time>
      </trkpt>
      <trkpt lat="50.02415" lon="5.38269">
        <ele>396</ele>
        <time>2013-09-08T08:39:59Z</time>
      </trkpt>
      <trkpt lat="50.02411" lon="5.38271">
        <ele>396</ele>
        <time>2013-09-08T08:40:04Z</time>
      </trkpt>
      <trkpt lat="50.02408" lon="5.3827">
        <ele>396</ele>
        <time>2013-09-08T08:40:10Z</time>
      </trkpt>
      <trkpt lat="50.02403" lon="5.38267">
        <ele>397</ele>
        <time>2013-09-08T08:40:16Z</time>
      </trkpt>
      <trkpt lat="50.02398" lon="5.38265">
        <ele>397</ele>
        <time>2013-09-08T08:40:22Z</time>
      </trkpt>
      <trkpt lat="50.02392" lon="5.38262">
        <ele>398</ele>
        <time>2013-09-08T08:40:28Z</time>
      </trkpt>
      <trkpt lat="50.02385" lon="5.38259">
        <ele>399</ele>
        <time>2013-09-08T08:40:34Z</time>
      </trkpt>
      <trkpt lat="50.02381" lon="5.38258">
        <ele>400</ele>
        <time>2013-09-08T08:40:39Z</time>
      </trkpt>
      <trkpt lat="50.02379" lon="5.38258">
        <ele>400</ele>
        <time>2013-09-08T08:40:44Z</time>
      </trkpt>
      <trkpt lat="50.02376" lon="5.38259">
        <ele>400</ele>
        <time>2013-09-08T08:40:50Z</time>
      </trkpt>
      <trkpt lat="50.02372" lon="5.38258">
        <ele>401</ele>
        <time>2013-09-08T08:40:55Z</time>
      </trkpt>
      <trkpt lat="50.02368" lon="5.38254">
        <ele>401</ele>
        <time>2013-09-08T08:41:01Z</time>
      </trkpt>
      <trkpt lat="50.02363" lon="5.38252">
        <ele>402</ele>
        <time>2013-09-08T08:41:06Z</time>
      </trkpt>
      <trkpt lat="50.02359" lon="5.3825">
        <ele>403</ele>
        <time>2013-09-08T08:41:11Z</time>
      </trkpt>
      <trkpt lat="50.02354" lon="5.38248">
        <ele>403</ele>
        <time>2013-09-08T08:41:16Z</time>
      </trkpt>
      <trkpt lat="50.02347" lon="5.38249">
        <ele>404</ele>
        <time>2013-09-08T08:41:22Z</time>
      </trkpt>
      <trkpt lat="50.02341" lon="5.38246">
        <ele>404</ele>
        <time>2013-09-08T08:41:28Z</time>
      </trkpt>
      <trkpt lat="50.02335" lon="5.38245">
        <ele>405</ele>
        <time>2013-09-08T08:41:33Z</time>
      </trkpt>
      <trkpt lat="50.02332" lon="5.38245">
        <ele>406</ele>
        <time>2013-09-08T08:41:39Z</time>
      </trkpt>
      <trkpt lat="50.02325" lon="5.38242">
        <ele>406</ele>
        <time>2013-09-08T08:41:45Z</time>
      </trkpt>
      <trkpt lat="50.02318" lon="5.38238">
        <ele>407</ele>
        <time>2013-09-08T08:41:51Z</time>
      </trkpt>
      <trkpt lat="50.02312" lon="5.38237">
        <ele>407</ele>
        <time>2013-09-08T08:41:56Z</time>
      </trkpt>
      <trkpt lat="50.02304" lon="5.38234">
        <ele>407</ele>
        <time>2013-09-08T08:42:02Z</time>
      </trkpt>
      <trkpt lat="50.02297" lon="5.38232">
        <ele>408</ele>
        <time>2013-09-08T08:42:08Z</time>
      </trkpt>
      <trkpt lat="50.02291" lon="5.38229">
        <ele>408</ele>
        <time>2013-09-08T08:42:14Z</time>
      </trkpt>
      <trkpt lat="50.02285" lon="5.38227">
        <ele>409</ele>
        <time>2013-09-08T08:42:19Z</time>
      </trkpt>
      <trkpt lat="50.02279" lon="5.38224">
        <ele>410</ele>
        <time>2013-09-08T08:42:25Z</time>
      </trkpt>
      <trkpt lat="50.02274" lon="5.38219">
        <ele>411</ele>
        <time>2013-09-08T08:42:31Z</time>
      </trkpt>
      <trkpt lat="50.02274" lon="5.38218">
        <ele>410</ele>
        <time>2013-09-08T08:42:36Z</time>
      </trkpt>
      <trkpt lat="50.02274" lon="5.38217">
        <ele>410</ele>
        <time>2013-09-08T08:42:41Z</time>
      </trkpt>
      <trkpt lat="50.02275" lon="5.3821">
        <ele>410</ele>
        <time>2013-09-08T08:42:47Z</time>
      </trkpt>
      <trkpt lat="50.02276" lon="5.38204">
        <ele>410</ele>
        <time>2013-09-08T08:42:53Z</time>
      </trkpt>
      <trkpt lat="50.02277" lon="5.38199">
        <ele>410</ele>
        <time>2013-09-08T08:42:58Z</time>
      </trkpt>
      <trkpt lat="50.02277" lon="5.38194">
        <ele>410</ele>
        <time>2013-09-08T08:43:04Z</time>
      </trkpt>
      <trkpt lat="50.02278" lon="5.38192">
        <ele>410</ele>
        <time>2013-09-08T08:43:10Z</time>
      </trkpt>
      <trkpt lat="50.02276" lon="5.38192">
        <ele>410</ele>
        <time>2013-09-08T08:43:16Z</time>
      </trkpt>
      <trkpt lat="50.02275" lon="5.38191">
        <ele>410</ele>
        <time>2013-09-08T08:43:21Z</time>
      </trkpt>
      <trkpt lat="50.02274" lon="5.3819">
        <ele>410</ele>
        <time>2013-09-08T08:43:26Z</time>
      </trkpt>
      <trkpt lat="50.02273" lon="5.3819">
        <ele>410</ele>
        <time>2013-09-08T08:43:32Z</time>
      </trkpt>
      <trkpt lat="50.02273" lon="5.3819">
        <ele>410</ele>
        <time>2013-09-08T08:43:37Z</time>
      </trkpt>
      <trkpt lat="50.02272" lon="5.38189">
        <ele>410</ele>
        <time>2013-09-08T08:43:43Z</time>
      </trkpt>
      <trkpt lat="50.02274" lon="5.38185">
        <ele>410</ele>
        <time>2013-09-08T08:43:49Z</time>
      </trkpt>
      <trkpt lat="50.02275" lon="5.38178">
        <ele>410</ele>
        <time>2013-09-08T08:43:54Z</time>
      </trkpt>
      <trkpt lat="50.02277" lon="5.3817">
        <ele>410</ele>
        <time>2013-09-08T08:44:00Z</time>
      </trkpt>
      <trkpt lat="50.02277" lon="5.38162">
        <ele>410</ele>
        <time>2013-09-08T08:44:06Z</time>
      </trkpt>
      <trkpt lat="50.0228" lon="5.38156">
        <ele>409</ele>
        <time>2013-09-08T08:44:12Z</time>
      </trkpt>
      <trkpt lat="50.02283" lon="5.38149">
        <ele>408</ele>
        <time>2013-09-08T08:44:17Z</time>
      </trkpt>
      <trkpt lat="50.02287" lon="5.38141">
        <ele>408</ele>
        <time>2013-09-08T08:44:23Z</time>
      </trkpt>
      <trkpt lat="50.0229" lon="5.38133">
        <ele>407</ele>
        <time>2013-09-08T08:44:28Z</time>
      </trkpt>
      <trkpt lat="50.02293" lon="5.38125">
        <ele>406</ele>
        <time>2013-09-08T08:44:33Z</time>
      </trkpt>
      <trkpt lat="50.02297" lon="5.38118">
        <ele>405</ele>
        <time>2013-09-08T08:44:38Z</time>
      </trkpt>
      <trkpt lat="50.02302" lon="5.38113">
        <ele>405</ele>
        <time>2013-09-08T08:44:44Z</time>
      </trkpt>
      <trkpt lat="50.02308" lon="5.38108">
        <ele>404</ele>
        <time>2013-09-08T08:44:50Z</time>
      </trkpt>
      <trkpt lat="50.02314" lon="5.38101">
        <ele>403</ele>
        <time>2013-09-08T08:44:56Z</time>
      </trkpt>
      <trkpt lat="50.02319" lon="5.38095">
        <ele>402</ele>
        <time>2013-09-08T08:45:01Z</time>
      </trkpt>
      <trkpt lat="50.02325" lon="5.38089">
        <ele>402</ele>
        <time>2013-09-08T08:45:07Z</time>
      </trkpt>
      <trkpt lat="50.0233" lon="5.38084">
        <ele>401</ele>
        <time>2013-09-08T08:45:12Z</time>
      </trkpt>
      <trkpt lat="50.02334" lon="5.38078">
        <ele>401</ele>
        <time>2013-09-08T08:45:17Z</time>
      </trkpt>
      <trkpt lat="50.02339" lon="5.38073">
        <ele>400</ele>
        <time>2013-09-08T08:45:23Z</time>
      </trkpt>
      <trkpt lat="50.02344" lon="5.3807">
        <ele>400</ele>
        <time>2013-09-08T08:45:28Z</time>
      </trkpt>
      <trkpt lat="50.02349" lon="5.38066">
        <ele>399</ele>
        <time>2013-09-08T08:45:34Z</time>
      </trkpt>
      <trkpt lat="50.02353" lon="5.38061">
        <ele>399</ele>
        <time>2013-09-08T08:45:39Z</time>
      </trkpt>
      <trkpt lat="50.02357" lon="5.38057">
        <ele>399</ele>
        <time>2013-09-08T08:45:45Z</time>
      </trkpt>
      <trkpt lat="50.02362" lon="5.38052">
        <ele>398</ele>
        <time>2013-09-08T08:45:51Z</time>
      </trkpt>
      <trkpt lat="50.02366" lon="5.38047">
        <ele>398</ele>
        <time>2013-09-08T08:45:57Z</time>
      </trkpt>
      <trkpt lat="50.02371" lon="5.38043">
        <ele>397</ele>
        <time>2013-09-08T08:46:03Z</time>
      </trkpt>
      <trkpt lat="50.02376" lon="5.38039">
        <ele>397</ele>
        <time>2013-09-08T08:46:08Z</time>
      </trkpt>
      <trkpt lat="50.0238" lon="5.38034">
        <ele>397</ele>
        <time>2013-09-08T08:46:14Z</time>
      </trkpt>
      <trkpt lat="50.02386" lon="5.38028">
        <ele>397</ele>
        <time>2013-09-08T08:46:20Z</time>
      </trkpt>
      <trkpt lat="50.02391" lon="5.38024">
        <ele>396</ele>
        <time>2013-09-08T08:46:25Z</time>
      </trkpt>
      <trkpt lat="50.02396" lon="5.38018">
        <ele>396</ele>
        <time>2013-09-08T08:46:31Z</time>
      </trkpt>
      <trkpt lat="50.02401" lon="5.38014">
        <ele>395</ele>
        <time>2013-09-08T08:46:36Z</time>
      </trkpt>
      <trkpt lat="50.02406" lon="5.38009">
        <ele>395</ele>
        <time>2013-09-08T08:46:42Z</time>
      </trkpt>
      <trkpt lat="50.02409" lon="5.38007">
        <ele>395</ele>
        <time>2013-09-08T08:46:47Z</time>
      </trkpt>
      <trkpt lat="50.02413" lon="5.38004">
        <ele>394</ele>
        <time>2013-09-08T08:46:52Z</time>
      </trkpt>
      <trkpt lat="50.02418" lon="5.38">
        <ele>395</ele>
        <time>2013-09-08T08:46:57Z</time>
      </trkpt>
      <trkpt lat="50.02423" lon="5.37996">
        <ele>395</ele>
        <time>2013-09-08T08:47:02Z</time>
      </trkpt>
      <trkpt lat="50.0243" lon="5.37993">
        <ele>394</ele>
        <time>2013-09-08T08:47:08Z</time>
      </trkpt>
      <trkpt lat="50.02434" lon="5.37993">
        <ele>393</ele>
        <time>2013-09-08T08:47:14Z</time>
      </trkpt>
      <trkpt lat="50.02435" lon="5.3799">
        <ele>393</ele>
        <time>2013-09-08T08:47:19Z</time>
      </trkpt>
      <trkpt lat="50.0244" lon="5.37985">
        <ele>393</ele>
        <time>2013-09-08T08:47:24Z</time>
      </trkpt>
      <trkpt lat="50.02445" lon="5.37981">
        <ele>392</ele>
        <time>2013-09-08T08:47:29Z</time>
      </trkpt>
      <trkpt lat="50.0245" lon="5.37976">
        <ele>392</ele>
        <time>2013-09-08T08:47:34Z</time>
      </trkpt>
      <trkpt lat="50.02456" lon="5.3797">
        <ele>392</ele>
        <time>2013-09-08T08:47:40Z</time>
      </trkpt>
      <trkpt lat="50.02461" lon="5.37964">
        <ele>392</ele>
        <time>2013-09-08T08:47:46Z</time>
      </trkpt>
      <trkpt lat="50.02466" lon="5.37958">
        <ele>392</ele>
        <time>2013-09-08T08:47:52Z</time>
      </trkpt>
      <trkpt lat="50.02471" lon="5.37953">
        <ele>391</ele>
        <time>2013-09-08T08:47:57Z</time>
      </trkpt>
      <trkpt lat="50.02476" lon="5.37949">
        <ele>391</ele>
        <time>2013-09-08T08:48:03Z</time>
      </trkpt>
      <trkpt lat="50.0248" lon="5.37945">
        <ele>391</ele>
        <time>2013-09-08T08:48:08Z</time>
      </trkpt>
      <trkpt lat="50.02483" lon="5.37939">
        <ele>391</ele>
        <time>2013-09-08T08:48:14Z</time>
      </trkpt>
      <trkpt lat="50.02487" lon="5.37934">
        <ele>390</ele>
        <time>2013-09-08T08:48:19Z</time>
      </trkpt>
      <trkpt lat="50.02492" lon="5.37928">
        <ele>390</ele>
        <time>2013-09-08T08:48:25Z</time>
      </trkpt>
      <trkpt lat="50.02498" lon="5.37921">
        <ele>390</ele>
        <time>2013-09-08T08:48:31Z</time>
      </trkpt>
      <trkpt lat="50.02502" lon="5.37915">
        <ele>390</ele>
        <time>2013-09-08T08:48:36Z</time>
      </trkpt>
      <trkpt lat="50.02507" lon="5.37908">
        <ele>389</ele>
        <time>2013-09-08T08:48:42Z</time>
      </trkpt>
      <trkpt lat="50.02511" lon="5.37902">
        <ele>389</ele>
        <time>2013-09-08T08:48:47Z</time>
      </trkpt>
      <trkpt lat="50.02517" lon="5.37896">
        <ele>389</ele>
        <time>2013-09-08T08:48:53Z</time>
      </trkpt>
      <trkpt lat="50.02521" lon="5.37891">
        <ele>389</ele>
        <time>2013-09-08T08:48:58Z</time>
      </trkpt>
      <trkpt lat="50.02527" lon="5.37884">
        <ele>388</ele>
        <time>2013-09-08T08:49:04Z</time>
      </trkpt>
      <trkpt lat="50.02533" lon="5.37878">
        <ele>388</ele>
        <time>2013-09-08T08:49:10Z</time>
      </trkpt>
      <trkpt lat="50.02537" lon="5.37874">
        <ele>388</ele>
        <time>2013-09-08T08:49:15Z</time>
      </trkpt>
      <trkpt lat="50.02542" lon="5.3787">
        <ele>388</ele>
        <time>2013-09-08T08:49:20Z</time>
      </trkpt>
      <trkpt lat="50.02549" lon="5.37864">
        <ele>387</ele>
        <time>2013-09-08T08:49:26Z</time>
      </trkpt>
      <trkpt lat="50.02555" lon="5.3786">
        <ele>387</ele>
        <time>2013-09-08T08:49:32Z</time>
      </trkpt>
      <trkpt lat="50.0256" lon="5.37853">
        <ele>387</ele>
        <time>2013-09-08T08:49:38Z</time>
      </trkpt>
      <trkpt lat="50.02564" lon="5.37845">
        <ele>386</ele>
        <time>2013-09-08T08:49:44Z</time>
      </trkpt>
      <trkpt lat="50.02567" lon="5.37835">
        <ele>385</ele>
        <time>2013-09-08T08:49:50Z</time>
      </trkpt>
      <trkpt lat="50.02569" lon="5.37828">
        <ele>384</ele>
        <time>2013-09-08T08:49:55Z</time>
      </trkpt>
      <trkpt lat="50.02575" lon="5.37826">
        <ele>384</ele>
        <time>2013-09-08T08:50:01Z</time>
      </trkpt>
      <trkpt lat="50.02576" lon="5.37832">
        <ele>383</ele>
        <time>2013-09-08T08:50:07Z</time>
      </trkpt>
      <trkpt lat="50.02578" lon="5.37836">
        <ele>384</ele>
        <time>2013-09-08T08:50:12Z</time>
      </trkpt>
      <trkpt lat="50.0258" lon="5.37838">
        <ele>384</ele>
        <time>2013-09-08T08:50:17Z</time>
      </trkpt>
      <trkpt lat="50.02583" lon="5.37844">
        <ele>385</ele>
        <time>2013-09-08T08:50:23Z</time>
      </trkpt>
      <trkpt lat="50.02586" lon="5.37846">
        <ele>385</ele>
        <time>2013-09-08T08:50:28Z</time>
      </trkpt>
      <trkpt lat="50.02586" lon="5.37852">
        <ele>385</ele>
        <time>2013-09-08T08:50:33Z</time>
      </trkpt>
      <trkpt lat="50.02587" lon="5.37862">
        <ele>385</ele>
        <time>2013-09-08T08:50:39Z</time>
      </trkpt>
      <trkpt lat="50.02589" lon="5.3787">
        <ele>386</ele>
        <time>2013-09-08T08:50:45Z</time>
      </trkpt>
      <trkpt lat="50.0259" lon="5.37879">
        <ele>386</ele>
        <time>2013-09-08T08:50:51Z</time>
      </trkpt>
      <trkpt lat="50.02591" lon="5.37886">
        <ele>386</ele>
        <time>2013-09-08T08:50:57Z</time>
      </trkpt>
      <trkpt lat="50.02591" lon="5.37894">
        <ele>387</ele>
        <time>2013-09-08T08:51:03Z</time>
      </trkpt>
      <trkpt lat="50.02591" lon="5.37902">
        <ele>387</ele>
        <time>2013-09-08T08:51:08Z</time>
      </trkpt>
      <trkpt lat="50.02592" lon="5.37911">
        <ele>388</ele>
        <time>2013-09-08T08:51:14Z</time>
      </trkpt>
      <trkpt lat="50.02594" lon="5.37924">
        <ele>387</ele>
        <time>2013-09-08T08:51:20Z</time>
      </trkpt>
      <trkpt lat="50.02597" lon="5.3793">
        <ele>387</ele>
        <time>2013-09-08T08:51:25Z</time>
      </trkpt>
      <trkpt lat="50.026" lon="5.37938">
        <ele>388</ele>
        <time>2013-09-08T08:51:31Z</time>
      </trkpt>
      <trkpt lat="50.02604" lon="5.37943">
        <ele>388</ele>
        <time>2013-09-08T08:51:36Z</time>
      </trkpt>
      <trkpt lat="50.0261" lon="5.3795">
        <ele>388</ele>
        <time>2013-09-08T08:51:42Z</time>
      </trkpt>
      <trkpt lat="50.02614" lon="5.37956">
        <ele>388</ele>
        <time>2013-09-08T08:51:47Z</time>
      </trkpt>
      <trkpt lat="50.02618" lon="5.37965">
        <ele>387</ele>
        <time>2013-09-08T08:51:53Z</time>
      </trkpt>
      <trkpt lat="50.02621" lon="5.37974">
        <ele>387</ele>
        <time>2013-09-08T08:51:59Z</time>
      </trkpt>
      <trkpt lat="50.02627" lon="5.37982">
        <ele>386</ele>
        <time>2013-09-08T08:52:05Z</time>
      </trkpt>
      <trkpt lat="50.02632" lon="5.37988">
        <ele>386</ele>
        <time>2013-09-08T08:52:10Z</time>
      </trkpt>
      <trkpt lat="50.02637" lon="5.37995">
        <ele>385</ele>
        <time>2013-09-08T08:52:15Z</time>
      </trkpt>
      <trkpt lat="50.02642" lon="5.38003">
        <ele>385</ele>
        <time>2013-09-08T08:52:20Z</time>
      </trkpt>
      <trkpt lat="50.02648" lon="5.38014">
        <ele>384</ele>
        <time>2013-09-08T08:52:26Z</time>
      </trkpt>
      <trkpt lat="50.02653" lon="5.38024">
        <ele>383</ele>
        <time>2013-09-08T08:52:31Z</time>
      </trkpt>
      <trkpt lat="50.02658" lon="5.38036">
        <ele>382</ele>
        <time>2013-09-08T08:52:37Z</time>
      </trkpt>
      <trkpt lat="50.02661" lon="5.38046">
        <ele>381</ele>
        <time>2013-09-08T08:52:42Z</time>
      </trkpt>
      <trkpt lat="50.02667" lon="5.38056">
        <ele>380</ele>
        <time>2013-09-08T08:52:48Z</time>
      </trkpt>
      <trkpt lat="50.02671" lon="5.38062">
        <ele>378</ele>
        <time>2013-09-08T08:52:54Z</time>
      </trkpt>
      <trkpt lat="50.02671" lon="5.3807">
        <ele>378</ele>
        <time>2013-09-08T08:52:59Z</time>
      </trkpt>
      <trkpt lat="50.02671" lon="5.38074">
        <ele>378</ele>
        <time>2013-09-08T08:53:05Z</time>
      </trkpt>
      <trkpt lat="50.02672" lon="5.38075">
        <ele>378</ele>
        <time>2013-09-08T08:53:10Z</time>
      </trkpt>
      <trkpt lat="50.02673" lon="5.38075">
        <ele>378</ele>
        <time>2013-09-08T08:53:16Z</time>
      </trkpt>
      <trkpt lat="50.02673" lon="5.38076">
        <ele>378</ele>
        <time>2013-09-08T08:53:21Z</time>
      </trkpt>
      <trkpt lat="50.02679" lon="5.38074">
        <ele>378</ele>
        <time>2013-09-08T08:53:27Z</time>
      </trkpt>
      <trkpt lat="50.02688" lon="5.3807">
        <ele>377</ele>
        <time>2013-09-08T08:53:33Z</time>
      </trkpt>
      <trkpt lat="50.02697" lon="5.38069">
        <ele>376</ele>
        <time>2013-09-08T08:53:39Z</time>
      </trkpt>
      <trkpt lat="50.02703" lon="5.38069">
        <ele>376</ele>
        <time>2013-09-08T08:53:44Z</time>
      </trkpt>
      <trkpt lat="50.02703" lon="5.3807">
        <ele>376</ele>
        <time>2013-09-08T08:53:49Z</time>
      </trkpt>
      <trkpt lat="50.02704" lon="5.3807">
        <ele>376</ele>
        <time>2013-09-08T08:53:55Z</time>
      </trkpt>
      <trkpt lat="50.02707" lon="5.38077">
        <ele>375</ele>
        <time>2013-09-08T08:54:01Z</time>
      </trkpt>
      <trkpt lat="50.0271" lon="5.38087">
        <ele>375</ele>
        <time>2013-09-08T08:54:07Z</time>
      </trkpt>
      <trkpt lat="50.02713" lon="5.38094">
        <ele>375</ele>
        <time>2013-09-08T08:54:12Z</time>
      </trkpt>
      <trkpt lat="50.02716" lon="5.38093">
        <ele>375</ele>
        <time>2013-09-08T08:54:18Z</time>
      </trkpt>
      <trkpt lat="50.02721" lon="5.38088">
        <ele>374</ele>
        <time>2013-09-08T08:54:24Z</time>
      </trkpt>
      <trkpt lat="50.02723" lon="5.38084">
        <ele>375</ele>
        <time>2013-09-08T08:54:29Z</time>
      </trkpt>
      <trkpt lat="50.02723" lon="5.38083">
        <ele>375</ele>
        <time>2013-09-08T08:54:34Z</time>
      </trkpt>
      <trkpt lat="50.02724" lon="5.38082">
        <ele>375</ele>
        <time>2013-09-08T08:54:42Z</time>
      </trkpt>
      <trkpt lat="50.02723" lon="5.38081">
        <ele>375</ele>
        <time>2013-09-08T08:54:47Z</time>
      </trkpt>
      <trkpt lat="50.02722" lon="5.38082">
        <ele>376</ele>
        <time>2013-09-08T08:54:53Z</time>
      </trkpt>
      <trkpt lat="50.02721" lon="5.38083">
        <ele>376</ele>
        <time>2013-09-08T08:54:58Z</time>
      </trkpt>
      <trkpt lat="50.0272" lon="5.38082">
        <ele>376</ele>
        <time>2013-09-08T08:55:04Z</time>
      </trkpt>
      <trkpt lat="50.0272" lon="5.38082">
        <ele>376</ele>
        <time>2013-09-08T08:55:10Z</time>
      </trkpt>
      <trkpt lat="50.02719" lon="5.38081">
        <ele>376</ele>
        <time>2013-09-08T08:55:15Z</time>
      </trkpt>
      <trkpt lat="50.02717" lon="5.38081">
        <ele>376</ele>
        <time>2013-09-08T08:55:20Z</time>
      </trkpt>
      <trkpt lat="50.02716" lon="5.3808">
        <ele>375</ele>
        <time>2013-09-08T08:55:25Z</time>
      </trkpt>
      <trkpt lat="50.02715" lon="5.3808">
        <ele>376</ele>
        <time>2013-09-08T08:55:31Z</time>
      </trkpt>
      <trkpt lat="50.02714" lon="5.3808">
        <ele>375</ele>
        <time>2013-09-08T08:55:37Z</time>
      </trkpt>
      <trkpt lat="50.02713" lon="5.3808">
        <ele>375</ele>
        <time>2013-09-08T08:55:42Z</time>
      </trkpt>
      <trkpt lat="50.02713" lon="5.38081">
        <ele>375</ele>
        <time>2013-09-08T08:55:48Z</time>
      </trkpt>
      <trkpt lat="50.02713" lon="5.38082">
        <ele>376</ele>
        <time>2013-09-08T08:55:53Z</time>
      </trkpt>
      <trkpt lat="50.02713" lon="5.38082">
        <ele>376</ele>
        <time>2013-09-08T08:55:58Z</time>
      </trkpt>
      <trkpt lat="50.02712" lon="5.38081">
        <ele>375</ele>
        <time>2013-09-08T08:56:03Z</time>
      </trkpt>
      <trkpt lat="50.02712" lon="5.38081">
        <ele>376</ele>
        <time>2013-09-08T08:56:09Z</time>
      </trkpt>
      <trkpt lat="50.02711" lon="5.3808">
        <ele>376</ele>
        <time>2013-09-08T08:56:15Z</time>
      </trkpt>
      <trkpt lat="50.02712" lon="5.38079">
        <ele>375</ele>
        <time>2013-09-08T08:56:21Z</time>
      </trkpt>
      <trkpt lat="50.02713" lon="5.38078">
        <ele>375</ele>
        <time>2013-09-08T08:56:27Z</time>
      </trkpt>
      <trkpt lat="50.02713" lon="5.38078">
        <ele>375</ele>
        <time>2013-09-08T08:56:32Z</time>
      </trkpt>
      <trkpt lat="50.02714" lon="5.38077">
        <ele>376</ele>
        <time>2013-09-08T08:56:39Z</time>
      </trkpt>
      <trkpt lat="50.02715" lon="5.38078">
        <ele>375</ele>
        <time>2013-09-08T08:56:45Z</time>
      </trkpt>
      <trkpt lat="50.02715" lon="5.38078">
        <ele>374</ele>
        <time>2013-09-08T08:56:51Z</time>
      </trkpt>
      <trkpt lat="50.02715" lon="5.38078">
        <ele>374</ele>
        <time>2013-09-08T08:56:56Z</time>
      </trkpt>
      <trkpt lat="50.02715" lon="5.38078">
        <ele>375</ele>
        <time>2013-09-08T08:57:02Z</time>
      </trkpt>
      <trkpt lat="50.02715" lon="5.38078">
        <ele>375</ele>
        <time>2013-09-08T08:57:11Z</time>
      </trkpt>
      <trkpt lat="50.02716" lon="5.38078">
        <ele>374</ele>
        <time>2013-09-08T08:57:17Z</time>
      </trkpt>
      <trkpt lat="50.02716" lon="5.38078">
        <ele>375</ele>
        <time>2013-09-08T08:57:24Z</time>
      </trkpt>
      <trkpt lat="50.02716" lon="5.38077">
        <ele>375</ele>
        <time>2013-09-08T08:57:29Z</time>
      </trkpt>
      <trkpt lat="50.02716" lon="5.38075">
        <ele>376</ele>
        <time>2013-09-08T08:57:35Z</time>
      </trkpt>
      <trkpt lat="50.02717" lon="5.38076">
        <ele>376</ele>
        <time>2013-09-08T08:57:40Z</time>
      </trkpt>
      <trkpt lat="50.02717" lon="5.38078">
        <ele>376</ele>
        <time>2013-09-08T08:57:46Z</time>
      </trkpt>
      <trkpt lat="50.02717" lon="5.3808">
        <ele>376</ele>
        <time>2013-09-08T08:57:52Z</time>
      </trkpt>
      <trkpt lat="50.02718" lon="5.38081">
        <ele>376</ele>
        <time>2013-09-08T08:57:58Z</time>
      </trkpt>
      <trkpt lat="50.02718" lon="5.38082">
        <ele>375</ele>
        <time>2013-09-08T08:58:03Z</time>
      </trkpt>
      <trkpt lat="50.02718" lon="5.38083">
        <ele>376</ele>
        <time>2013-09-08T08:58:09Z</time>
      </trkpt>
      <trkpt lat="50.02718" lon="5.38083">
        <ele>375</ele>
        <time>2013-09-08T08:58:14Z</time>
      </trkpt>
      <trkpt lat="50.02719" lon="5.38082">
        <ele>376</ele>
        <time>2013-09-08T08:58:21Z</time>
      </trkpt>
      <trkpt lat="50.02719" lon="5.38083">
        <ele>375</ele>
        <time>2013-09-08T08:58:27Z</time>
      </trkpt>
      <trkpt lat="50.02717" lon="5.38085">
        <ele>375</ele>
        <time>2013-09-08T08:58:33Z</time>
      </trkpt>
      <trkpt lat="50.02716" lon="5.38089">
        <ele>375</ele>
        <time>2013-09-08T08:58:39Z</time>
      </trkpt>
      <trkpt lat="50.02715" lon="5.38093">
        <ele>375</ele>
        <time>2013-09-08T08:58:44Z</time>
      </trkpt>
      <trkpt lat="50.02712" lon="5.381">
        <ele>375</ele>
        <time>2013-09-08T08:58:50Z</time>
      </trkpt>
      <trkpt lat="50.02711" lon="5.38108">
        <ele>374</ele>
        <time>2013-09-08T08:58:55Z</time>
      </trkpt>
      <trkpt lat="50.02714" lon="5.3811">
        <ele>374</ele>
        <time>2013-09-08T08:59:00Z</time>
      </trkpt>
      <trkpt lat="50.02717" lon="5.38111">
        <ele>374</ele>
        <time>2013-09-08T08:59:05Z</time>
      </trkpt>
      <trkpt lat="50.02717" lon="5.38112">
        <ele>374</ele>
        <time>2013-09-08T08:59:10Z</time>
      </trkpt>
      <trkpt lat="50.02718" lon="5.38112">
        <ele>374</ele>
        <time>2013-09-08T08:59:15Z</time>
      </trkpt>
      <trkpt lat="50.02719" lon="5.38112">
        <ele>374</ele>
        <time>2013-09-08T08:59:21Z</time>
      </trkpt>
      <trkpt lat="50.02722" lon="5.38108">
        <ele>375</ele>
        <time>2013-09-08T08:59:27Z</time>
      </trkpt>
      <trkpt lat="50.02722" lon="5.38107">
        <ele>375</ele>
        <time>2013-09-08T08:59:33Z</time>
      </trkpt>
      <trkpt lat="50.02721" lon="5.38107">
        <ele>374</ele>
        <time>2013-09-08T08:59:38Z</time>
      </trkpt>
      <trkpt lat="50.02721" lon="5.38106">
        <ele>374</ele>
        <time>2013-09-08T08:59:44Z</time>
      </trkpt>
      <trkpt lat="50.0272" lon="5.38105">
        <ele>374</ele>
        <time>2013-09-08T08:59:49Z</time>
      </trkpt>
      <trkpt lat="50.0272" lon="5.38104">
        <ele>375</ele>
        <time>2013-09-08T08:59:55Z</time>
      </trkpt>
      <trkpt lat="50.0272" lon="5.38104">
        <ele>375</ele>
        <time>2013-09-08T09:00:00Z</time>
      </trkpt>
      <trkpt lat="50.02719" lon="5.38104">
        <ele>374</ele>
        <time>2013-09-08T09:00:05Z</time>
      </trkpt>
      <trkpt lat="50.02718" lon="5.38104">
        <ele>374</ele>
        <time>2013-09-08T09:00:11Z</time>
      </trkpt>
      <trkpt lat="50.02716" lon="5.38108">
        <ele>375</ele>
        <time>2013-09-08T09:00:16Z</time>
      </trkpt>
      <trkpt lat="50.02711" lon="5.38112">
        <ele>374</ele>
        <time>2013-09-08T09:00:22Z</time>
      </trkpt>
      <trkpt lat="50.02707" lon="5.38116">
        <ele>374</ele>
        <time>2013-09-08T09:00:28Z</time>
      </trkpt>
      <trkpt lat="50.0271" lon="5.38122">
        <ele>374</ele>
        <time>2013-09-08T09:00:33Z</time>
      </trkpt>
      <trkpt lat="50.02712" lon="5.3813">
        <ele>374</ele>
        <time>2013-09-08T09:00:38Z</time>
      </trkpt>
      <trkpt lat="50.02715" lon="5.3814">
        <ele>374</ele>
        <time>2013-09-08T09:00:44Z</time>
      </trkpt>
      <trkpt lat="50.02717" lon="5.38147">
        <ele>374</ele>
        <time>2013-09-08T09:00:49Z</time>
      </trkpt>
      <trkpt lat="50.0272" lon="5.38157">
        <ele>374</ele>
        <time>2013-09-08T09:00:55Z</time>
      </trkpt>
      <trkpt lat="50.02723" lon="5.38164">
        <ele>374</ele>
        <time>2013-09-08T09:01:00Z</time>
      </trkpt>
      <trkpt lat="50.02726" lon="5.3817">
        <ele>374</ele>
        <time>2013-09-08T09:01:05Z</time>
      </trkpt>
      <trkpt lat="50.02729" lon="5.38176">
        <ele>374</ele>
        <time>2013-09-08T09:01:10Z</time>
      </trkpt>
      <trkpt lat="50.02734" lon="5.38183">
        <ele>374</ele>
        <time>2013-09-08T09:01:16Z</time>
      </trkpt>
      <trkpt lat="50.02738" lon="5.3819">
        <ele>374</ele>
        <time>2013-09-08T09:01:21Z</time>
      </trkpt>
      <trkpt lat="50.02742" lon="5.38195">
        <ele>374</ele>
        <time>2013-09-08T09:01:26Z</time>
      </trkpt>
      <trkpt lat="50.02747" lon="5.38204">
        <ele>374</ele>
        <time>2013-09-08T09:01:32Z</time>
      </trkpt>
      <trkpt lat="50.02752" lon="5.38212">
        <ele>374</ele>
        <time>2013-09-08T09:01:38Z</time>
      </trkpt>
      <trkpt lat="50.02756" lon="5.38222">
        <ele>374</ele>
        <time>2013-09-08T09:01:44Z</time>
      </trkpt>
      <trkpt lat="50.02759" lon="5.38228">
        <ele>374</ele>
        <time>2013-09-08T09:01:49Z</time>
      </trkpt>
      <trkpt lat="50.02763" lon="5.38233">
        <ele>374</ele>
        <time>2013-09-08T09:01:54Z</time>
      </trkpt>
      <trkpt lat="50.02767" lon="5.38239">
        <ele>374</ele>
        <time>2013-09-08T09:01:59Z</time>
      </trkpt>
      <trkpt lat="50.02771" lon="5.38246">
        <ele>374</ele>
        <time>2013-09-08T09:02:05Z</time>
      </trkpt>
      <trkpt lat="50.02775" lon="5.38252">
        <ele>374</ele>
        <time>2013-09-08T09:02:11Z</time>
      </trkpt>
      <trkpt lat="50.02778" lon="5.38258">
        <ele>373</ele>
        <time>2013-09-08T09:02:16Z</time>
      </trkpt>
      <trkpt lat="50.02782" lon="5.38264">
        <ele>373</ele>
        <time>2013-09-08T09:02:22Z</time>
      </trkpt>
      <trkpt lat="50.02788" lon="5.38269">
        <ele>373</ele>
        <time>2013-09-08T09:02:28Z</time>
      </trkpt>
      <trkpt lat="50.02793" lon="5.38272">
        <ele>373</ele>
        <time>2013-09-08T09:02:33Z</time>
      </trkpt>
      <trkpt lat="50.02798" lon="5.38277">
        <ele>373</ele>
        <time>2013-09-08T09:02:38Z</time>
      </trkpt>
      <trkpt lat="50.02802" lon="5.3828">
        <ele>373</ele>
        <time>2013-09-08T09:02:43Z</time>
      </trkpt>
      <trkpt lat="50.0281" lon="5.38284">
        <ele>372</ele>
        <time>2013-09-08T09:02:49Z</time>
      </trkpt>
      <trkpt lat="50.02816" lon="5.38287">
        <ele>372</ele>
        <time>2013-09-08T09:02:54Z</time>
      </trkpt>
      <trkpt lat="50.02823" lon="5.38292">
        <ele>372</ele>
        <time>2013-09-08T09:03:00Z</time>
      </trkpt>
      <trkpt lat="50.0283" lon="5.38295">
        <ele>373</ele>
        <time>2013-09-08T09:03:05Z</time>
      </trkpt>
      <trkpt lat="50.02836" lon="5.38298">
        <ele>373</ele>
        <time>2013-09-08T09:03:10Z</time>
      </trkpt>
      <trkpt lat="50.02841" lon="5.38296">
        <ele>372</ele>
        <time>2013-09-08T09:03:16Z</time>
      </trkpt>
      <trkpt lat="50.02847" lon="5.38292">
        <ele>372</ele>
        <time>2013-09-08T09:03:21Z</time>
      </trkpt>
      <trkpt lat="50.02852" lon="5.38286">
        <ele>372</ele>
        <time>2013-09-08T09:03:27Z</time>
      </trkpt>
      <trkpt lat="50.02854" lon="5.38281">
        <ele>371</ele>
        <time>2013-09-08T09:03:32Z</time>
      </trkpt>
      <trkpt lat="50.02855" lon="5.38274">
        <ele>371</ele>
        <time>2013-09-08T09:03:37Z</time>
      </trkpt>
      <trkpt lat="50.02856" lon="5.38267">
        <ele>370</ele>
        <time>2013-09-08T09:03:43Z</time>
      </trkpt>
      <trkpt lat="50.02858" lon="5.38262">
        <ele>370</ele>
        <time>2013-09-08T09:03:48Z</time>
      </trkpt>
      <trkpt lat="50.02861" lon="5.38252">
        <ele>369</ele>
        <time>2013-09-08T09:03:54Z</time>
      </trkpt>
      <trkpt lat="50.02864" lon="5.38243">
        <ele>368</ele>
        <time>2013-09-08T09:04:00Z</time>
      </trkpt>
      <trkpt lat="50.02865" lon="5.38231">
        <ele>367</ele>
        <time>2013-09-08T09:04:06Z</time>
      </trkpt>
      <trkpt lat="50.02866" lon="5.38222">
        <ele>367</ele>
        <time>2013-09-08T09:04:11Z</time>
      </trkpt>
      <trkpt lat="50.02866" lon="5.38216">
        <ele>367</ele>
        <time>2013-09-08T09:04:16Z</time>
      </trkpt>
      <trkpt lat="50.02865" lon="5.38214">
        <ele>367</ele>
        <time>2013-09-08T09:04:22Z</time>
      </trkpt>
      <trkpt lat="50.02864" lon="5.38211">
        <ele>367</ele>
        <time>2013-09-08T09:04:27Z</time>
      </trkpt>
      <trkpt lat="50.02864" lon="5.38208">
        <ele>367</ele>
        <time>2013-09-08T09:04:33Z</time>
      </trkpt>
      <trkpt lat="50.02863" lon="5.38204">
        <ele>367</ele>
        <time>2013-09-08T09:04:39Z</time>
      </trkpt>
      <trkpt lat="50.02863" lon="5.38202">
        <ele>367</ele>
        <time>2013-09-08T09:04:45Z</time>
      </trkpt>
      <trkpt lat="50.02863" lon="5.382">
        <ele>368</ele>
        <time>2013-09-08T09:04:50Z</time>
      </trkpt>
      <trkpt lat="50.02862" lon="5.38199">
        <ele>367</ele>
        <time>2013-09-08T09:04:55Z</time>
      </trkpt>
      <trkpt lat="50.02863" lon="5.38198">
        <ele>368</ele>
        <time>2013-09-08T09:05:01Z</time>
      </trkpt>
      <trkpt lat="50.02862" lon="5.38197">
        <ele>368</ele>
        <time>2013-09-08T09:05:06Z</time>
      </trkpt>
      <trkpt lat="50.02862" lon="5.38198">
        <ele>368</ele>
        <time>2013-09-08T09:05:12Z</time>
      </trkpt>
      <trkpt lat="50.02861" lon="5.38198">
        <ele>368</ele>
        <time>2013-09-08T09:05:17Z</time>
      </trkpt>
      <trkpt lat="50.0286" lon="5.38196">
        <ele>368</ele>
        <time>2013-09-08T09:05:23Z</time>
      </trkpt>
      <trkpt lat="50.02859" lon="5.38196">
        <ele>368</ele>
        <time>2013-09-08T09:05:24Z</time>
      </trkpt>
    </trkseg>
  </trk>
</gpx>